[[{"header":{"parameterUnit":"m.s-1","parameterCategory":1,"la1":31.0,"la2":29.5877,"lo1":-88.7671,"lo2":-86.6584,"dy":0.0162,"dx":0.0185,"nx":115,"ny":88,"refTime":"2026-04-26T12:00:00:Z","depth":0,"parameterNumber":2,"parameterNumberName":"U-component_of_WINDS"},"data":[0.0,0.0,0.0,0.0,0.0,0.0,0.0,0.0,0.0,0.0,0.0,0.0,0.0,0.0,0.0,0.0,0.0,0.0,0.0,0.0,0.0,0.0,0.0,0.0,0.0,0.0,0.0,0.0,0.0,0.0,0.0,0.0,0.0,0.0,0.0,0.0,0.0,0.0,0.0,0.0,0.0,0.0,0.0,0.0,0.0,0.0,0.0,0.0,0.0,0.0,0.0,0.0,0.0,0.0,0.0,0.0,0.0,0.0,0.0,0.0,0.0,0.0,0.0,0.0,0.0,0.0,0.0,0.0,0.0,0.0,0.0,0.0,0.0,0.0,0.0,0.0,0.0,0.0,0.0,0.0,0.0,0.0,0.0,0.0,0.0,0.0,0.0,0.0,0.0,0.0,0.0,0.0,0.0,0.0,0.0,0.0,0.0,0.0,0.0,0.0,0.0,0.0,0.0,0.0,0.0,0.0,0.0,0.0,0.0,0.0,0.0,0.0,0.0,0.0,0.0,0.0,0.0,0.0,0.0,0.0,0.0,0.0,0.0,0.0,0.0,0.0,0.0,0.0,0.0,0.0,0.0,0.0,0.0,0.0,0.0,0.0,0.0,0.0,0.0,0.0,0.0,0.0,0.0,0.0,0.0,0.0,0.0,0.0,0.0,0.0,0.0,0.0,0.0,0.0,0.0,0.0,0.0,0.0,0.0,0.0,0.0,0.0,0.0,0.0,0.0,0.0,0.0,0.0,0.0,0.0,0.0,0.0,0.0,0.0,0.0,0.0,0.0,0.0,0.0,0.0,0.0,0.0,0.0,0.0,0.0,0.0,0.0,0.0,0.0,0.0,0.0,0.0,0.0,0.0,0.0,0.0,0.0,0.0,0.0,0.0,0.0,0.0,0.0,0.0,0.0,0.0,0.0,0.0,0.0,0.0,0.0,0.0,0.0,0.0,0.0,0.0,0.0,0.0,0.0,0.0,0.0,0.0,0.0,0.0,0.0,0.0,0.0,0.0,0.0,0.0,0.0,0.0,0.0,0.0,0.0,0.0,0.0,0.0,0.0,0.0,0.0,0.0,0.0,0.0,0.0,0.0,0.0,0.0,0.0,0.0,0.0,0.0,0.0,0.0,0.0,0.0,0.0,0.0,0.0,0.0,0.0,0.0,0.0,0.0,0.0,0.0,0.0,0.0,0.0,0.0,0.0,0.0,0.0,0.0,0.0,0.0,0.0,0.0,0.0,0.0,0.0,0.0,0.0,0.0,0.0,0.0,0.0,0.0,0.0,0.0,0.0,0.0,0.0,0.0,0.0,0.0,0.0,0.0,0.0,0.0,0.0,0.0,0.0,0.0,0.0,0.0,0.0,0.0,0.0,0.0,0.0,0.0,0.0,0.0,0.0,0.0,0.0,0.0,0.0,0.0,0.0,0.0,0.0,0.0,0.0,0.0,0.0,0.0,0.0,0.0,0.0,0.0,0.0,0.0,0.0,0.0,0.0,0.0,0.0,0.0,0.0,0.0,0.0,0.0,0.0,0.0,0.0,0.0,0.0,0.0,0.0,0.0,0.0,0.0,0.0,0.0,0.0,0.0,0.0,0.0,0.0,0.0,0.0,0.0,0.0,0.0,0.0,0.0,0.0,0.0,0.0,0.0,0.0,0.0,0.0,0.0,0.0,0.0,0.0,0.0,0.0,0.0,0.0,0.0,0.0,0.0,0.0,0.0,0.0,0.0,0.0,0.0,0.0,0.0,0.0,0.0,0.0,0.0,0.0,0.0,0.0,0.0,0.0,0.0,0.0,0.0,0.0,0.0,0.0,0.0,0.0,0.0,0.0,0.0,0.0,0.0,0.0,0.0,0.0,0.0,0.0,0.0,0.0,0.0,0.0,0.0,0.0,0.0,0.0,0.0,0.0,0.0,0.0,0.0,0.0,0.0,0.0,0.0,0.0,0.0,0.0,0.0,0.0,0.0,0.0,0.0,0.0,0.0,0.0,0.0,0.0,0.0,0.0,0.0,0.0,0.0,0.0,0.0,0.0,0.0,0.0,0.0,0.0,0.0,0.0,0.0,0.0,0.0,0.0,0.0,0.0,0.0,0.0,0.0,0.0,0.0,0.0,0.0,0.0,0.0,0.0,0.0,0.0,0.0,0.0,0.0,0.0,0.0,0.0,0.0,0.0,0.0,0.0,0.0,0.0,0.0,0.0,0.0,0.0,0.0,0.0,0.0,0.0,0.0,0.0,0.0,0.0,0.0,0.0,0.0,0.0,0.0,0.0,0.0,0.0,0.0,0.0,0.0,0.0,0.0,0.0,0.0,0.0,0.0,0.0,0.0,0.0,0.0,0.0,0.0,0.0,0.0,0.0,0.0,0.0,0.0,0.0,0.0,0.0,0.0,0.0,0.0,0.0,0.0,0.0,0.0,0.0,0.0,0.0,0.0,0.0,0.0,0.0,0.0,0.0,0.0,0.0,0.0,0.0,0.0,0.0,0.0,0.0,0.0,0.0,0.0,0.0,0.0,0.0,0.0,0.0,0.0,0.0,0.0,0.0,0.0,0.0,0.0,0.0,0.0,0.0,0.0,0.0,0.0,0.0,0.0,0.0,0.0,0.0,0.0,0.0,0.0,0.0,0.0,0.0,0.0,0.0,0.0,0.0,0.0,0.0,0.0,0.0,0.0,0.0,0.0,0.0,0.0,0.0,0.0,0.0,0.0,0.0,0.0,0.0,0.0,0.0,0.0,0.0,0.0,0.0,0.0,0.0,0.0,0.0,0.0,0.0,0.0,0.0,0.0,0.0,0.0,0.0,0.0,0.0,0.0,0.0,0.0,0.0,0.0,0.0,0.0,0.0,0.0,0.0,0.0,0.0,0.0,0.0,0.0,0.0,0.0,0.0,0.0,0.0,0.0,0.0,0.0,0.0,0.0,0.0,0.0,0.0,0.0,0.0,0.0,0.0,0.0,0.0,0.0,0.0,0.0,0.0,0.0,0.0,0.0,0.0,0.0,0.0,0.0,0.0,0.0,0.0,0.0,0.0,0.0,0.0,0.0,0.0,0.0,0.0,0.0,0.0,0.0,0.0,0.0,0.0,0.0,0.0,0.0,0.0,0.0,0.0,0.0,0.0,0.0,0.0,0.0,0.0,0.0,0.0,0.0,0.0,0.0,0.0,0.0,0.0,0.0,0.0,0.0,0.0,0.0,0.0,0.0,0.0,0.0,0.0,0.0,0.0,0.0,0.0,0.0,0.0,0.0,0.0,0.0,0.0,0.0,0.0,0.0,0.0,0.0,0.0,0.0,0.0,0.0,0.0,0.0,0.0,0.0,0.0,0.0,0.0,0.0,0.0,0.0,0.0,0.0,0.0,0.0,0.0,0.0,0.0,0.0,0.0,0.0,0.0,0.0,0.0,0.0,0.0,0.0,0.0,0.0,0.0,0.0,0.0,0.0,0.0,0.0,0.0,0.0,0.0,0.0,0.0,0.0,0.0,0.0,0.0,0.0,0.0,0.0,0.0,0.0,0.0,0.0,0.0,0.0,0.0,0.0,0.0,0.0,0.0,0.0,0.0,0.0,0.0,0.0,0.0,0.0,0.0,0.0,0.0,0.0,0.0,0.0,0.0,0.0,0.0,0.0,0.0,0.0,0.0,0.0,0.0,0.0,0.0,0.0,0.0,0.0,0.0,0.0,0.0,0.0,0.0,0.0,0.0,0.0,0.0,0.0,0.0,0.0,0.0,0.0,0.0,0.0,0.0,0.0,0.0,0.0,0.0,0.0,0.0,0.0,0.0,0.0,0.0,0.0,0.0,0.0,0.0,0.0,0.0,0.0,0.0,0.0,0.0,0.0,0.0,0.0,0.0,0.0,0.0,0.0,0.0,0.0,0.0,0.0,0.0,0.0,0.0,0.0,0.0,0.0,0.0,0.0,0.0,0.0,0.0,0.0,0.0,0.0,0.0,0.0,0.0,0.0,0.0,0.0,0.0,0.0,0.0,0.0,0.0,0.0,0.0,0.0,0.0,0.0,0.0,0.0,0.0,0.0,0.0,0.0,0.0,0.0,0.0,0.0,0.0,0.0,0.0,0.0,0.0,0.0,0.0,0.0,0.0,0.0,0.0,0.0,0.0,0.0,0.0,0.0,0.0,0.0,0.0,0.0,0.0,0.0,0.0,0.0,0.0,0.0,0.0,0.0,0.0,0.0,0.0,0.0,0.0,0.0,0.0,0.0,0.0,0.0,0.0,0.0,0.0,0.0,0.0,0.0,0.0,0.0,0.0,0.0,-1.1282,0.0,0.0,0.0,0.0,0.0,0.0,0.0,0.0,0.0,0.0,0.0,0.0,0.0,0.0,0.0,0.0,0.0,0.0,0.0,0.0,0.0,0.0,0.0,0.0,0.0,0.0,0.0,0.0,0.0,0.0,0.0,0.0,0.0,0.0,0.0,0.0,0.0,0.0,0.0,0.0,0.0,0.0,0.0,0.0,0.0,0.0,0.0,0.0,0.0,0.0,0.0,0.0,0.0,0.0,0.0,0.0,0.0,0.0,0.0,0.0,0.0,0.0,0.0,0.0,0.0,0.0,0.0,0.0,0.0,0.0,0.0,0.0,0.0,0.0,0.0,0.0,0.0,0.0,0.0,0.0,0.0,0.0,0.0,0.0,0.0,0.0,0.0,0.0,0.0,0.0,0.0,0.0,0.0,0.0,0.0,0.0,0.0,0.0,0.0,0.0,0.0,0.0,0.0,0.0,0.0,0.0,0.0,0.0,0.0,0.0,-1.2218,-1.2197,-1.2056,-1.169,-1.1123,0.0,0.0,0.0,0.0,0.0,0.0,0.0,0.0,0.0,0.0,0.0,0.0,0.0,0.0,0.0,0.0,0.0,0.0,0.0,0.0,0.0,0.0,0.0,0.0,0.0,0.0,0.0,0.0,0.0,0.0,0.0,0.0,0.0,0.0,0.0,0.0,0.0,0.0,0.0,0.0,0.0,0.0,0.0,0.0,0.0,0.0,0.0,0.0,0.0,0.0,0.0,0.0,0.0,0.0,0.0,0.0,0.0,0.0,0.0,0.0,0.0,0.0,0.0,0.0,0.0,0.0,0.0,0.0,0.0,0.0,0.0,0.0,0.0,0.0,0.0,0.0,0.0,0.0,0.0,0.0,0.0,0.0,0.0,0.0,0.0,0.0,0.0,0.0,0.0,0.0,0.0,0.0,0.0,0.0,0.0,0.0,0.0,0.0,0.0,0.0,0.0,0.0,0.0,0.0,0.0,0.0,0.0,0.0,0.0,0.0,0.0,0.0,-1.1947,-1.1761,-1.1494,0.0,0.0,0.0,0.0,0.0,0.0,0.0,0.0,0.0,0.0,0.0,0.0,0.0,0.0,0.0,0.0,0.0,0.0,0.0,0.0,0.0,0.0,0.0,0.0,0.0,0.0,0.0,0.0,0.0,0.0,0.0,0.0,0.0,0.0,0.0,0.0,0.0,0.0,0.0,0.0,0.0,0.0,0.0,0.0,0.0,0.0,0.0,0.0,0.0,0.0,0.0,0.0,0.0,0.0,0.0,0.0,0.0,0.0,0.0,0.0,0.0,0.0,0.0,0.0,0.0,0.0,0.0,0.0,0.0,0.0,0.0,0.0,0.0,0.0,0.0,0.0,0.0,0.0,0.0,0.0,0.0,0.0,0.0,0.0,0.0,0.0,0.0,0.0,0.0,0.0,0.0,0.0,0.0,0.0,0.0,0.0,0.0,0.0,0.0,0.0,0.0,0.0,0.0,0.0,0.0,0.0,0.0,0.0,0.0,0.0,-1.2712,-1.2867,-1.3417,0.0,-1.3222,0.0,0.0,0.0,0.0,0.0,0.0,0.0,0.0,0.0,0.0,0.0,0.0,0.0,0.0,0.0,0.0,0.0,0.0,0.0,0.0,0.0,0.0,0.0,0.0,0.0,0.0,0.0,0.0,0.0,0.0,0.0,0.0,0.0,0.0,0.0,0.0,0.0,0.0,0.0,0.0,0.0,0.0,0.0,0.0,0.0,0.0,0.0,0.0,0.0,0.0,0.0,0.0,0.0,0.0,0.0,0.0,0.0,0.0,0.0,0.0,0.0,0.0,0.0,0.0,0.0,0.0,0.0,0.0,0.0,0.0,0.0,0.0,0.0,0.0,0.0,0.0,0.0,0.0,0.0,0.0,0.0,0.0,0.0,0.0,0.0,0.0,0.0,0.0,0.0,0.0,0.0,0.0,0.0,0.0,0.0,0.0,0.0,0.0,0.0,0.0,0.0,0.0,0.0,0.0,0.0,0.0,0.0,0.0,0.0,0.0,-1.3321,-1.3193,-1.3247,-1.3374,0.0,0.0,0.0,0.0,0.0,0.0,0.0,0.0,0.0,0.0,0.0,0.0,0.0,0.0,0.0,0.0,0.0,0.0,0.0,0.0,0.0,0.0,0.0,0.0,0.0,0.0,0.0,0.0,0.0,0.0,0.0,0.0,0.0,0.0,0.0,0.0,0.0,0.0,0.0,0.0,0.0,0.0,0.0,0.0,0.0,0.0,0.0,0.0,0.0,0.0,0.0,0.0,0.0,0.0,0.0,0.0,0.0,0.0,0.0,0.0,0.0,0.0,0.0,0.0,0.0,0.0,0.0,0.0,0.0,0.0,0.0,0.0,0.0,0.0,0.0,0.0,0.0,0.0,0.0,0.0,0.0,0.0,0.0,0.0,0.0,0.0,0.0,0.0,0.0,0.0,0.0,0.0,0.0,0.0,0.0,0.0,0.0,0.0,0.0,0.0,0.0,0.0,0.0,0.0,0.0,0.0,0.0,0.0,0.0,0.0,-1.3207,-1.3738,-1.3626,-1.3474,-1.336,-1.3239,0.0,0.0,0.0,0.0,0.0,0.0,0.0,0.0,0.0,0.0,0.0,0.0,0.0,0.0,0.0,0.0,0.0,0.0,0.0,0.0,0.0,0.0,0.0,0.0,0.0,0.0,0.0,0.0,0.0,0.0,0.0,0.0,0.0,0.0,0.0,0.0,0.0,0.0,0.0,0.0,0.0,0.0,0.0,0.0,0.0,0.0,0.0,0.0,0.0,0.0,0.0,0.0,0.0,0.0,0.0,0.0,0.0,0.0,0.0,0.0,0.0,0.0,0.0,0.0,0.0,0.0,0.0,0.0,0.0,0.0,0.0,0.0,0.0,0.0,0.0,0.0,0.0,0.0,0.0,0.0,0.0,0.0,0.0,0.0,0.0,0.0,0.0,0.0,0.0,0.0,0.0,0.0,0.0,0.0,0.0,0.0,0.0,0.0,0.0,0.0,0.0,0.0,0.0,0.0,0.0,0.0,0.0,0.0,0.0,-1.4125,-1.4003,-1.4471,-1.4745,-1.4015,0.0,0.0,0.0,0.0,0.0,0.0,0.0,0.0,0.0,0.0,0.0,0.0,0.0,0.0,0.0,0.0,0.0,0.0,0.0,0.0,0.0,0.0,0.0,0.0,0.0,0.0,0.0,0.0,0.0,0.0,0.0,0.0,0.0,0.0,0.0,0.0,0.0,0.0,0.0,0.0,0.0,0.0,0.0,0.0,0.0,0.0,0.0,0.0,0.0,0.0,0.0,0.0,0.0,0.0,0.0,0.0,0.0,0.0,0.0,0.0,0.0,0.0,0.0,0.0,0.0,0.0,0.0,0.0,0.0,0.0,0.0,0.0,0.0,0.0,0.0,0.0,0.0,0.0,0.0,0.0,0.0,0.0,0.0,0.0,0.0,0.0,0.0,0.0,0.0,0.0,0.0,0.0,0.0,0.0,0.0,0.0,0.0,0.0,0.0,0.0,0.0,0.0,0.0,0.0,0.0,0.0,0.0,0.0,0.0,-1.262,-1.3397,-1.4691,-1.6394,-1.4863,-1.387,0.0,0.0,0.0,0.0,0.0,0.0,0.0,0.0,0.0,0.0,0.0,0.0,0.0,0.0,0.0,0.0,0.0,0.0,0.0,0.0,0.0,0.0,0.0,0.0,0.0,0.0,0.0,0.0,0.0,0.0,0.0,0.0,0.0,0.0,0.0,0.0,0.0,0.0,0.0,0.0,0.0,0.0,0.0,0.0,0.0,0.0,0.0,0.0,0.0,0.0,0.0,0.0,0.0,0.0,0.0,0.0,0.0,0.0,0.0,0.0,0.0,0.0,0.0,0.0,0.0,0.0,0.0,0.0,0.0,0.0,0.0,0.0,0.0,0.0,0.0,0.0,0.0,0.0,0.0,0.0,0.0,0.0,0.0,0.0,0.0,0.0,0.0,0.0,0.0,0.0,0.0,0.0,0.0,0.0,0.0,0.0,0.0,0.0,0.0,0.0,0.0,0.0,0.0,0.0,0.0,0.0,0.0,0.0,0.0,-1.2743,0.0,-1.5668,0.0,-1.4848,-1.3587,0.0,0.0,0.0,0.0,0.0,0.0,0.0,0.0,0.0,0.0,0.0,0.0,0.0,0.0,0.0,0.0,0.0,0.0,0.0,0.0,0.0,0.0,0.0,0.0,0.0,0.0,0.0,0.0,0.0,0.0,0.0,0.0,0.0,0.0,0.0,0.0,0.0,0.0,0.0,0.0,0.0,0.0,0.0,0.0,0.0,0.0,0.0,0.0,0.0,0.0,0.0,0.0,0.0,0.0,0.0,0.0,0.0,0.0,0.0,0.0,0.0,0.0,0.0,0.0,0.0,0.0,0.0,0.0,0.0,0.0,0.0,0.0,0.0,0.0,0.0,0.0,0.0,0.0,0.0,0.0,0.0,0.0,0.0,0.0,0.0,0.0,0.0,0.0,0.0,0.0,0.0,0.0,0.0,0.0,0.0,0.0,0.0,0.0,0.0,0.0,0.0,0.0,0.0,0.0,0.0,0.0,0.0,0.0,-1.3107,-1.5619,-1.6891,-1.681,-1.5402,-1.4758,-1.3224,0.0,0.0,0.0,0.0,0.0,0.0,0.0,0.0,0.0,0.0,0.0,0.0,0.0,0.0,0.0,0.0,0.0,0.0,0.0,0.0,0.0,0.0,0.0,0.0,0.0,0.0,0.0,0.0,0.0,0.0,0.0,0.0,0.0,0.0,0.0,0.0,0.0,0.0,0.0,0.0,0.0,0.0,0.0,0.0,0.0,0.0,0.0,0.0,0.0,0.0,0.0,0.0,0.0,0.0,0.0,0.0,0.0,0.0,0.0,0.0,0.0,0.0,0.0,0.0,0.0,0.0,0.0,0.0,0.0,0.0,0.0,0.0,0.0,0.0,0.0,0.0,0.0,0.0,0.0,0.0,0.0,0.0,0.0,0.0,0.0,0.0,0.0,0.0,0.0,0.0,0.0,0.0,0.0,0.0,0.0,0.0,0.0,0.0,0.0,0.0,0.0,0.0,0.0,0.0,0.0,0.0,0.0,0.0,0.0,-1.4438,-1.5709,-1.6408,-1.6344,-1.4628,-1.343,0.0,0.0,0.0,0.0,0.0,0.0,0.0,0.0,0.0,0.0,0.0,0.0,0.0,0.0,0.0,0.0,0.0,0.0,0.0,0.0,0.0,0.0,0.0,0.0,0.0,0.0,0.0,0.0,0.0,0.0,0.0,0.0,0.0,0.0,0.0,0.0,0.0,0.0,0.0,0.0,0.0,0.0,0.0,0.0,0.0,0.0,0.0,0.0,0.0,0.0,0.0,0.0,0.0,0.0,0.0,0.0,0.0,0.0,0.0,0.0,0.0,0.0,0.0,0.0,0.0,0.0,0.0,0.0,0.0,0.0,0.0,0.0,0.0,0.0,0.0,0.0,0.0,0.0,0.0,0.0,0.0,0.0,0.0,0.0,0.0,0.0,0.0,0.0,0.0,0.0,0.0,0.0,0.0,0.0,0.0,0.0,0.0,0.0,0.0,0.0,0.0,0.0,0.0,0.0,0.0,0.0,0.0,0.0,0.0,-1.5666,-1.6484,-1.6839,-1.6613,-1.4819,-1.3764,-1.3549,0.0,0.0,0.0,0.0,0.0,0.0,0.0,0.0,0.0,0.0,0.0,0.0,0.0,0.0,0.0,0.0,0.0,0.0,0.0,0.0,0.0,0.0,0.0,0.0,0.0,0.0,0.0,0.0,0.0,0.0,0.0,0.0,0.0,0.0,0.0,0.0,0.0,0.0,0.0,0.0,0.0,0.0,0.0,0.0,0.0,0.0,0.0,0.0,0.0,0.0,0.0,0.0,0.0,0.0,0.0,0.0,0.0,0.0,0.0,0.0,0.0,0.0,0.0,0.0,0.0,0.0,0.0,0.0,0.0,0.0,0.0,0.0,0.0,0.0,0.0,0.0,0.0,0.0,0.0,0.0,0.0,0.0,0.0,0.0,0.0,0.0,0.0,0.0,0.0,0.0,0.0,0.0,0.0,0.0,0.0,0.0,0.0,0.0,0.0,0.0,0.0,0.0,0.0,0.0,0.0,0.0,0.0,0.0,-1.8681,-1.8917,-1.8143,-1.6373,-1.5336,-1.4228,0.0,0.0,0.0,0.0,0.0,0.0,0.0,0.0,0.0,0.0,0.0,0.0,0.0,0.0,0.0,0.0,0.0,0.0,0.0,0.0,0.0,0.0,0.0,0.0,0.0,0.0,0.0,0.0,0.0,0.0,0.0,0.0,0.0,0.0,0.0,0.0,0.0,0.0,0.0,0.0,0.0,0.0,0.0,0.0,0.0,0.0,0.0,0.0,0.0,0.0,0.0,0.0,0.0,0.0,0.0,0.0,0.0,0.0,0.0,0.0,0.0,0.0,0.0,0.0,0.0,0.0,0.0,0.0,0.0,0.0,0.0,0.0,0.0,0.0,0.0,0.0,0.0,0.0,0.0,0.0,0.0,0.0,0.0,0.0,0.0,0.0,0.0,0.0,0.0,0.0,0.0,0.0,0.0,0.0,0.0,0.0,0.0,0.0,0.0,0.0,0.0,0.0,0.0,0.0,0.0,0.0,0.0,0.0,0.0,-1.8822,-1.9841,-1.9729,-1.8325,-1.6022,-1.4489,0.0,0.0,0.0,0.0,0.0,0.0,0.0,0.0,0.0,0.0,0.0,0.0,0.0,0.0,0.0,0.0,0.0,0.0,0.0,0.0,0.0,0.0,0.0,0.0,0.0,0.0,0.0,0.0,0.0,0.0,0.0,0.0,0.0,0.0,0.0,0.0,0.0,0.0,0.0,0.0,0.0,0.0,0.0,0.0,0.0,0.0,0.0,0.0,0.0,0.0,0.0,0.0,0.0,0.0,0.0,0.0,0.0,0.0,0.0,0.0,0.0,0.0,0.0,0.0,0.0,0.0,0.0,0.0,0.0,0.0,0.0,0.0,0.0,0.0,0.0,0.0,0.0,0.0,0.0,0.0,0.0,0.0,0.0,0.0,0.0,0.0,0.0,0.0,0.0,0.0,0.0,0.0,0.0,0.0,0.0,0.0,0.0,0.0,0.0,0.0,0.0,0.0,0.0,0.0,0.0,0.0,0.0,0.0,-1.8473,-2.002,-2.0337,-2.0168,-1.9531,-1.7199,-1.5461,0.0,0.0,0.0,0.0,0.0,0.0,0.0,0.0,0.0,0.0,0.0,0.0,0.0,0.0,0.0,0.0,0.0,0.0,0.0,0.0,0.0,0.0,0.0,0.0,0.0,0.0,0.0,0.0,0.0,0.0,0.0,0.0,0.0,0.0,0.0,0.0,0.0,0.0,0.0,0.0,0.0,0.0,0.0,0.0,0.0,0.0,0.0,0.0,0.0,0.0,0.0,0.0,0.0,0.0,0.0,0.0,0.0,0.0,0.0,0.0,0.0,0.0,0.0,0.0,0.0,0.0,0.0,0.0,0.0,0.0,0.0,0.0,0.0,0.0,0.0,0.0,0.0,0.0,0.0,0.0,0.0,0.0,0.0,0.0,0.0,0.0,0.0,0.0,0.0,0.0,0.0,0.0,0.0,0.0,0.0,0.0,0.0,0.0,0.0,0.0,0.0,0.0,0.0,0.0,0.0,0.0,0.0,0.0,-1.9158,-2.152,-2.0677,-2.0146,-2.0033,-1.8332,-1.6596,0.0,0.0,0.0,0.0,0.0,0.0,0.0,0.0,0.0,0.0,0.0,0.0,0.0,0.0,0.0,0.0,0.0,0.0,0.0,0.0,0.0,0.0,0.0,0.0,0.0,0.0,0.0,0.0,0.0,0.0,0.0,0.0,0.0,0.0,0.0,0.0,0.0,0.0,0.0,0.0,0.0,0.0,0.0,0.0,0.0,0.0,0.0,0.0,0.0,0.0,0.0,0.0,0.0,0.0,0.0,0.0,0.0,0.0,0.0,0.0,0.0,0.0,0.0,0.0,0.0,0.0,0.0,0.0,0.0,0.0,0.0,0.0,0.0,0.0,0.0,0.0,0.0,0.0,0.0,0.0,0.0,0.0,0.0,0.0,0.0,0.0,0.0,0.0,0.0,0.0,0.0,0.0,0.0,0.0,0.0,0.0,0.0,0.0,0.0,0.0,0.0,0.0,0.0,0.0,0.0,0.0,0.0,0.0,-2.033,-2.0903,-2.1693,-2.1428,-2.0034,-1.7869,-1.6139,0.0,0.0,0.0,0.0,0.0,0.0,0.0,0.0,0.0,0.0,0.0,0.0,0.0,0.0,0.0,0.0,0.0,0.0,0.0,0.0,0.0,0.0,0.0,0.0,0.0,0.0,0.0,0.0,0.0,0.0,0.0,0.0,0.0,0.0,0.0,0.0,0.0,0.0,0.0,0.0,0.0,0.0,0.0,0.0,0.0,0.0,0.0,0.0,-0.7169,0.0,0.0,0.0,0.0,0.0,0.0,0.0,0.0,0.0,0.0,0.0,0.0,0.0,0.0,0.0,0.0,0.0,0.0,0.0,0.0,0.0,0.0,0.0,0.0,0.0,0.0,0.0,0.0,0.0,0.0,0.0,0.0,0.0,0.0,0.0,0.0,0.0,0.0,0.0,0.0,0.0,0.0,0.0,0.0,0.0,0.0,0.0,0.0,0.0,0.0,0.0,0.0,0.0,0.0,0.0,0.0,0.0,0.0,0.0,-2.0848,-2.1183,-2.1871,-2.1518,-2.0019,-1.8236,-1.666,0.0,0.0,0.0,0.0,0.0,0.0,0.0,0.0,0.0,0.0,0.0,0.0,0.0,0.0,0.0,0.0,0.0,0.0,0.0,0.0,0.0,0.0,0.0,0.0,0.0,0.0,0.0,0.0,0.0,0.0,0.0,0.0,0.0,0.0,0.0,0.0,0.0,0.0,0.0,0.0,0.0,0.0,0.0,0.0,0.0,0.0,0.0,0.0,0.0,0.0,0.0,0.0,0.0,0.0,0.0,0.0,0.0,0.0,0.0,0.0,0.0,0.0,0.0,0.0,0.0,0.0,0.0,0.0,0.0,0.0,0.0,0.0,0.0,0.0,0.0,0.0,0.0,0.0,0.0,0.0,0.0,0.0,0.0,0.0,0.0,0.0,0.0,0.0,0.0,0.0,0.0,0.0,0.0,0.0,0.0,0.0,0.0,0.0,0.0,0.0,0.0,0.0,0.0,0.0,0.0,0.0,0.0,-1.9421,-2.0925,-2.1394,-2.1592,-2.1145,-1.9998,-1.8829,-1.7451,-1.5869,0.0,0.0,0.0,0.0,0.0,0.0,0.0,0.0,0.0,0.0,0.0,0.0,0.0,0.0,0.0,0.0,0.0,0.0,0.0,0.0,0.0,0.0,0.0,0.0,0.0,0.0,0.0,0.0,0.0,0.0,0.0,0.0,0.0,0.0,0.0,0.0,0.0,0.0,-0.7578,-0.9039,0.0,0.0,0.0,0.0,0.0,0.0,0.0,0.0,-0.8014,0.0,0.0,0.0,0.0,0.0,0.0,0.0,0.0,0.0,0.0,0.0,0.0,0.0,0.0,0.0,0.0,0.0,0.0,0.0,0.0,0.0,0.0,0.0,0.0,0.0,0.0,0.0,0.0,0.0,0.0,0.0,0.0,0.0,0.0,0.0,0.0,0.0,0.0,0.0,0.0,0.0,0.0,0.0,0.0,0.0,0.0,0.0,0.0,0.0,0.0,0.0,0.0,0.0,0.0,0.0,0.0,-1.7852,-1.9738,-2.0526,-2.0134,-2.1148,-2.1081,-1.9864,-1.8767,-1.7626,-1.6387,0.0,0.0,0.0,0.0,0.0,0.0,0.0,0.0,0.0,0.0,0.0,0.0,0.0,0.0,0.0,0.0,0.0,0.0,0.0,0.0,0.0,0.0,0.0,0.0,0.0,0.0,0.0,0.0,0.0,0.0,0.0,0.0,0.0,0.0,0.0,0.0,0.0,0.0,0.0,-0.983,-1.0393,0.0,0.0,0.0,0.0,0.0,0.0,0.0,0.0,-0.8449,0.0,0.0,0.0,0.0,0.0,0.0,0.0,0.0,0.0,0.0,0.0,0.0,0.0,0.0,0.0,0.0,0.0,0.0,0.0,0.0,0.0,0.0,0.0,0.0,0.0,0.0,0.0,0.0,0.0,0.0,0.0,0.0,0.0,0.0,0.0,0.0,0.0,0.0,0.0,0.0,0.0,0.0,0.0,0.0,0.0,0.0,0.0,0.0,0.0,0.0,0.0,0.0,0.0,0.0,0.0,-1.8077,-1.9822,-2.0727,-2.0786,-2.1062,-2.0769,-1.9799,-1.848,-1.7388,0.0,0.0,0.0,0.0,0.0,0.0,0.0,0.0,0.0,0.0,0.0,0.0,0.0,0.0,0.0,0.0,0.0,0.0,0.0,0.0,0.0,0.0,0.0,0.0,0.0,0.0,0.0,0.0,0.0,0.0,0.0,0.0,0.0,0.0,0.0,0.0,0.0,0.0,0.0,0.0,-1.0206,-1.062,-1.0356,0.0,0.0,0.0,0.0,0.0,0.0,-0.9076,-0.89,0.0,0.0,0.0,0.0,0.0,0.0,0.0,0.0,0.0,0.0,0.0,0.0,0.0,0.0,0.0,0.0,0.0,0.0,0.0,0.0,0.0,0.0,0.0,0.0,0.0,0.0,0.0,0.0,0.0,0.0,0.0,0.0,0.0,0.0,0.0,0.0,0.0,0.0,0.0,0.0,0.0,0.0,0.0,0.0,0.0,0.0,0.0,0.0,0.0,0.0,0.0,0.0,0.0,0.0,0.0,-1.7753,-1.9464,-2.0658,-2.1271,-2.0979,-2.042,-1.9648,-1.8279,-1.7174,0.0,0.0,0.0,0.0,0.0,0.0,0.0,0.0,0.0,0.0,0.0,0.0,0.0,0.0,0.0,0.0,0.0,0.0,0.0,0.0,0.0,0.0,0.0,0.0,0.0,0.0,0.0,0.0,0.0,0.0,0.0,0.0,0.0,0.0,0.0,0.0,0.0,0.0,0.0,0.0,0.0,-1.1069,-1.0744,-1.0532,0.0,0.0,0.0,0.0,-1.0182,-0.9868,0.0,0.0,0.0,0.0,0.0,0.0,0.0,0.0,0.0,0.0,0.0,0.0,0.0,0.0,0.0,0.0,0.0,0.0,0.0,0.0,0.0,0.0,0.0,0.0,0.0,0.0,0.0,0.0,0.0,0.0,0.0,0.0,0.0,0.0,0.0,0.0,0.0,0.0,0.0,0.0,0.0,0.0,0.0,0.0,0.0,0.0,0.0,0.0,0.0,0.0,0.0,0.0,0.0,0.0,0.0,0.0,-1.6666,-1.8272,-1.9418,-2.0016,-2.0522,-2.0251,-1.912,-1.8455,-1.7375,0.0,0.0,0.0,0.0,0.0,0.0,0.0,0.0,0.0,0.0,0.0,0.0,0.0,0.0,0.0,0.0,0.0,0.0,0.0,0.0,0.0,0.0,0.0,0.0,0.0,0.0,0.0,0.0,0.0,0.0,0.0,0.0,0.0,0.0,0.0,0.0,0.0,0.0,0.0,0.0,0.0,-1.2388,-1.0921,-1.151,-1.2087,0.0,0.0,-1.1339,-1.1387,-1.1351,0.0,0.0,0.0,0.0,0.0,0.0,0.0,0.0,0.0,0.0,0.0,0.0,0.0,0.0,0.0,0.0,0.0,0.0,0.0,0.0,0.0,0.0,0.0,0.0,0.0,0.0,0.0,0.0,0.0,0.0,0.0,0.0,0.0,0.0,0.0,0.0,0.0,0.0,0.0,0.0,0.0,0.0,0.0,0.0,0.0,0.0,0.0,0.0,0.0,0.0,0.0,0.0,0.0,0.0,0.0,-1.487,-1.7024,-1.8309,-1.9416,-2.0306,-2.0283,-1.9825,-1.9008,-1.8191,-1.6936,0.0,0.0,0.0,0.0,0.0,0.0,0.0,0.0,0.0,0.0,0.0,0.0,0.0,0.0,0.0,0.0,0.0,0.0,0.0,0.0,0.0,0.0,0.0,0.0,0.0,0.0,0.0,0.0,0.0,0.0,0.0,0.0,0.0,0.0,0.0,0.0,0.0,0.0,0.0,0.0,0.0,0.0,-1.1673,-1.2087,0.0,0.0,0.0,-1.2137,-1.2479,0.0,0.0,0.0,0.0,0.0,0.0,0.0,0.0,0.0,0.0,0.0,0.0,0.0,0.0,0.0,0.0,0.0,0.0,0.0,0.0,0.0,0.0,0.0,0.0,0.0,0.0,0.0,0.0,0.0,0.0,0.0,0.0,0.0,0.0,0.0,0.0,0.0,0.0,0.0,0.0,0.0,0.0,0.0,0.0,0.0,0.0,0.0,0.0,0.0,0.0,0.0,0.0,0.0,0.0,0.0,0.0,0.0,-1.7229,-1.8278,-1.9365,-2.0483,-2.0042,-1.9484,-1.8807,-1.789,0.0,0.0,0.0,0.0,0.0,0.0,0.0,0.0,0.0,0.0,0.0,0.0,0.0,0.0,0.0,0.0,0.0,0.0,0.0,0.0,0.0,0.0,0.0,0.0,0.0,0.0,0.0,-0.659,0.0,0.0,0.0,0.0,0.0,0.0,0.0,0.0,0.0,0.0,0.0,0.0,0.0,0.0,-1.147,-1.2463,-1.2714,-1.2818,0.0,0.0,-1.2906,-1.3165,-1.2159,-1.1334,0.0,0.0,0.0,0.0,0.0,0.0,0.0,0.0,0.0,0.0,0.0,0.0,0.0,0.0,0.0,0.0,0.0,0.0,0.0,0.0,0.0,0.0,0.0,0.0,0.0,0.0,0.0,0.0,0.0,0.0,0.0,0.0,0.0,0.0,0.0,0.0,0.0,0.0,0.0,0.0,0.0,0.0,0.0,0.0,0.0,0.0,0.0,0.0,0.0,0.0,0.0,0.0,0.0,0.0,-1.4349,-1.6502,-1.7672,-1.8767,-1.9825,-1.9824,-1.9309,-1.8292,-1.7689,-1.6367,0.0,0.0,0.0,0.0,0.0,0.0,0.0,0.0,0.0,0.0,0.0,0.0,0.0,0.0,0.0,0.0,0.0,0.0,0.0,0.0,0.0,0.0,0.0,0.0,0.0,0.0,0.0,0.0,0.0,0.0,0.0,0.0,0.0,0.0,0.0,0.0,0.0,0.0,0.0,0.0,0.0,-1.2488,-1.306,-1.3639,-1.3977,0.0,-1.399,-1.3808,-1.329,-1.311,-1.2522,-1.1021,0.0,0.0,0.0,0.0,0.0,0.0,0.0,0.0,0.0,0.0,0.0,0.0,0.0,0.0,0.0,0.0,0.0,0.0,0.0,0.0,0.0,0.0,0.0,0.0,0.0,0.0,0.0,0.0,0.0,0.0,0.0,0.0,0.0,0.0,0.0,0.0,0.0,0.0,0.0,0.0,0.0,0.0,0.0,0.0,0.0,0.0,0.0,0.0,0.0,0.0,0.0,0.0,0.0,-1.4143,-1.5994,-1.744,-1.8568,-1.9259,-1.9296,-1.8933,-1.8216,-1.7325,-1.599,0.0,0.0,0.0,0.0,0.0,0.0,0.0,0.0,0.0,0.0,0.0,0.0,0.0,0.0,0.0,0.0,0.0,0.0,0.0,0.0,0.0,0.0,0.0,0.0,0.0,0.0,0.0,0.0,-0.7425,-0.751,-0.7128,0.0,0.0,0.0,0.0,0.0,0.0,0.0,0.0,0.0,0.0,-1.2743,-1.3609,-1.3959,0.0,0.0,-1.4299,-1.4123,-1.4224,-1.3396,-1.2613,-1.2284,-1.1428,0.0,0.0,0.0,0.0,0.0,0.0,0.0,0.0,0.0,0.0,0.0,0.0,0.0,0.0,0.0,0.0,0.0,0.0,0.0,0.0,0.0,0.0,0.0,0.0,0.0,0.0,0.0,0.0,0.0,0.0,0.0,0.0,0.0,0.0,0.0,0.0,0.0,0.0,0.0,0.0,0.0,0.0,0.0,0.0,0.0,0.0,0.0,0.0,0.0,0.0,0.0,0.0,-1.403,-1.568,-1.7187,-1.8229,-1.8744,-1.8757,-1.8494,-1.7953,-1.6989,-1.5743,0.0,0.0,0.0,0.0,0.0,0.0,0.0,0.0,0.0,0.0,0.0,0.0,0.0,0.0,0.0,0.0,0.0,0.0,0.0,0.0,0.0,0.0,0.0,0.0,0.0,0.0,0.0,0.0,-0.7889,-0.7801,-0.7228,0.0,0.0,0.0,0.0,0.0,0.0,0.0,0.0,0.0,0.0,-1.2868,-1.416,-1.4355,-1.4475,-1.4833,-1.4727,-1.4651,-1.4878,-1.3928,-1.3182,-1.3198,0.0,0.0,0.0,0.0,0.0,0.0,0.0,0.0,0.0,0.0,0.0,0.0,0.0,0.0,0.0,0.0,0.0,0.0,0.0,0.0,0.0,0.0,0.0,0.0,0.0,0.0,0.0,-1.2801,0.0,0.0,-1.1876,0.0,0.0,0.0,0.0,0.0,0.0,0.0,0.0,0.0,0.0,0.0,0.0,0.0,0.0,0.0,0.0,0.0,0.0,0.0,0.0,0.0,0.0,-1.403,-1.5668,-1.6857,-1.7677,-1.8191,-1.8216,-1.7965,-1.7448,-1.6823,-1.5731,-1.4123,0.0,0.0,0.0,0.0,0.0,0.0,0.0,0.0,0.0,0.0,0.0,0.0,0.0,0.0,0.0,0.0,0.0,0.0,0.0,0.0,0.0,0.0,0.0,0.0,0.0,0.0,-0.8225,-0.7789,-0.7241,0.0,0.0,0.0,0.0,0.0,0.0,0.0,0.0,0.0,0.0,-1.271,-1.3002,-1.4645,-1.4871,-1.4859,-1.4909,-1.5324,-1.5454,-1.4984,-1.4853,-1.4481,0.0,0.0,0.0,0.0,0.0,0.0,0.0,0.0,0.0,0.0,0.0,0.0,0.0,0.0,0.0,0.0,0.0,0.0,0.0,0.0,0.0,0.0,0.0,0.0,0.0,0.0,0.0,-1.5381,-1.4809,0.0,0.0,0.0,0.0,0.0,0.0,0.0,0.0,0.0,0.0,0.0,-1.8717,-1.9148,0.0,0.0,0.0,0.0,0.0,0.0,0.0,0.0,0.0,0.0,0.0,0.0,-1.403,-1.5655,-1.681,-1.7498,-1.7652,-1.7674,-1.7599,-1.741,-1.6459,-1.5203,-1.3546,0.0,0.0,0.0,0.0,0.0,0.0,0.0,0.0,0.0,0.0,0.0,0.0,0.0,0.0,0.0,0.0,0.0,0.0,0.0,0.0,0.0,0.0,0.0,0.0,0.0,-0.8612,0.0,0.0,0.0,0.0,0.0,0.0,0.0,0.0,0.0,0.0,0.0,-1.1961,-1.3048,-1.3697,-1.4393,-1.5311,-1.5142,-1.5022,0.0,0.0,0.0,0.0,0.0,0.0,0.0,0.0,0.0,0.0,0.0,0.0,0.0,0.0,-1.2291,-1.0109,-0.8493,-0.7571,-0.7762,0.0,0.0,0.0,0.0,0.0,0.0,0.0,0.0,0.0,0.0,0.0,0.0,0.0,0.0,-1.776,0.0,-1.7147,0.0,0.0,0.0,0.0,0.0,0.0,0.0,0.0,-1.9899,-2.0528,-2.0756,-2.0956,-2.0416,0.0,-1.8333,-1.6884,0.0,0.0,0.0,0.0,0.0,0.0,0.0,0.0,-1.4237,-1.5655,-1.6609,-1.7087,-1.7087,-1.7087,-1.7087,-1.7061,-1.617,-1.5035,-1.3559,-1.2262,-1.1207,0.0,0.0,0.0,0.0,0.0,0.0,0.0,0.0,0.0,0.0,0.0,0.0,0.0,0.0,0.0,0.0,0.0,0.0,0.0,0.0,0.0,0.0,0.0,-0.9239,0.0,0.0,0.0,0.0,0.0,0.0,0.0,0.0,0.0,-1.0508,-1.1761,-1.2889,-1.3446,-1.4318,-1.5104,-1.5618,0.0,0.0,0.0,0.0,0.0,0.0,0.0,-1.5097,-1.5638,-1.4846,-1.4128,-1.4099,-1.4874,-1.5154,-1.4036,0.0,0.0,-1.0868,-0.9162,-0.8251,-0.8521,-0.8401,-0.8269,-0.8346,-0.8634,-0.8798,0.0,0.0,0.0,0.0,0.0,0.0,0.0,0.0,-2.0602,-2.0498,0.0,-1.9798,0.0,0.0,0.0,0.0,-1.7906,-1.9166,0.0,0.0,-2.2635,-2.3268,-2.2667,-2.2048,-2.1707,-2.1591,-2.0357,-1.8903,-1.7173,-1.4441,0.0,0.0,0.0,0.0,0.0,0.0,-1.4689,-1.5743,-1.6296,-1.6538,-1.6538,-1.6513,-1.6513,-1.65,-1.5994,-1.5211,-1.4186,-1.3491,-1.2212,-1.0144,-0.9931,0.0,0.0,0.0,0.0,0.0,0.0,0.0,0.0,0.0,0.0,0.0,0.0,0.0,0.0,0.0,0.0,0.0,0.0,0.0,0.0,-0.9278,0.0,0.0,0.0,0.0,0.0,0.0,0.0,0.0,0.0,0.0,-1.1816,-1.2626,-1.3478,-1.4072,0.0,0.0,0.0,0.0,-1.5906,-1.6412,-1.6488,-1.6488,-1.65,-1.6463,-1.6283,-1.5793,0.0,0.0,-1.4362,-1.5434,-1.6061,-1.5071,-1.4778,-1.4354,-1.2776,-1.1236,-1.0351,-1.0431,-1.0362,-1.0218,-0.9853,-1.0257,-1.069,-2.5274,0.0,0.0,0.0,0.0,-2.3121,-2.3648,-2.3924,-2.4118,-2.3812,-2.3161,-2.2233,0.0,0.0,0.0,0.0,0.0,0.0,-2.215,-2.2714,-2.3273,-2.3406,-2.3192,-2.2996,-2.2259,-2.1053,-2.0686,-1.9419,-1.7412,-1.6511,-1.4961,-1.2776,0.0,0.0,0.0,0.0,-1.5801,-1.6857,-1.7061,-1.7137,-1.7137,-1.6701,-1.6513,-1.65,-1.5982,-1.5542,-1.5236,-1.393,-1.2893,-1.2275,-1.0745,0.0,0.0,0.0,0.0,0.0,0.0,0.0,0.0,0.0,0.0,0.0,0.0,0.0,0.0,0.0,0.0,0.0,0.0,0.0,-0.9366,-0.973,-0.993,0.0,0.0,0.0,0.0,0.0,0.0,0.0,0.0,0.0,-1.3866,-1.4217,-1.462,0.0,0.0,-1.6107,-1.6237,-1.6283,-1.6312,-1.6475,-1.6513,0.0,-1.6513,-1.6195,-1.6019,-1.6224,-1.6283,-1.617,-1.5856,-1.5844,-1.5516,-1.4521,-1.3949,-1.3248,-1.2173,-1.1644,-1.1486,-1.1708,-1.1254,-1.0845,-1.099,-1.1013,-1.0904,-2.9205,-2.7579,-2.5899,-2.5027,-2.4885,-2.5795,-2.6273,-2.6408,-2.6677,-2.6572,-2.6129,-2.5375,-2.432,-2.2981,-2.1784,0.0,0.0,0.0,-2.3343,-2.3884,-2.3872,-2.3842,-2.3788,-2.3512,-2.2857,-2.1825,-2.1316,-2.013,-1.8342,-1.8342,-1.7174,-1.492,0.0,0.0,-1.5399,-1.6053,-1.6798,-1.7664,-1.7714,-1.7624,-1.7388,-1.6823,-1.6513,-1.6509,-1.6195,-1.5919,-1.568,-1.4525,-1.3667,-1.3198,-1.1736,-1.0596,0.0,0.0,0.0,0.0,0.0,0.0,0.0,0.0,0.0,0.0,0.0,-0.7503,-0.6975,0.0,0.0,0.0,-0.8465,-0.9466,-1.0758,-1.0897,0.0,0.0,0.0,0.0,0.0,0.0,0.0,-1.3952,-1.4325,-1.4757,-1.5442,-1.555,-1.5567,-1.568,-1.617,-1.6513,-1.6513,0.0,-1.6513,-1.6513,-1.6513,-1.6513,-1.65,-1.6245,-1.6145,-1.6459,-1.6513,-1.6402,-1.616,-1.582,-1.5304,-1.4551,-1.4183,-1.3828,-1.2992,-1.2902,-1.2689,-1.2199,-1.1613,-1.1302,-1.1557,-1.1369,-1.1172,-3.2602,-3.2332,-2.9337,-2.761,-2.7062,-2.8296,-2.8442,-2.7884,-2.8472,-2.8742,-2.8742,-2.8637,-2.7874,-2.6557,-2.4807,0.0,-2.4789,-2.4172,-2.414,-2.4608,-2.4508,-2.4435,-2.4327,-2.3697,-2.3351,-2.3285,-2.2107,-2.0991,-1.9962,-1.9886,-1.912,-1.77,-1.7039,-1.6986,-1.7385,-1.7486,-1.7765,-1.8267,-1.8267,-1.7978,-1.741,-1.681,-1.6513,-1.6513,-1.645,-1.622,-1.5726,-1.5135,-1.4356,-1.3311,-1.2676,-1.1638,-1.0131,0.0,0.0,0.0,0.0,0.0,0.0,0.0,0.0,0.0,0.0,0.0,0.0,0.0,0.0,0.0,-0.9491,0.0,-1.2124,-1.23,0.0,0.0,0.0,-1.2112,-1.1245,-1.2918,-1.4186,-1.4274,0.0,0.0,-1.6488,-1.6525,-1.6375,-1.5894,-1.622,-1.6513,-1.6513,-1.6513,-1.6513,-1.6588,-1.6588,-1.6588,-1.6726,-1.6638,-1.655,-1.6522,-1.6513,-1.6303,-1.5842,-1.562,-1.5353,-1.4778,-1.5096,-1.5185,-1.4629,-1.4312,-1.3965,-1.2073,-1.1756,-1.1734,-1.1763,-1.1692,-1.1655,-3.326,-3.3185,-3.2407,-3.1124,-2.9671,-3.0453,-3.0419,-2.9834,-2.9983,-3.0058,-2.9998,-2.9026,-2.8128,-2.736,-2.7395,-2.7125,-2.6657,-2.7002,-2.6582,-2.5585,-2.5141,-2.4652,-2.4056,-2.3454,-2.2934,-2.2569,-2.2257,-2.1769,-2.1119,-2.0691,-2.0289,-1.9899,-1.9296,-1.8468,-1.7473,-1.8216,-1.8669,-1.8807,-1.8807,-1.8355,-1.7423,-1.681,-1.6513,-1.6522,-1.612,-1.5831,-1.568,-1.4783,-1.416,-1.3871,-1.2558,-1.1615,-1.1199,-0.9855,0.0,0.0,0.0,0.0,0.0,0.0,0.0,0.0,0.0,-0.9567,-0.8187,0.0,-0.988,0.0,-1.1425,-1.161,-1.1144,-1.1512,0.0,0.0,-1.322,-1.3579,-1.4945,-1.4864,-1.5022,-1.5844,-1.5906,-1.6045,-1.645,-1.6911,-1.7137,-1.7021,-1.671,-1.6513,-1.6513,-1.6513,-1.6685,-1.7074,-1.7174,-1.7325,-1.7652,-1.7438,-1.7024,-1.6575,-1.6513,-1.6445,-1.6303,-1.592,-1.5421,-1.4812,-1.4422,-1.4027,-1.3491,-1.332,-1.3226,-1.2712,-1.2592,-1.2592,-1.2582,-1.2305,-1.2047,-3.4382,-3.4382,-3.4382,-3.3395,-3.1869,-3.2258,-3.1989,-3.1405,-3.1405,-3.1405,-3.1315,-3.0028,-2.9235,-2.8918,-2.9022,-2.8552,-2.778,-2.7797,-2.7341,-2.6445,-2.5445,-2.4803,-2.4527,-2.3837,-2.3195,-2.2656,-2.2644,-2.2368,-2.1857,-2.1543,-2.1295,-2.1056,-2.049,-1.9761,-1.8919,-1.9196,-1.9346,-1.9346,-1.9121,-1.8606,-1.7765,-1.72,-1.6785,-1.65,-1.6199,-1.6057,-1.607,-1.5261,-1.4702,-1.445,-1.3342,-1.2583,-1.2316,-1.1199,-1.0446,0.0,0.0,0.0,0.0,0.0,0.0,0.0,0.0,0.0,0.0,0.0,-1.0646,-1.1512,-1.2287,-1.2701,-1.258,-1.3082,-1.3803,-1.4708,-1.4513,-1.4707,-1.5693,-1.5467,-1.55,-1.607,-1.6321,-1.6581,-1.6873,-1.7388,-1.7752,-1.7762,-1.7476,-1.7252,-1.724,-1.7262,-1.7388,-1.7702,-1.7752,-1.784,-1.8179,-1.7953,-1.7551,-1.7036,-1.6898,-1.6723,-1.62,-1.583,-1.541,-1.4835,-1.4629,-1.4411,-1.3836,-1.3944,-1.4037,-1.3718,-1.3467,-1.3214,-1.2968,-1.2686,-1.2496,-3.5325,-3.525,-3.525,-3.4517,-3.338,-3.3544,-3.32,-3.2497,-3.2572,-3.2632,-3.2542,-3.139,-3.0851,-3.0731,-3.0193,-2.945,-2.8541,-2.7873,-2.7458,-2.7188,-2.5771,-2.5128,-2.5214,-2.4389,-2.374,-2.3233,-2.3145,-2.2857,-2.2422,-2.2359,-2.2071,-2.1581,-2.0993,-2.0691,-2.0666,-2.0113,-1.9798,-1.9798,-1.9271,-1.8732,-1.8216,-1.7664,-1.7112,-1.6525,-1.6437,-1.6387,-1.6409,-1.5881,-1.5387,-1.4928,-1.4393,-1.3815,-1.324,-1.2685,-1.2325,0.0,-1.1738,0.0,0.0,0.0,0.0,0.0,0.0,0.0,0.0,-1.1084,-1.1399,-1.1776,-1.2852,-1.3867,-1.4708,-1.5273,-1.5638,-1.568,-1.5693,-1.5517,-1.5185,-1.56,-1.5906,-1.5927,-1.6857,-1.7488,-1.7536,-1.7965,-1.8317,-1.8304,-1.8392,-1.8405,-1.8392,-1.8242,-1.8154,-1.8292,-1.8367,-1.8468,-1.838,-1.8306,-1.8116,-1.7626,-1.741,-1.703,-1.6104,-1.5824,-1.5511,-1.4926,-1.505,-1.5163,-1.4606,-1.4824,-1.5005,-1.4514,-1.405,-1.3613,-1.3176,-1.2934,-1.2915,-3.4352,-3.3873,-3.3873,-3.341,-3.2781,-3.3874,-3.3604,-3.2557,-3.308,-3.3305,-3.329,-3.3036,-3.2647,-3.2153,-3.2018,-3.122,-2.9909,-2.9789,-2.8982,-2.7588,-2.6835,-2.6142,-2.5483,-2.4501,-2.3941,-2.3803,-2.3333,-2.3058,-2.2945,-2.2493,-2.223,-2.2121,-2.1194,-2.0691,-2.0666,0.0,0.0,0.0,-1.9271,-1.8732,-1.8216,-1.7664,-1.7112,-1.6513,-1.6082,0.0,-1.5831,-1.5336,-1.4997,-1.4903,-1.4387,0.0,0.0,0.0,0.0,0.0,0.0,0.0,0.0,0.0,0.0,0.0,-1.2793,-1.2246,-1.155,-1.3061,-1.376,-1.301,-1.4306,-1.4959,-1.4324,-1.4739,-1.5223,-1.563,-1.5693,-1.5831,-1.6158,-1.6722,-1.7084,-1.7096,-1.7652,-1.8053,-1.8091,-1.8506,-1.8845,-1.887,-1.9208,-1.9484,-1.9472,-1.8756,-1.8381,-1.877,-1.9158,-1.9296,-1.8907,-1.8845,-1.8669,-1.8166,-1.7674,-1.7353,-1.703,-1.6588,-1.5944,-1.5005,-1.4789,-1.456,-1.3549,-1.3334,-1.3742,-1.3909,-1.3886,-1.3779,-1.3647,-1.3238,-1.2915,-3.4098,-3.3499,-3.3499,-3.311,0.0,-3.3918,-3.3918,-3.3036,-3.3694,-3.3784,-3.3514,-3.3499,-3.332,-3.3006,-3.3006,-3.2165,-3.0731,-3.0731,-2.9879,-2.8349,-2.7628,-2.6915,-2.6219,-2.5273,-2.4519,-2.4004,-2.3672,-2.3384,-2.3108,-2.2832,-2.2681,-2.2669,-2.1882,-2.1343,-2.1081,-2.0225,-1.9798,-1.9798,-1.9547,-1.9133,-1.8618,-1.8066,-1.7513,-1.6961,-1.6409,0.0,0.0,0.0,0.0,0.0,0.0,0.0,0.0,0.0,0.0,-1.3566,-1.3566,-1.3328,-1.2831,-1.2784,-1.3162,-1.4027,-1.4067,-1.381,-1.3275,-1.4035,-1.4368,-1.4111,-1.5072,-1.5487,-1.4972,-1.5374,-1.5906,-1.6468,-1.6543,-1.6748,-1.7262,-1.7614,-1.7777,-1.784,-1.8255,-1.8594,-1.8581,-1.9045,-1.9359,-1.9422,-1.9623,-1.9798,-1.9773,-1.9346,-1.912,-1.9371,-1.961,-1.971,-1.9472,-1.9384,-1.9208,-1.8682,-1.8356,-1.799,-1.7486,-1.7172,-1.664,-1.5806,-1.5577,-1.5354,-1.4858,-1.4445,-1.4329,-1.4526,-1.4202,-1.3956,-1.4143,-1.4001,-1.3766,-3.4054,-3.3335,-3.332,-3.2946,-3.2437,-3.3739,-3.4174,-3.3888,0.0,0.0,0.0,-3.3858,-3.3784,-3.3679,-3.3679,-3.2923,-3.1629,-3.1467,-3.0702,-2.9344,-2.8384,-2.7603,-2.6991,-2.6054,-2.5084,-2.4167,-2.4042,-2.3703,-2.312,-2.3095,-2.3095,-2.3058,-2.2556,-2.1983,-2.133,-2.0426,-1.9899,-1.9811,-1.9798,-1.9522,-1.9008,-1.8556,-1.8041,-1.741,-1.6911,-1.6622,-1.65,-1.6082,-1.563,-1.5198,-1.4765,-1.4689,-1.5009,-1.5035,-1.5399,-1.6145,-1.6199,-1.5819,-1.4972,-1.4884,-1.4765,-1.44,-1.489,-1.5148,-1.5047,-1.4639,-1.4595,-1.5135,-1.558,-1.5881,-1.5982,-1.6362,-1.6898,-1.7486,-1.7549,-1.7725,-1.8129,-1.8281,-1.8355,-1.8381,-1.8807,-1.9146,-1.9146,-1.9484,-1.9798,-1.9798,-1.9786,-1.9798,-1.9798,-1.9748,-1.971,-1.9748,-1.9786,-1.9798,-1.9786,-1.9773,-1.9623,-1.9208,-1.9045,-1.8669,-1.794,-1.7513,-1.7165,-1.6488,-1.6424,-1.6207,-1.6117,-1.5577,-1.5499,-1.5588,-1.4846,-1.4306,-1.4858,-1.5017,-1.4926,-3.3769,-3.2662,-3.2647,-3.2243,-3.175,-3.308,-3.4247,-3.5205,-3.531,-3.531,-3.522,-3.522,-3.4891,-3.4369,-3.4369,-3.3932,-3.3152,-3.2571,-3.1822,-3.0833,-2.9477,-2.8355,-2.7512,-2.6233,-2.5285,-2.4675,-2.423,-2.3703,-2.3158,-2.3108,-2.3095,-2.3032,-2.2556,-2.1807,-2.088,-2.0654,-2.0327,-1.9811,-1.9798,-1.9547,-1.902,-1.892,-1.8393,-1.7461,-1.7335,-1.7024,-1.6513,-1.6412,-1.6337,-1.6274,-1.6187,-1.5994,-1.5625,-1.5567,-1.5442,-1.516,-1.5123,-1.5047,-1.4921,-1.4884,-1.5072,-1.5442,-1.5982,-1.6095,-1.563,-1.5525,-1.5693,-1.622,-1.635,-1.6588,-1.7074,-1.7234,-1.7511,-1.8003,-1.8091,-1.8129,-1.8267,-1.8643,-1.8882,-1.8895,-1.9346,-1.9673,-1.9648,-1.9748,-1.9798,-1.9798,-1.9798,-1.9798,-1.9798,-1.9798,-1.9798,-1.9798,-1.9798,-1.9798,-1.9798,-1.9798,-1.9748,-1.9697,-1.9296,-1.8983,-1.8694,-1.8028,-1.7314,-1.6553,-1.6213,-1.5703,-1.522,-1.4903,-1.5096,-1.5477,-1.5286,-1.5365,-1.5898,-1.6098,-1.5854,-3.3918,-3.308,-3.3051,-3.2886,-3.2677,-3.3619,-3.4592,-3.5474,-3.5489,-3.5489,-3.5489,-3.5489,-3.534,-3.5055,-3.504,-3.4666,-3.3993,-3.335,-3.2372,-3.1149,-3.0159,-2.9002,-2.7729,-2.7044,-2.6215,-2.5267,-2.4695,-2.4167,-2.3597,-2.3258,-2.3095,-2.307,-2.2556,-2.1907,-2.1182,-2.0842,-2.0402,-1.9811,-1.9798,-1.966,-1.9421,-1.9146,-1.8757,-1.8279,-1.7714,-1.7262,-1.6986,-1.6396,-1.607,-1.607,-1.5781,-1.5643,-1.5693,-1.5693,-1.5706,-1.5756,-1.5768,-1.5768,-1.5756,-1.5768,-1.6007,-1.6572,-1.6857,-1.7011,-1.7061,-1.6785,-1.6744,-1.6974,-1.7237,-1.7516,-1.779,-1.785,-1.8053,-1.8569,-1.8632,-1.8744,-1.9032,-1.9271,-1.9421,-1.9434,-1.9648,-1.9798,-1.9798,-1.9798,-1.9798,-1.9798,-1.9798,-1.9798,-1.9798,-1.9798,-1.9798,-1.9798,-1.9798,-1.9798,-1.9798,-1.9798,-1.9798,-1.9798,-1.961,-1.9309,-1.9096,-1.8518,-1.7948,-1.7143,-1.6696,-1.6361,-1.5761,-1.5387,-1.5387,-1.542,-1.5298,-1.5387,-1.5854,-1.6259,-1.6259,-3.4322,-3.3724,-3.3709,-3.3709,-3.3754,-3.4294,-3.4893,-3.5474,-3.5489,-3.5415,-3.5295,-3.5429,-3.5489,-3.5489,-3.5489,-3.522,-3.4651,-3.3858,-3.2865,-3.1691,-3.0736,-2.9473,-2.8084,-2.7789,-2.6985,-2.5686,-2.5071,-2.4544,-2.3991,-2.3384,-2.3095,-2.3058,-2.2669,-2.2159,-2.1481,-2.1094,-2.0528,-1.9861,-1.9798,-1.9798,-1.9786,-1.9397,-1.9121,-1.8945,-1.8204,-1.7689,-1.7561,-1.6609,-1.607,-1.6065,-1.5563,-1.5462,-1.5844,-1.5881,-1.607,-1.645,-1.6513,-1.6513,-1.6513,-1.6638,-1.6911,-1.7338,-1.7524,-1.7775,-1.8116,-1.794,-1.7712,-1.7662,-1.7928,-1.8216,-1.8331,-1.8368,-1.8581,-1.9083,-1.9183,-1.9309,-1.971,-1.9798,-1.9798,-1.9798,-1.9798,-1.9798,-1.9798,-1.9798,-1.9798,-1.9798,-1.9798,-1.9798,-1.9798,-1.9798,-1.9798,-1.9798,-1.9798,-1.9798,-1.9798,-1.9798,-1.9798,-1.9798,-1.9786,-1.961,-1.9284,-1.9121,-1.8644,-1.7768,-1.7451,-1.7057,-1.6595,-1.6151,-1.5864,-1.582,-1.5577,-1.5377,-1.582,-1.6216,-1.6479,-3.5011,-3.4474,-3.4414,-3.4429,-3.4429,-3.4503,-3.4891,-3.5459,-3.5489,-3.5145,-3.4713,-3.522,-3.5489,-3.5489,-3.5474,-3.5415,-3.5265,-3.4068,-3.3378,-3.3032,-3.1197,-2.9782,-2.8876,-2.8084,-2.6972,-2.5698,-2.5071,-2.4556,-2.4042,-2.3396,-2.3095,-2.3095,-2.3058,-2.2493,-2.1594,-2.143,-2.0878,-1.9823,-1.9798,-1.9798,-1.9798,-1.9761,-1.9497,-1.902,-1.8907,-1.8607,-1.8129,-1.7551,-1.7234,-1.7197,-1.6647,-1.6362,-1.6412,-1.6412,-1.645,-1.65,-1.6513,-1.6513,-1.655,-1.7011,-1.7335,-1.7436,-1.7865,-1.8166,-1.8279,-1.8631,-1.8632,-1.8304,-1.8204,-1.8456,-1.8845,-1.892,-1.9145,-1.9572,-1.9673,-1.9748,-1.9786,-1.9798,-1.9798,-1.9798,-1.9798,-1.9798,-1.9798,-1.9798,-1.9798,-1.9798,-1.9798,-1.9798,-1.9798,-1.9798,-1.9798,-1.9798,-1.9798,-1.9798,-1.9798,-1.9798,-1.9798,-1.9798,-1.9798,-1.9736,-1.9597,-1.9284,-1.8795,-1.8317,-1.7727,-1.7275,-1.6798,-1.6436,-1.6414,-1.6293,-1.6228,-1.6293,-1.6402,-1.6457,-1.6513,-3.5355,-3.5085,-3.5085,-3.5085,-3.5085,-3.5085,-3.5235,-3.5489,-3.5489,-3.5115,-3.4638,-3.5205,-3.528,-3.4906,-3.4906,-3.5115,-3.54,-3.4113,-3.3499,-3.3349,-3.1753,-3.0584,-2.9735,-2.8876,-2.7872,-2.6769,-2.5451,-2.4707,-2.4368,-2.3534,-2.3095,-2.3095,-2.3095,-2.2543,-2.1568,-2.1481,-2.0928,-1.9849,-1.9798,-1.9798,-1.9798,-1.9798,-1.9698,-1.9484,-1.9171,-1.8907,-1.8644,-1.8166,-1.7737,-1.7423,-1.7137,-1.7036,-1.7024,-1.671,-1.6672,-1.6961,-1.6697,-1.6801,-1.7463,-1.7461,-1.7664,-1.8268,-1.8555,-1.8807,-1.912,-1.9334,-1.9371,-1.9208,-1.9158,-1.9258,-1.9447,-1.9459,-1.9559,-1.9761,-1.9798,-1.9798,-1.9798,-1.9798,-1.9798,-1.9798,-1.9798,-1.9798,-1.9798,-1.9798,-1.9798,-1.9798,-1.9798,-1.9798,-1.9798,-1.9798,-1.9798,-1.9798,-1.9798,-1.9798,-1.9798,-1.9798,-1.9798,-1.9798,-1.9798,-1.9798,-1.9761,-1.9673,-1.9284,-1.8744,-1.8242,-1.7689,-1.7184,-1.6722,-1.6513,-1.6513,-1.6513,-1.6513,-1.6513,-1.6513,-1.6513,-3.5489,-3.5489,-3.5489,-3.5489,-3.5489,-3.5489,-3.5489,-3.5489,-3.5489,-3.5026,-3.4307,-3.4726,-3.4577,-3.4038,-3.4324,-3.4771,-3.5011,-3.3829,-3.3335,-3.332,-3.2108,-3.1073,-3.0254,-2.9659,-2.878,-2.7611,-2.6116,-2.5109,-2.4563,-2.3597,-2.3095,-2.3095,-2.3095,-2.2543,-2.1606,-2.1481,-2.0955,-1.9911,-1.9798,-1.9798,-1.9798,-1.9798,-1.9798,-1.9761,-1.9421,-1.9208,-1.9196,-1.8719,-1.8254,-1.7865,-1.7689,-1.7637,-1.7589,-1.7212,-1.7162,-1.7513,-1.7225,-1.7325,-1.8154,-1.7965,-1.8179,-1.8895,-1.9108,-1.9371,-1.971,-1.9798,-1.9798,-1.9773,-1.9798,-1.9773,-1.9798,-1.9798,-1.9798,-1.9798,-1.9798,-1.9798,-1.9798,-1.9798,-1.9798,-1.9798,-1.9798,-1.9798,-1.9798,-1.9798,-1.9798,-1.9798,-1.9798,-1.9798,-1.9798,-1.9798,-1.9798,-1.9798,-1.9798,-1.9798,-1.9798,-1.9798,-1.9798,-1.9798,-1.9798,-1.9798,-1.9798,-1.9798,-1.9597,-1.8945,-1.8607,-1.8242,-1.7702,-1.72,-1.6626,-1.6538,-1.6513,-1.6513,-1.6513,-1.6513,-1.6513,-3.5489,-3.5489,-3.5489,-3.5489,-3.5489,-3.5489,-3.5489,-3.5489,-3.5474,-3.4771,-3.3664,-3.3634,-3.3245,-3.2736,-3.386,-3.4503,-3.4352,-3.3185,-3.2916,-3.3275,-3.2093,-3.1058,-3.0329,-3.0238,-2.9348,-2.7848,-2.6895,-2.5703,-2.4123,-2.3409,-2.3095,-2.3095,-2.3095,-2.2556,-2.1681,-2.1506,-2.0941,-1.9987,-1.9823,-1.9798,-1.9798,-1.9798,-1.9798,-1.9786,-1.9773,-1.9736,-1.9685,-1.9233,-1.8945,-1.8907,-1.8406,-1.8166,-1.8166,-1.8129,-1.8116,-1.8154,-1.8116,-1.8129,-1.8304,-1.8607,-1.892,-1.907,-1.9472,-1.9761,-1.9786,-1.9798,-1.9798,-1.9798,-1.9798,-1.9798,-1.9798,-1.9798,-1.9798,-1.9798,-1.9798,-1.9798,-1.9798,-1.9798,-1.9798,-1.9798,-1.9798,-1.9798,-1.9798,-1.9798,-1.9798,-1.9798,-1.9798,-1.9798,-1.9798,-1.9798,-1.9798,-1.9798,-1.9798,-1.9798,-1.9798,-1.9798,-1.9798,-1.9798,-1.9798,-1.9798,-1.9798,-1.9748,-1.9447,-1.9208,-1.897,-1.8644,-1.8229,-1.7702,-1.7087,-1.6785,-1.655,-1.6513,-1.6513,-1.6513,-1.6513,-3.5489,-3.5489,-3.5489,-3.5489,-3.5489,-3.5489,-3.5489,-3.5459,-3.5026,-3.4384,-3.3604,-3.3499,-3.2901,-3.1899,-3.2811,-3.3455,-3.3754,-3.2901,-3.2647,-3.2766,-3.1914,-3.1336,-3.0999,-3.0011,-2.9209,-2.8397,-2.685,-2.5357,-2.4092,-2.3384,-2.3095,-2.3095,-2.3095,-2.2719,-2.2083,-2.1656,-2.1131,-2.0427,-2.0012,-1.9798,-1.9798,-1.9798,-1.9798,-1.9798,-1.9798,-1.9798,-1.9798,-1.9623,-1.9346,-1.902,-1.8795,-1.8707,-1.8707,-1.8719,-1.8707,-1.8669,-1.8392,-1.8493,-1.9083,-1.907,-1.9158,-1.951,-1.9685,-1.9798,-1.9798,-1.9798,-1.9798,-1.9798,-1.9798,-1.9798,-1.9798,-1.9798,-1.9798,-1.9798,-1.9798,-1.9798,-1.9798,-1.9798,-1.9798,-1.9798,-1.9798,-1.9798,-1.9798,-1.9798,-1.9798,-1.9798,-1.9798,-1.9798,-1.9798,-1.9798,-1.9798,-1.9798,-1.9798,-1.9798,-1.9798,-1.9798,-1.9798,-1.9798,-1.9798,-1.9798,-1.9798,-1.9798,-1.9597,-1.9472,-1.9284,-1.8995,-1.8555,-1.794,-1.7363,-1.681,-1.6588,-1.6513,-1.6513,-1.6513,-1.6513,-3.5489,-3.5489,-3.5489,-3.5489,-3.5489,-3.5489,-3.537,-3.5145,-3.4713,-3.3993,-3.329,-3.317,-3.2557,-3.1705,-3.1974,-3.2392,-3.2766,-3.2392,-3.2302,-3.2407,-3.1809,-3.1496,-3.1278,-3.0072,-2.924,-2.8643,-2.6492,-2.4946,-2.4243,-2.3471,-2.312,-2.3095,-2.3095,-2.2819,-2.2309,-2.1769,-2.1245,-2.0691,-2.0126,-1.9798,-1.9798,-1.9798,-1.9798,-1.9798,-1.9798,-1.9798,-1.9798,-1.9798,-1.9648,-1.9296,-1.9246,-1.9246,-1.9259,-1.9259,-1.9246,-1.9208,-1.8907,-1.902,-1.9635,-1.9447,-1.9434,-1.9761,-1.9798,-1.9798,-1.9798,-1.9798,-1.9798,-1.9798,-1.9798,-1.9798,-1.9798,-1.9798,-1.9798,-1.9798,-1.9798,-1.9798,-1.9798,-1.9798,-1.9798,-1.9798,-1.9798,-1.9798,-1.9798,-1.9798,-1.9798,-1.9798,-1.9798,-1.9798,-1.9798,-1.9798,-1.9798,-1.9798,-1.9798,-1.9798,-1.9798,-1.9798,-1.9798,-1.9798,-1.9798,-1.9798,-1.9798,-1.9798,-1.9786,-1.9723,-1.9547,-1.9246,-1.8782,-1.8191,-1.7576,-1.6926,-1.66,-1.6513,-1.6513,-1.6513,-1.6588,-3.5489,-3.5489,-3.5489,-3.5489,-3.5489,-3.5429,-3.5085,-3.4592,-3.4397,-3.3619,-3.2706,-3.2527,-3.2138,-3.1615,-3.1585,-3.157,-3.166,-3.163,-3.1884,-3.2288,-3.178,-3.1496,-3.1438,-3.0584,-2.9642,-2.8789,-2.6213,-2.4903,-2.4662,-2.371,-2.317,-2.3108,-2.3095,-2.2869,-2.2347,-2.1807,-2.123,-2.0742,-2.015,-1.9811,-1.9798,-1.9798,-1.9798,-1.9798,-1.9798,-1.9798,-1.9798,-1.9798,-1.9786,-1.9761,-1.9748,-1.9786,-1.9736,-1.9736,-1.9761,-1.9736,-1.9736,-1.9761,-1.9786,-1.9761,-1.9723,-1.9798,-1.9798,-1.9798,-1.9798,-1.9798,-1.9798,-1.9798,-1.9798,-1.9798,-1.9798,-1.9798,-1.9798,-1.9798,-1.9798,-1.9798,-1.9798,-1.9798,-1.9798,-1.9798,-1.9798,-1.9798,-1.9798,-1.9798,-1.9798,-1.9798,-1.9798,-1.9798,-1.9798,-1.9798,-1.9798,-1.9798,-1.9798,-1.9798,-1.9798,-1.9798,-1.9798,-1.9798,-1.9798,-1.9798,-1.9798,-1.9798,-1.9798,-1.9748,-1.9748,-1.9484,-1.902,-1.8455,-1.8078,-1.7503,-1.7077,-1.6776,-1.6901,-1.7002,-1.6851,-3.5489,-3.5489,-3.5489,-3.5489,-3.5429,-3.5011,-3.4683,-3.4399,-3.3559,-3.2856,-3.2452,-3.2004,-3.169,-3.154,-3.1496,-3.1496,-3.1496,-3.1511,-3.163,-3.1765,-3.16,-3.1496,-3.1351,-3.0688,-2.9518,-2.8158,-2.6887,-2.573,-2.4796,-2.4067,-2.3521,-2.3183,-2.3095,-2.302,-2.2782,-2.1983,-2.1368,-2.1182,-2.0288,-1.9798,-1.9798,-1.9798,-1.9798,-1.9798,-1.9798,-1.9798,-1.9798,-1.9798,-1.9798,-1.9798,-1.9798,-1.9798,-1.9798,-1.9798,-1.9798,-1.9798,-1.9798,-1.9798,-1.9798,-1.9798,-1.9798,-1.9798,-1.9798,-1.9798,-1.9798,-1.9798,-1.9798,-1.9798,-1.9798,-1.9798,-1.9798,-1.9798,-1.9798,-1.9798,-1.9798,-1.9798,-1.9798,-1.9798,-1.9798,-1.9798,-1.9798,-1.9798,-1.9798,-1.9798,-1.9798,-1.9798,-1.9798,-1.9798,-1.9798,-1.9798,-1.9798,-1.9798,-1.9798,-1.9798,-1.9798,-1.9798,-1.9798,-1.9798,-1.9798,-1.9798,-1.9798,-1.9798,-1.9798,-1.9798,-1.9798,-1.9635,-1.9196,-1.8782,-1.8393,-1.8154,-1.779,-1.7664,-1.7654,-1.7553,-1.739,-3.5489,-3.5489,-3.5489,-3.5489,-3.5429,-3.4771,-3.4369,-3.4009,-3.2991,-3.2348,-3.2064,-3.1705,-3.1496,-3.1496,-3.1496,-3.1496,-3.1496,-3.1496,-3.1496,-3.1496,-3.1496,-3.1496,-3.138,-3.0688,-2.9366,-2.7879,-2.7155,-2.6187,-2.484,-2.4268,-2.3715,-2.3195,-2.3095,-2.3095,-2.3032,-2.2272,-2.1719,-2.1421,-2.0602,-2.0024,-1.9849,-1.9798,-1.9798,-1.9798,-1.9798,-1.9798,-1.9798,-1.9798,-1.9798,-1.9798,-1.9798,-1.9798,-1.9798,-1.9798,-1.9798,-1.9798,-1.9798,-1.9798,-1.9798,-1.9798,-1.9798,-1.9798,-1.9798,-1.9798,-1.9798,-1.9798,-1.9798,-1.9798,-1.9798,-1.9798,-1.9798,-1.9798,-1.9798,-1.9798,-1.9798,-1.9798,-1.9798,-1.9798,-1.9798,-1.9798,-1.9798,-1.9798,-1.9798,-1.9798,-1.9798,-1.9798,-1.9798,-1.9798,-1.9798,-1.9798,-1.9811,-1.9811,-1.9798,-1.9798,-1.9798,-1.9798,-1.9798,-1.9798,-1.9798,-1.9798,-1.9798,-1.9798,-1.9798,-1.9798,-1.9798,-1.9786,-1.9422,-1.9096,-1.8757,-1.8556,-1.8392,-1.8129,-1.7965,-1.8016,-1.7892,-3.5489,-3.5489,-3.5489,-3.5489,-3.54,-3.4696,-3.4099,-3.3484,-3.2721,-3.2064,-3.1615,-3.1525,-3.1496,-3.1496,-3.1496,-3.1496,-3.1496,-3.1496,-3.1496,-3.1496,-3.1496,-3.1496,-3.138,-3.0688,-2.9442,-2.8023,-2.7286,-2.6207,-2.482,-2.4368,-2.3728,-2.317,-2.3095,-2.3095,-2.2982,-2.2573,-2.2004,-2.1581,-2.0981,-2.039,-1.9924,-1.9811,-1.9798,-1.9798,-1.9798,-1.9798,-1.9798,-1.9798,-1.9798,-1.9798,-1.9798,-1.9798,-1.9798,-1.9798,-1.9798,-1.9798,-1.9798,-1.9798,-1.9798,-1.9798,-1.9798,-1.9798,-1.9798,-1.9798,-1.9798,-1.9798,-1.9798,-1.9798,-1.9798,-1.9798,-1.9798,-1.9798,-1.9798,-1.9798,-1.9798,-1.9798,-1.9798,-1.9798,-1.9798,-1.9798,-1.9798,-1.9798,-1.9798,-1.9798,-1.9798,-1.9798,-1.9798,-1.9798,-1.9849,-1.9861,-1.9861,-1.9936,-2.0087,-2.0275,-2.0413,-2.0426,-2.0426,-2.0439,-2.03,-2.0112,-1.9899,-1.9811,-1.9798,-1.9798,-1.9798,-1.9786,-1.9698,-1.9359,-1.9196,-1.9083,-1.8807,-1.8405,-1.838,-1.8555,-1.8593,-3.5489,-3.5489,-3.5489,-3.5489,-3.534,-3.4262,-3.3664,-3.335,-3.2243,-3.1705,-3.1511,-3.1496,-3.1496,-3.1496,-3.1496,-3.1496,-3.1496,-3.1496,-3.1496,-3.1496,-3.1496,-3.1496,-3.1336,-3.0688,-2.9766,-2.8675,-2.7902,-2.6557,-2.4915,-2.4721,-2.4079,-2.3133,-2.312,-2.3095,-2.302,-2.2598,-2.2272,-2.197,-2.1157,-2.0654,-2.0427,-2.0012,-1.9798,-1.9798,-1.9798,-1.9798,-1.9798,-1.9798,-1.9798,-1.9798,-1.9798,-1.9798,-1.9798,-1.9798,-1.9798,-1.9798,-1.9798,-1.9798,-1.9798,-1.9798,-1.9798,-1.9798,-1.9798,-1.9798,-1.9798,-1.9798,-1.9798,-1.9798,-1.9798,-1.9798,-1.9798,-1.9798,-1.9798,-1.9798,-1.9798,-1.9798,-1.9798,-1.9798,-1.9798,-1.9798,-1.9798,-1.9798,-1.9798,-1.9798,-1.9798,-1.9798,-1.9836,-1.9861,-1.9974,-2.0275,-2.0439,-2.0616,-2.0779,-2.0966,-2.1104,-2.1104,-2.1117,-2.1182,-2.1006,-2.0652,-2.025,-1.9836,-1.9811,-1.9798,-1.9798,-1.9786,-1.9786,-1.9648,-1.9597,-1.9484,-1.9397,-1.912,-1.9284,-1.9434,-1.9371,-3.5489,-3.5489,-3.5489,-3.5325,-3.4966,-3.3933,-3.3335,-3.2916,-3.1989,-3.1496,-3.1496,-3.1496,-3.1496,-3.1496,-3.1496,-3.1496,-3.1496,-3.1496,-3.1496,-3.1496,-3.1496,-3.1496,-3.138,-3.094,-3.0359,-2.9566,-2.9002,-2.7659,-2.5987,-2.5467,-2.4651,-2.3646,-2.3221,-2.3108,-2.3095,-2.2819,-2.2493,-2.2246,-2.1659,-2.1219,-2.0691,-2.039,-2.0037,-1.9874,-1.9798,-1.9798,-1.9798,-1.9798,-1.9798,-1.9798,-1.9798,-1.9798,-1.9798,-1.9798,-1.9798,-1.9798,-1.9798,-1.9798,-1.9798,-1.9798,-1.9798,-1.9798,-1.9798,-1.9798,-1.9798,-1.9798,-1.9798,-1.9798,-1.9798,-1.9798,-1.9798,-1.9798,-1.9798,-1.9798,-1.9798,-1.9798,-1.9798,-1.9798,-1.9798,-1.9798,-1.9798,-1.9798,-1.9811,-1.9823,-1.9811,-1.9861,-2.0113,-2.0176,-2.0263,-2.0717,-2.1069,-2.1182,-2.127,-2.1393,-2.1455,-2.1455,-2.1506,-2.1581,-2.1496,-2.1167,-2.069,-2.01,-1.9874,-1.9861,-1.9823,-1.9798,-1.9798,-1.9798,-1.9748,-1.971,-1.9786,-1.9798,-1.9798,-1.9798,-1.9798,-3.5489,-3.5489,-3.5429,-3.504,-3.4427,-3.3694,-3.3036,-3.2497,-3.1809,-3.1496,-3.1496,-3.1496,-3.1496,-3.1496,-3.1496,-3.1496,-3.1496,-3.1496,-3.1496,-3.1496,-3.1496,-3.1496,-3.1467,-3.119,-3.0733,-3.0133,-3.0147,-2.8661,-2.69,-2.6146,-2.5231,-2.4071,-2.3358,-2.3133,-2.3095,-2.3058,-2.2819,-2.2481,-2.2259,-2.1757,-2.1119,-2.0767,-2.039,-2.0049,-1.9823,-1.9811,-1.9798,-1.9798,-1.9798,-1.9798,-1.9798,-1.9798,-1.9798,-1.9798,-1.9798,-1.9798,-1.9798,-1.9798,-1.9798,-1.9798,-1.9798,-1.9798,-1.9798,-1.9798,-1.9798,-1.9798,-1.9798,-1.9798,-1.9798,-1.9798,-1.9798,-1.9798,-1.9886,-1.9924,-1.9911,-1.9823,-1.9936,-1.9874,-1.9836,-1.9949,-1.9974,-1.9899,-1.9962,-1.9974,-2.0024,-2.0465,-2.0603,-2.0704,-2.0865,-2.1242,-2.1493,-2.1606,-2.1681,-2.1757,-2.1769,-2.1769,-2.1845,-2.1907,-2.1794,-2.1543,-2.1154,-2.0639,-2.0175,-1.9962,-1.9936,-1.9874,-1.9798,-1.9798,-1.9798,-1.9798,-1.9798,-1.9798,-1.9798,-1.9798,-1.9798,-3.5489,-3.5459,-3.4921,-3.4653,-3.4292,-3.3245,-3.2647,-3.2437,-3.178,-3.1496,-3.1496,-3.1496,-3.1496,-3.1496,-3.1496,-3.1496,-3.1496,-3.1496,-3.1496,-3.1496,-3.1496,-3.1496,-3.138,-3.097,-3.0554,-3.0103,-2.8876,-2.7841,-2.6878,-2.5966,-2.4767,-2.4079,-2.3509,-2.3108,-2.3108,-2.3095,-2.307,-2.2869,-2.2531,-2.2205,-2.1794,-2.1131,-2.0691,-2.0427,-2.0024,-1.9811,-1.9798,-1.9798,-1.9798,-1.9798,-1.9798,-1.9798,-1.9798,-1.9798,-1.9798,-1.9798,-1.9798,-1.9798,-1.9798,-1.9798,-1.9798,-1.9798,-1.9798,-1.9798,-1.9798,-1.9798,-1.9798,-1.9798,-1.9798,-1.9811,-1.9874,-1.9823,-2.0075,-2.0313,-2.0162,-2.0238,-2.0752,-2.0351,-2.0238,-2.0754,-2.0742,-2.0654,-2.1016,-2.0991,-2.1029,-2.1144,-2.1207,-2.128,-2.1531,-2.182,-2.2008,-2.2146,-2.2255,-2.2343,-2.2372,-2.2359,-2.2347,-2.2359,-2.2221,-2.2121,-2.1732,-2.123,-2.0778,-2.0376,-2.0049,-1.9999,-1.9987,-1.9798,-1.9798,-1.9798,-1.9798,-1.9798,-1.9798,-1.9798,-1.9798,-3.4831,-3.4562,-3.4518,-3.4144,-3.3499,-3.2781,-3.2303,-3.2004,-3.1675,-3.1496,-3.1496,-3.1496,-3.1496,-3.1496,-3.1496,-3.1496,-3.1496,-3.1496,-3.1496,-3.1496,-3.1496,-3.1496,-3.1467,-3.1131,-3.0851,-3.0688,-3.0042,-2.9,-2.7872,-2.6807,-2.5821,-2.4412,-2.3803,-2.3371,-2.3133,-2.3095,-2.3095,-2.3058,-2.2844,-2.2569,-2.2209,-2.1782,-2.1106,-2.0691,-2.0125,-1.9798,-1.9798,-1.9798,-1.9798,-1.9798,-1.9798,-1.9798,-1.9798,-1.9798,-1.9798,-1.9798,-1.9798,-1.9798,-1.9798,-1.9798,-1.9798,-1.9798,-1.9798,-1.9798,-1.9798,-1.9798,-1.9798,-1.9798,-1.9823,-1.9886,-2.0175,-2.0514,-2.0792,-2.0918,-2.0805,-2.0991,-2.1468,-2.0903,-2.0514,-2.1232,-2.1232,-2.1245,-2.1421,-2.1619,-2.1543,-2.1405,-2.1757,-2.1882,-2.202,-2.2297,-2.2543,-2.2719,-2.2882,-2.2982,-2.2982,-2.2957,-2.2895,-2.2844,-2.2761,-2.2681,-2.2506,-2.1983,-2.1405,-2.1016,-2.0614,-2.0363,-2.0327,-2.0075,-1.9849,-1.9811,-1.9811,-1.9798,-1.9836,-1.9886,-1.9861,-3.4203,-3.3814,-3.4188,-3.3679,-3.2736,-3.2407,-3.2019,-3.157,-3.1496,-3.1496,-3.1496,-3.1496,-3.1496,-3.1496,-3.1496,-3.1496,-3.1496,-3.1496,-3.1496,-3.1496,-3.1496,-3.1496,-3.1467,-3.1438,-3.138,-3.1482,-3.1029,-3.0225,-2.9262,-2.8395,-2.6894,-2.5339,-2.4494,-2.3925,-2.3412,-2.312,-2.3095,-2.3083,-2.3045,-2.2882,-2.2523,-2.2284,-2.1681,-2.0792,-2.0327,-1.9924,-1.9849,-1.9798,-1.9798,-1.9798,-1.9798,-1.9798,-1.9798,-1.9798,-1.9798,-1.9798,-1.9798,-1.9798,-1.9798,-1.9798,-1.9798,-1.9798,-1.9798,-1.9798,-1.9798,-1.9823,-1.9899,-2.0012,-2.0125,-2.0376,-2.0792,-2.1081,-2.138,-2.1543,-2.1556,-2.1794,-2.2096,-2.1559,-2.1395,-2.1681,-2.1782,-2.1757,-2.1857,-2.202,-2.1845,-2.1782,-2.2159,-2.2447,-2.2531,-2.2656,-2.2869,-2.297,-2.3058,-2.3095,-2.3095,-2.3095,-2.3095,-2.3083,-2.3045,-2.3032,-2.3007,-2.2631,-2.2071,-2.1619,-2.1255,-2.0941,-2.0629,-2.0352,-2.0125,-1.9936,-1.9962,-2.0151,-2.01,-2.0012,-2.0037,-3.4741,-3.5085,-3.4083,-3.3514,-3.3155,-3.2153,-3.166,-3.1511,-3.1496,-3.1496,-3.1496,-3.1496,-3.1496,-3.1496,-3.1496,-3.1496,-3.1496,-3.1496,-3.1496,-3.1496,-3.1496,-3.1496,-3.1496,-3.1496,-3.1496,-3.1307,-3.0999,-3.0419,-2.9793,-2.8808,-2.7596,-2.6509,-2.5414,-2.4554,-2.3826,-2.3396,-2.3095,-2.3095,-2.3095,-2.2995,-2.2844,-2.2431,-2.1882,-2.0943,-2.0666,-2.0327,-1.9924,-1.9823,-1.9798,-1.9798,-1.9798,-1.9798,-1.9798,-1.9798,-1.9798,-1.9798,-1.9798,-1.9798,-1.9798,-1.9798,-1.9798,-1.9798,-1.9849,-1.9836,-1.9836,-1.9886,-2.0175,-2.0553,-2.093,-2.123,-2.1358,-2.1568,-2.1757,-2.192,-2.1933,-2.197,-2.2531,-2.2431,-2.2146,-2.2481,-2.238,-2.2272,-2.2355,-2.2468,-2.2472,-2.2422,-2.2594,-2.2769,-2.2844,-2.2907,-2.3007,-2.307,-2.3083,-2.3095,-2.3095,-2.3095,-2.3095,-2.3095,-2.3083,-2.3083,-2.307,-2.3058,-2.2719,-2.2234,-2.1744,-2.1317,-2.0978,-2.0717,-2.0465,-2.0288,-2.0415,-2.0541,-2.0591,-2.0602,-2.0704,-3.4472,-3.4427,-3.4113,-3.3604,-3.2946,-3.2303,-3.1809,-3.1511,-3.1496,-3.1496,-3.1496,-3.1496,-3.1496,-3.1496,-3.1496,-3.1496,-3.1496,-3.1496,-3.1496,-3.1496,-3.1496,-3.1496,-3.1496,-3.1496,-3.1496,-3.1409,-3.1087,-3.0644,-3.024,-2.9175,-2.8052,-2.6802,-2.5639,-2.4663,-2.4009,-2.3396,-2.3158,-2.3108,-2.3095,-2.3095,-2.3058,-2.2581,-2.197,-2.1644,-2.1232,-2.083,-2.0402,-2.0277,-2.0087,-1.9874,-1.9798,-1.9798,-1.9798,-1.9798,-1.9798,-1.9798,-1.9798,-1.9798,-1.9798,-1.9798,-1.9798,-1.9836,-2.0037,-2.0238,-2.0338,-2.0539,-2.0778,-2.1131,-2.1597,-2.192,-2.192,-2.2121,-2.2431,-2.2581,-2.2431,-2.2556,-2.2857,-2.2794,-2.2907,-2.3058,-2.2857,-2.2744,-2.2882,-2.2982,-2.3058,-2.3095,-2.3095,-2.3095,-2.3095,-2.3095,-2.3095,-2.3095,-2.3095,-2.3095,-2.3095,-2.3095,-2.3095,-2.3095,-2.3095,-2.3095,-2.3095,-2.3083,-2.3032,-2.2769,-2.2297,-2.1794,-2.1606,-2.1393,-2.1029,-2.0727,-2.0955,-2.1119,-2.1182,-2.1232,-2.1333,-3.4279,-3.3948,-3.4339,-3.3873,-3.2961,-3.2602,-3.2198,-3.175,-3.157,-3.1496,-3.1496,-3.1496,-3.1496,-3.1496,-3.1496,-3.1496,-3.1496,-3.1496,-3.1496,-3.1496,-3.1496,-3.1496,-3.1496,-3.1496,-3.1496,-3.1496,-3.1438,-3.1161,-3.0614,-2.9726,-2.8604,-2.7466,-2.5968,-2.4791,-2.4268,-2.3647,-2.3333,-2.312,-2.3095,-2.3095,-2.2982,-2.2694,-2.2397,-2.2322,-2.1882,-2.1393,-2.0891,-2.0679,-2.044,-2.01,-1.9899,-1.9798,-1.9798,-1.9798,-1.9798,-1.9798,-1.9798,-1.9798,-1.9798,-1.9811,-1.9874,-2.0062,-2.044,-2.0679,-2.0981,-2.1242,-2.1631,-2.1744,-2.2146,-2.2472,-2.2493,-2.2807,-2.3007,-2.3045,-2.3045,-2.3095,-2.307,-2.3032,-2.3007,-2.3095,-2.3095,-2.3095,-2.3095,-2.3095,-2.3095,-2.3095,-2.3095,-2.3095,-2.3095,-2.3095,-2.3095,-2.3095,-2.3095,-2.3095,-2.3095,-2.3095,-2.3095,-2.3095,-2.3095,-2.3095,-2.3095,-2.3095,-2.3032,-2.2982,-2.2807,-2.2397,-2.2246,-2.1995,-2.1568,-2.1368,-2.1543,-2.1656,-2.1694,-2.1832,-2.1983,-3.4786,-3.5205,-3.4713,-3.4414,-3.4023,-3.3006,-3.2482,-3.2258,-3.172,-3.1511,-3.1496,-3.1496,-3.1496,-3.1496,-3.1496,-3.1496,-3.1496,-3.1496,-3.1496,-3.1496,-3.1496,-3.1496,-3.1496,-3.1496,-3.1496,-3.1496,-3.1496,-3.1482,-3.1058,-3.0419,-2.96,-2.8479,-2.7118,-2.6,-2.4752,-2.4067,-2.364,-2.3208,-2.312,-2.3095,-2.3083,-2.3007,-2.2719,-2.2431,-2.2205,-2.1958,-2.143,-2.1119,-2.0754,-2.0591,-2.0087,-1.9849,-1.9798,-1.9798,-1.9798,-1.9798,-1.9798,-1.9798,-1.9811,-1.9886,-2.0075,-2.0415,-2.0729,-2.0968,-2.1471,-2.1895,-2.2192,-2.2234,-2.2686,-2.2907,-2.2895,-2.3032,-2.3095,-2.3095,-2.3095,-2.3095,-2.3095,-2.3095,-2.3095,-2.3095,-2.3095,-2.3095,-2.3095,-2.3095,-2.3095,-2.3095,-2.3095,-2.3095,-2.3095,-2.3095,-2.3095,-2.3095,-2.3095,-2.3095,-2.3095,-2.3095,-2.3095,-2.3095,-2.3095,-2.3095,-2.3095,-2.3095,-2.3095,-2.3032,-2.292,-2.2807,-2.2531,-2.2259,-2.1983,-2.197,-2.2096,-2.2171,-2.2221,-2.2397,-2.256,-3.5235,-3.5474,-3.5175,-3.4607,-3.3888,-3.3275,-3.2602,-3.1974,-3.1645,-3.1496,-3.1496,-3.1496,-3.1496,-3.1496,-3.1496,-3.1496,-3.1496,-3.1496,-3.1496,-3.1496,-3.1496,-3.1496,-3.1496,-3.1496,-3.1496,-3.1496,-3.1496,-3.1496,-3.1248,-3.0673,-2.9858,-2.8937,-2.765,-2.6337,-2.5317,-2.4425,-2.3954,-2.3572,-2.3308,-2.312,-2.3095,-2.3083,-2.2995,-2.2757,-2.2732,-2.2418,-2.202,-2.1782,-2.1405,-2.1169,-2.0629,-2.0339,-2.02,-2.0024,-1.9798,-1.9836,-2.0163,-2.0151,-1.9925,-2.0125,-2.0453,-2.0817,-2.1245,-2.1882,-2.2322,-2.2556,-2.2732,-2.2757,-2.2945,-2.3083,-2.3095,-2.3095,-2.3095,-2.3095,-2.3095,-2.3095,-2.3095,-2.3095,-2.3095,-2.3095,-2.3095,-2.3095,-2.3095,-2.3095,-2.3095,-2.3095,-2.3095,-2.3095,-2.3095,-2.3095,-2.3095,-2.3095,-2.3095,-2.3095,-2.3095,-2.3095,-2.3095,-2.3095,-2.3095,-2.3095,-2.3095,-2.3095,-2.3095,-2.3095,-2.3032,-2.2895,-2.2732,-2.2656,-2.2535,-2.256,-2.2611,-2.2606,-2.2619,-2.2732,-2.2844,-3.5489,-3.5489,-3.5489,-3.4906,-3.3978,-3.3649,-3.2961,-3.2064,-3.1645,-3.1496,-3.1496,-3.1496,-3.1496,-3.1496,-3.1496,-3.1496,-3.1496,-3.1496,-3.1496,-3.1496,-3.1496,-3.1496,-3.1496,-3.1496,-3.1496,-3.1496,-3.1496,-3.1496,-3.1322,-3.0911,-3.0238,-2.9303,-2.8266,-2.701,-2.5968,-2.509,-2.4453,-2.3584,-2.3271,-2.312,-2.3095,-2.3095,-2.3095,-2.3083,-2.3058,-2.2907,-2.2543,-2.2268,-2.2008,-2.1707,-2.1194,-2.0905,-2.083,-2.0589,-2.0401,-2.0451,-2.0754,-2.0742,-2.0603,-2.0691,-2.093,-2.1358,-2.1845,-2.2598,-2.2895,-2.3095,-2.3095,-2.3032,-2.307,-2.3095,-2.3095,-2.3095,-2.3095,-2.3095,-2.3095,-2.3095,-2.3125,-2.3185,-2.3155,-2.3095,-2.3095,-2.3095,-2.3095,-2.3095,-2.3095,-2.3095,-2.3095,-2.3095,-2.3095,-2.3095,-2.3095,-2.3095,-2.3095,-2.3095,-2.3095,-2.3095,-2.3095,-2.3095,-2.3095,-2.3095,-2.3095,-2.3095,-2.3095,-2.3095,-2.3095,-2.3045,-2.292,-2.3007,-2.3095,-2.2945,-2.2857,-2.297,-2.3032,-2.3095,-2.3083,-3.5489,-3.5489,-3.5489,-3.5415,-3.516,-3.4008,-3.344,-3.2991,-3.1959,-3.1511,-3.1496,-3.1496,-3.1496,-3.1496,-3.1496,-3.1496,-3.1496,-3.1496,-3.1496,-3.1496,-3.1496,-3.1496,-3.1496,-3.1496,-3.1496,-3.1496,-3.1496,-3.1496,-3.1467,-3.138,-3.0837,-3.0179,-2.9181,-2.8076,-2.7025,-2.6044,-2.4843,-2.3908,-2.3273,-2.3108,-2.3095,-2.3095,-2.3095,-2.3095,-2.3095,-2.307,-2.3007,-2.2619,-2.2355,-2.2234,-2.1732,-2.1443,-2.1393,-2.1204,-2.1119,-2.1129,-2.1305,-2.133,-2.1317,-2.1383,-2.1681,-2.2171,-2.2619,-2.2957,-2.3083,-2.3095,-2.3095,-2.3125,-2.3215,-2.3275,-2.3215,-2.3155,-2.3501,-2.359,-2.3708,-2.3666,-2.3619,-2.3365,-2.3305,-2.3155,-2.3095,-2.3095,-2.3095,-2.3095,-2.3095,-2.3095,-2.3095,-2.3095,-2.3095,-2.3095,-2.3095,-2.3095,-2.3095,-2.3095,-2.3095,-2.3095,-2.3095,-2.3095,-2.3095,-2.3095,-2.3095,-2.3095,-2.3095,-2.3095,-2.3095,-2.3095,-2.3095,-2.3095,-2.3095,-2.3095,-2.3095,-2.3095,-2.3095,-2.3095,-2.3095,-3.5489,-3.5489,-3.5489,-3.5265,-3.4801,-3.3873,-3.326,-3.2781,-3.1914,-3.1496,-3.1496,-3.1496,-3.1496,-3.1496,-3.1496,-3.1496,-3.1496,-3.1496,-3.1496,-3.1496,-3.1496,-3.1496,-3.1496,-3.1496,-3.1496,-3.1496,-3.1496,-3.1496,-3.1496,-3.1496,-3.1394,-3.0837,-3.0133,-2.9282,-2.8201,-2.6841,-2.5476,-2.449,-2.356,-2.3108,-2.3095,-2.3095,-2.3095,-2.3095,-2.3095,-2.3095,-2.3058,-2.292,-2.2819,-2.2673,-2.2288,-2.2112,-2.199,-2.1788,-2.1606,-2.1631,-2.1832,-2.1983,-2.1995,-2.202,-2.2246,-2.2669,-2.2982,-2.3155,-2.3215,-2.3138,-2.3095,-2.3215,-2.3531,-2.3708,-2.3826,-2.425,-2.4639,-2.4553,-2.4452,-2.4352,-2.4208,-2.3959,-2.3842,-2.3842,-2.3412,-2.3095,-2.3095,-2.3095,-2.3095,-2.3095,-2.3095,-2.3095,-2.3095,-2.3095,-2.3095,-2.3095,-2.3095,-2.3095,-2.3095,-2.3095,-2.3095,-2.3095,-2.3095,-2.3095,-2.3095,-2.3095,-2.3095,-2.3095,-2.3095,-2.3095,-2.3095,-2.3095,-2.3095,-2.3095,-2.3095,-2.3095,-2.3095,-2.3095,-2.3095,-3.5325,-3.5489,-3.5489,-3.5115,-3.4459,-3.3769,-3.3125,-3.2467,-3.1795,-3.1496,-3.1496,-3.1496,-3.1496,-3.1496,-3.1496,-3.1496,-3.1496,-3.1496,-3.1496,-3.1496,-3.1496,-3.1496,-3.1496,-3.1496,-3.1496,-3.1496,-3.1496,-3.1496,-3.1496,-3.1496,-3.1438,-3.1278,-3.0925,-3.0179,-2.9097,-2.7449,-2.6012,-2.5043,-2.4133,-2.3221,-2.317,-2.3095,-2.3095,-2.3095,-2.3095,-2.3095,-2.3095,-2.3075,-2.3225,-2.3183,-2.298,-2.2774,-2.2597,-2.2407,-2.2049,-2.2108,-2.2284,-2.2535,-2.2577,-2.2819,-2.3047,-2.3458,-2.3803,-2.3725,-2.3531,-2.3454,-2.3514,-2.3185,-2.3767,-2.4308,-2.4408,-2.4753,-2.5119,-2.5007,-2.5035,-2.4965,-2.4937,-2.4781,-2.4667,-2.461,-2.4179,-2.3959,-2.4002,-2.4073,-2.368,-2.3505,-2.3095,-2.3095,-2.3095,-2.3095,-2.3095,-2.3095,-2.3095,-2.3095,-2.3095,-2.3095,-2.3095,-2.3095,-2.3095,-2.3095,-2.3095,-2.3095,-2.3095,-2.3095,-2.3095,-2.3095,-2.3095,-2.3095,-2.3095,-2.3095,-2.3095,-2.3095,-2.3095,-2.3095,-2.3095,-3.4925,-3.5474,-3.5477,-3.5058,-3.4339,-3.38,-3.3125,-3.2437,-3.178,-3.1496,-3.1496,-3.1496,-3.1496,-3.1496,-3.1496,-3.1496,-3.1496,-3.1496,-3.1496,-3.1496,-3.1496,-3.1496,-3.1496,-3.1496,-3.1496,-3.1496,-3.1496,-3.1496,-3.1496,-3.1496,-3.1496,-3.1496,-3.1278,-3.0955,-3.0106,-2.8052,-2.6414,-2.5308,-2.4543,-2.3905,-2.3591,-2.3495,-2.3444,-2.3671,-2.3556,-2.356,-2.359,-2.356,-2.3826,-2.4066,-2.366,-2.3645,-2.3953,-2.3385,-2.3098,-2.3191,-2.3034,-2.3062,-2.3148,-2.3816,-2.4211,-2.4323,-2.4582,-2.4696,-2.4408,-2.4234,-2.4089,-2.3783,-2.4192,-2.4481,-2.4667,-2.5035,-2.5494,-2.5714,-2.5796,-2.5922,-2.5936,-2.5772,-2.5716,-2.5727,-2.5521,-2.5314,-2.5342,-2.5201,-2.4553,-2.4014,-2.333,-2.3168,-2.3271,-2.3108,-2.3108,-2.3095,-2.3095,-2.3095,-2.3095,-2.3095,-2.3095,-2.3095,-2.3095,-2.3095,-2.3095,-2.3095,-2.3095,-2.3095,-2.3095,-2.3095,-2.3095,-2.3095,-2.3095,-2.3095,-2.3095,-2.3095,-2.3095,-2.3095,-2.3095,-3.5081,-3.485,-3.485,-3.4182,-3.3275,-3.3425,-3.3125,-3.2437,-3.1824,-3.1496,-3.1496,-3.1496,-3.1496,-3.1496,-3.1496,-3.1496,-3.1496,-3.1496,-3.1496,-3.1496,-3.1496,-3.1496,-3.1496,-3.1496,-3.1496,-3.1496,-3.1496,-3.1496,-3.1496,-3.1496,-3.1496,-3.1496,-3.1467,-3.1365,-3.0749,-2.9381,-2.8077,-2.7124,-2.614,-2.5287,-2.5053,-2.471,-2.4668,-2.513,-2.4767,-2.4536,-2.4467,-2.441,-2.4639,-2.4964,-2.454,-2.4654,-2.4838,-2.4295,-2.4134,-2.4134,-2.3946,-2.3395,-2.4047,-2.4866,-2.5453,-2.537,-2.5287,-2.5425,-2.5063,-2.5035,-2.4838,-2.4809,-2.5119,-2.5481,-2.5933,-2.6481,-2.689,-2.6967,-2.7067,-2.736,-2.7386,-2.7061,-2.6916,-2.699,-2.6905,-2.6385,-2.6175,-2.6568,-2.6143,-2.5501,-2.4925,-2.4138,-2.4018,-2.3403,-2.3138,-2.3108,-2.3095,-2.3095,-2.3095,-2.3095,-2.3095,-2.3095,-2.3095,-2.3095,-2.3095,-2.3095,-2.3095,-2.3095,-2.3095,-2.3095,-2.3095,-2.3095,-2.3095,-2.3095,-2.3215,-2.3155,-2.3095,-2.3095,-2.3095,-3.5086,-3.4841,-3.4583,-3.388,-3.2971,-3.3081,-3.2781,-3.2138,-3.169,-3.1496,-3.1496,-3.1496,-3.1496,-3.1496,-3.1496,-3.1496,-3.1496,-3.1496,-3.1496,-3.1496,-3.1496,-3.1496,-3.1496,-3.1496,-3.1496,-3.1496,-3.1496,-3.1496,-3.1496,-3.1496,-3.1496,-3.1496,-3.1496,-3.1467,-3.1042,-3.0192,-2.9284,-2.8358,-2.7426,-2.6664,-2.6395,-2.6158,-2.598,-2.6068,-2.5908,-2.559,-2.5439,-2.5453,-2.5536,-2.5646,-2.5618,-2.5591,-2.5453,-2.5231,-2.4992,-2.4866,-2.4696,-2.4352,-2.5203,-2.5701,-2.6176,-2.6295,-2.6162,-2.6027,-2.5864,-2.5783,-2.5563,-2.566,-2.6204,-2.642,-2.6688,-2.7328,-2.7729,-2.7769,-2.8013,-2.826,-2.8553,-2.8217,-2.8196,-2.8306,-2.8266,-2.7669,-2.7216,-2.7655,-2.7854,-2.7243,-2.6603,-2.5757,-2.4858,-2.4129,-2.3543,-2.3398,-2.3241,-2.3155,-2.3155,-2.3095,-2.3095,-2.3095,-2.3095,-2.3095,-2.3095,-2.3095,-2.3095,-2.3095,-2.3125,-2.3125,-2.3095,-2.3095,-2.3245,-2.3352,-2.3471,-2.3352,-2.3155,-2.3215,-2.3335,-3.5006,-3.5406,-3.4823,-3.4102,-3.3465,-3.2906,-3.224,-3.154,-3.1525,-3.1496,-3.1496,-3.1496,-3.1496,-3.1496,-3.1496,-3.1496,-3.1496,-3.1496,-3.1496,-3.1496,-3.1496,-3.1496,-3.1496,-3.1496,-3.1496,-3.1496,-3.1496,-3.1496,-3.1496,-3.1496,-3.1496,-3.1496,-3.1496,-3.1496,-3.1204,-3.0778,-3.0044,-2.9296,-2.8736,-2.8107,-2.7799,-2.7452,-2.7336,-2.7229,-2.6905,-2.6469,-2.6174,-2.5921,-2.6109,-2.6108,-2.5973,-2.6108,-2.6054,-2.5824,-2.5563,-2.537,-2.5315,-2.5864,-2.6122,-2.6443,-2.6852,-2.7111,-2.7316,-2.71,-2.6774,-2.6551,-2.6422,-2.64,-2.6728,-2.678,-2.6939,-2.7561,-2.8143,-2.8338,-2.8607,-2.8996,-2.9445,-2.9501,-2.9533,-2.9597,-2.9644,-2.9289,-2.8751,-2.8952,-2.9258,-2.8971,-2.8297,-2.7454,-2.646,-2.5128,-2.4524,-2.3961,-2.3731,-2.3318,-2.3245,-2.3305,-2.3095,-2.3095,-2.3095,-2.3095,-2.3095,-2.3125,-2.3095,-2.3125,-2.3155,-2.3245,-2.3454,-2.3501,-2.3501,-2.3679,-2.4076,-2.3842,-2.3708,-2.3738,-2.3842,-3.5134,-3.488,-3.4662,-3.4175,-3.3572,-3.3376,-3.2616,-3.1597,-3.1496,-3.1496,-3.1496,-3.1496,-3.1553,-3.1496,-3.1496,-3.1496,-3.1496,-3.1496,-3.1496,-3.1496,-3.1496,-3.1496,-3.1496,-3.1496,-3.1496,-3.1496,-3.1496,-3.1496,-3.1496,-3.1496,-3.1496,-3.1496,-3.1496,-3.1496,-3.1409,-3.1248,-3.0675,-3.0219,-2.9759,-2.9497,-2.9224,-2.8939,-2.8843,-2.8811,-2.8154,-2.7719,-2.7428,-2.696,-2.7078,-2.7019,-2.7045,-2.7137,-2.7137,-2.6575,-2.6095,-2.5618,-2.6162,-2.6916,-2.6695,-2.6997,-2.7372,-2.7524,-2.7585,-2.7534,-2.7331,-2.7281,-2.7324,-2.7354,-2.7576,-2.7786,-2.8057,-2.85,-2.8903,-2.9101,-2.934,-2.9609,-3.0028,-3.0268,-3.0342,-3.0567,-3.0627,-3.0421,-2.9964,-3.0185,-3.045,-3.0406,-3.0013,-2.9131,-2.7982,-2.6605,-2.5507,-2.492,-2.4363,-2.3985,-2.3708,-2.3679,-2.3335,-2.3095,-2.3215,-2.3275,-2.3245,-2.3245,-2.3155,-2.3335,-2.3695,-2.3872,-2.3972,-2.4047,-2.4208,-2.461,-2.4951,-2.4567,-2.4279,-2.4352,-2.4525,-3.5362,-3.4988,-3.4695,-3.4211,-3.3659,-3.3582,-3.305,-3.2407,-3.2339,-3.2228,-3.1966,-3.1951,-3.1768,-3.1496,-3.1496,-3.1496,-3.1496,-3.1496,-3.1496,-3.1496,-3.1496,-3.1496,-3.1496,-3.1496,-3.1496,-3.1496,-3.1496,-3.1496,-3.1496,-3.1496,-3.1496,-3.1496,-3.1496,-3.1496,-3.1467,-3.1409,-3.1263,-3.094,-3.0748,-3.0763,-3.0558,-3.0294,-3.0466,-3.0218,-2.9445,-2.8996,-2.8562,-2.7964,-2.766,-2.76,-2.7585,-2.7585,-2.756,-2.7126,-2.6878,-2.6534,-2.6916,-2.724,-2.7152,-2.7306,-2.7524,-2.76,-2.763,-2.7754,-2.7934,-2.7995,-2.8159,-2.8312,-2.8722,-2.9074,-2.9355,-2.9621,-2.9786,-2.9936,-3.0073,-3.0238,-3.0552,-3.0838,-3.1092,-3.1346,-3.1331,-3.1167,-3.1183,-3.1421,-3.1466,-3.117,-3.0964,-3.0613,-2.9361,-2.7868,-2.6721,-2.5901,-2.5261,-2.4738,-2.4452,-2.4163,-2.3959,-2.3767,-2.3708,-2.3708,-2.356,-2.3679,-2.3855,-2.4134,-2.4467,-2.4595,-2.4738,-2.4951,-2.5134,-2.5508,-2.5728,-2.5591,-2.5287,-2.5091,-2.5342,-3.56,-3.5515,-3.4941,-3.4406,-3.3811,-3.3853,-3.3786,-3.3761,-3.3735,-3.3339,-3.2788,-3.2652,-3.2299,-3.1853,-3.1739,-3.1611,-3.1553,-3.1496,-3.1496,-3.1496,-3.1496,-3.1496,-3.1496,-3.1496,-3.1496,-3.1496,-3.1496,-3.1496,-3.1496,-3.1496,-3.1496,-3.1496,-3.1496,-3.1496,-3.1496,-3.1496,-3.1409,-3.1351,-3.1278,-3.1307,-3.1365,-3.1318,-3.1197,-3.0614,-2.9983,-2.9412,-2.8742,-2.8169,-2.7645,-2.7615,-2.7585,-2.7585,-2.7575,-2.7549,-2.7458,-2.7458,-2.7524,-2.7484,-2.7458,-2.7534,-2.7694,-2.772,-2.7705,-2.8113,-2.8427,-2.8412,-2.8517,-2.9101,-2.952,-2.9849,-3.0118,-3.0268,-3.0402,-3.0537,-3.0687,-3.0851,-3.1032,-3.1227,-3.1301,-3.1496,-3.1466,-3.1346,-3.1361,-3.1496,-3.1496,-3.1481,-3.1451,-3.1318,-3.0551,-2.9038,-2.8065,-2.6976,-2.6106,-2.5495,-2.5091,-2.4866,-2.4709,-2.4538,-2.4366,-2.4366,-2.4366,-2.4481,-2.4624,-2.4866,-2.5091,-2.5342,-2.5508,-2.581,-2.6013,-2.6081,-2.6295,-2.6522,-2.6363,-2.6027,-2.6135,-3.5616,-3.56,-3.5424,-3.5247,-3.5098,-3.5098,-3.5075,-3.5115,-3.5115,-3.4423,-3.3521,-3.3313,-3.2933,-3.2327,-3.2244,-3.2035,-3.1553,-3.1496,-3.1496,-3.1496,-3.1496,-3.1496,-3.1496,-3.1496,-3.1496,-3.1496,-3.1496,-3.1496,-3.1496,-3.1496,-3.1496,-3.1496,-3.1496,-3.1496,-3.1496,-3.1496,-3.1496,-3.1496,-3.1496,-3.1496,-3.1496,-3.1496,-3.1331,-3.1032,-3.0612,-2.9953,-2.931,-2.8727,-2.8124,-2.772,-2.7615,-2.7585,-2.7585,-2.7615,-2.7615,-2.76,-2.775,-2.7794,-2.7809,-2.7869,-2.8019,-2.8248,-2.8427,-2.8786,-2.8936,-2.8742,-2.8981,-2.9684,-3.0238,-3.0552,-3.0763,-3.0868,-3.0957,-3.1092,-3.1212,-3.1361,-3.1496,-3.1496,-3.1496,-3.1496,-3.1496,-3.1496,-3.1496,-3.1496,-3.1496,-3.1496,-3.1496,-3.1347,-3.1004,-3.0004,-2.9324,-2.8254,-2.6931,-2.6261,-2.5865,-2.5605,-2.5481,-2.5203,-2.4951,-2.5007,-2.5133,-2.5342,-2.5563,-2.5536,-2.5673,-2.6,-2.6416,-2.6837,-2.6982,-2.6811,-2.6837,-2.7008,-2.7137,-2.6916,-2.7086,-3.5616,-3.5616,-3.5616,-3.5616,-3.5616,-3.5616,-3.5616,-3.5616,-3.56,-3.5184,-3.4496,-3.4137,-3.3547,-3.2749,-3.2602,-3.2231,-3.1625,-3.1496,-3.1496,-3.1496,-3.1496,-3.1496,-3.1496,-3.1496,-3.1496,-3.1496,-3.1496,-3.1496,-3.1496,-3.1496,-3.1496,-3.1496,-3.1496,-3.1496,-3.1496,-3.1496,-3.1496,-3.1496,-3.1496,-3.1496,-3.1496,-3.1496,-3.1496,-3.1301,-3.0896,-3.0328,-2.9968,-2.94,-2.8948,-2.8603,-2.8588,-2.8573,-2.8603,-2.8603,-2.8558,-2.8558,-2.8573,-2.8483,-2.8453,-2.8468,-2.8588,-2.8891,-2.9041,-2.9367,-2.9819,-2.9684,-2.9699,-3.0342,-3.0778,-3.1122,-3.1167,-3.1256,-3.1271,-3.1346,-3.1376,-3.1451,-3.1496,-3.1496,-3.1496,-3.1496,-3.1496,-3.1496,-3.1496,-3.1496,-3.1496,-3.1496,-3.1496,-3.1496,-3.1137,-3.0687,-3.0088,-2.9331,-2.7895,-2.7132,-2.6826,-2.6534,-2.6322,-2.6,-2.5563,-2.5728,-2.5933,-2.6242,-2.6455,-2.6428,-2.6508,-2.6811,-2.7214,-2.7408,-2.7484,-2.7291,-2.7367,-2.7509,-2.7585,-2.7585,-2.7534,-3.5616,-3.5616,-3.5616,-3.5616,-3.5616,-3.5616,-3.5616,-3.5616,-3.56,-3.56,-3.543,-3.4918,-3.3962,-3.3209,-3.268,-3.2188,-3.1796,-3.1582,-3.1524,-3.1496,-3.1496,-3.1496,-3.1496,-3.1496,-3.1496,-3.1496,-3.1496,-3.1496,-3.1496,-3.1496,-3.1496,-3.1496,-3.1496,-3.1496,-3.1496,-3.1496,-3.1496,-3.1496,-3.1496,-3.1496,-3.1496,-3.1496,-3.1496,-3.1271,-3.1001,-3.0599,-3.0357,-3.0088,-2.9729,-2.9517,-2.9382,-2.9352,-2.9337,-2.9292,-2.9352,-2.9322,-2.9292,-2.9337,-2.9412,-2.9352,-2.9517,-2.9681,-2.9711,-2.9966,-3.0432,-3.0612,-3.0627,-3.0793,-3.1256,-3.1436,-3.1481,-3.1496,-3.1496,-3.1496,-3.1496,-3.1496,-3.1496,-3.1496,-3.1496,-3.1496,-3.1496,-3.1496,-3.1496,-3.1496,-3.1496,-3.1496,-3.1496,-3.1496,-3.1331,-3.0776,-3.0193,-2.9517,-2.8479,-2.7917,-2.7435,-2.724,-2.689,-2.6602,-2.6256,-2.6484,-2.6709,-2.6878,-2.7086,-2.7291,-2.7458,-2.7408,-2.7433,-2.7534,-2.7585,-2.7585,-2.7585,-2.7585,-2.7585,-2.7585,-2.7585,-3.5616,-3.5616,-3.5616,-3.5616,-3.5616,-3.5616,-3.5616,-3.5616,-3.5616,-3.5616,-3.5577,-3.5453,-3.4918,-3.4186,-3.3608,-3.2971,-3.2216,-3.1824,-3.1524,-3.1496,-3.1496,-3.1496,-3.1496,-3.1496,-3.1496,-3.1496,-3.1496,-3.1496,-3.1496,-3.1496,-3.1496,-3.1496,-3.1496,-3.1496,-3.1496,-3.1496,-3.1496,-3.1496,-3.1496,-3.1496,-3.1496,-3.1496,-3.1496,-3.1421,-3.1391,-3.0957,-3.0642,-3.0417,-3.0028,-2.9744,-2.9684,-2.9744,-2.9804,-2.9834,-2.9849,-2.9924,-2.9894,-2.9864,-2.9909,-2.9909,-3.0028,-3.0328,-3.0387,-3.0582,-3.0956,-3.1167,-3.1182,-3.1182,-3.1466,-3.1466,-3.1496,-3.1496,-3.1496,-3.1496,-3.1496,-3.1496,-3.1496,-3.1496,-3.1496,-3.1496,-3.1496,-3.1496,-3.1496,-3.1496,-3.1496,-3.1496,-3.1496,-3.1496,-3.1466,-3.0911,-3.0342,-2.9639,-2.8948,-2.7812,-2.6983,-2.7437,-2.728,-2.7023,-2.6878,-2.7023,-2.7203,-2.7382,-2.7585,-2.7585,-2.7585,-2.7534,-2.7585,-2.7585,-2.7585,-2.7585,-2.7585,-2.7585,-2.7585,-2.7585,-2.7585]},{"header":{"parameterUnit":"m.s-1","parameterCategory":1,"la1":31.0,"la2":29.5877,"lo1":-88.7671,"lo2":-86.6584,"dy":0.0162,"dx":0.0185,"nx":115,"ny":88,"refTime":"2026-04-26T12:00:00:Z","depth":0,"parameterNumber":3,"parameterNumberName":"V-component_of_WINDS"},"data":[0.0,0.0,0.0,0.0,0.0,0.0,0.0,0.0,0.0,0.0,0.0,0.0,0.0,0.0,0.0,0.0,0.0,0.0,0.0,0.0,0.0,0.0,0.0,0.0,0.0,0.0,0.0,0.0,0.0,0.0,0.0,0.0,0.0,0.0,0.0,0.0,0.0,0.0,0.0,0.0,0.0,0.0,0.0,0.0,0.0,0.0,0.0,0.0,0.0,0.0,0.0,0.0,0.0,0.0,0.0,0.0,0.0,0.0,0.0,0.0,0.0,0.0,0.0,0.0,0.0,0.0,0.0,0.0,0.0,0.0,0.0,0.0,0.0,0.0,0.0,0.0,0.0,0.0,0.0,0.0,0.0,0.0,0.0,0.0,0.0,0.0,0.0,0.0,0.0,0.0,0.0,0.0,0.0,0.0,0.0,0.0,0.0,0.0,0.0,0.0,0.0,0.0,0.0,0.0,0.0,0.0,0.0,0.0,0.0,0.0,0.0,0.0,0.0,0.0,0.0,0.0,0.0,0.0,0.0,0.0,0.0,0.0,0.0,0.0,0.0,0.0,0.0,0.0,0.0,0.0,0.0,0.0,0.0,0.0,0.0,0.0,0.0,0.0,0.0,0.0,0.0,0.0,0.0,0.0,0.0,0.0,0.0,0.0,0.0,0.0,0.0,0.0,0.0,0.0,0.0,0.0,0.0,0.0,0.0,0.0,0.0,0.0,0.0,0.0,0.0,0.0,0.0,0.0,0.0,0.0,0.0,0.0,0.0,0.0,0.0,0.0,0.0,0.0,0.0,0.0,0.0,0.0,0.0,0.0,0.0,0.0,0.0,0.0,0.0,0.0,0.0,0.0,0.0,0.0,0.0,0.0,0.0,0.0,0.0,0.0,0.0,0.0,0.0,0.0,0.0,0.0,0.0,0.0,0.0,0.0,0.0,0.0,0.0,0.0,0.0,0.0,0.0,0.0,0.0,0.0,0.0,0.0,0.0,0.0,0.0,0.0,0.0,0.0,0.0,0.0,0.0,0.0,0.0,0.0,0.0,0.0,0.0,0.0,0.0,0.0,0.0,0.0,0.0,0.0,0.0,0.0,0.0,0.0,0.0,0.0,0.0,0.0,0.0,0.0,0.0,0.0,0.0,0.0,0.0,0.0,0.0,0.0,0.0,0.0,0.0,0.0,0.0,0.0,0.0,0.0,0.0,0.0,0.0,0.0,0.0,0.0,0.0,0.0,0.0,0.0,0.0,0.0,0.0,0.0,0.0,0.0,0.0,0.0,0.0,0.0,0.0,0.0,0.0,0.0,0.0,0.0,0.0,0.0,0.0,0.0,0.0,0.0,0.0,0.0,0.0,0.0,0.0,0.0,0.0,0.0,0.0,0.0,0.0,0.0,0.0,0.0,0.0,0.0,0.0,0.0,0.0,0.0,0.0,0.0,0.0,0.0,0.0,0.0,0.0,0.0,0.0,0.0,0.0,0.0,0.0,0.0,0.0,0.0,0.0,0.0,0.0,0.0,0.0,0.0,0.0,0.0,0.0,0.0,0.0,0.0,0.0,0.0,0.0,0.0,0.0,0.0,0.0,0.0,0.0,0.0,0.0,0.0,0.0,0.0,0.0,0.0,0.0,0.0,0.0,0.0,0.0,0.0,0.0,0.0,0.0,0.0,0.0,0.0,0.0,0.0,0.0,0.0,0.0,0.0,0.0,0.0,0.0,0.0,0.0,0.0,0.0,0.0,0.0,0.0,0.0,0.0,0.0,0.0,0.0,0.0,0.0,0.0,0.0,0.0,0.0,0.0,0.0,0.0,0.0,0.0,0.0,0.0,0.0,0.0,0.0,0.0,0.0,0.0,0.0,0.0,0.0,0.0,0.0,0.0,0.0,0.0,0.0,0.0,0.0,0.0,0.0,0.0,0.0,0.0,0.0,0.0,0.0,0.0,0.0,0.0,0.0,0.0,0.0,0.0,0.0,0.0,0.0,0.0,0.0,0.0,0.0,0.0,0.0,0.0,0.0,0.0,0.0,0.0,0.0,0.0,0.0,0.0,0.0,0.0,0.0,0.0,0.0,0.0,0.0,0.0,0.0,0.0,0.0,0.0,0.0,0.0,0.0,0.0,0.0,0.0,0.0,0.0,0.0,0.0,0.0,0.0,0.0,0.0,0.0,0.0,0.0,0.0,0.0,0.0,0.0,0.0,0.0,0.0,0.0,0.0,0.0,0.0,0.0,0.0,0.0,0.0,0.0,0.0,0.0,0.0,0.0,0.0,0.0,0.0,0.0,0.0,0.0,0.0,0.0,0.0,0.0,0.0,0.0,0.0,0.0,0.0,0.0,0.0,0.0,0.0,0.0,0.0,0.0,0.0,0.0,0.0,0.0,0.0,0.0,0.0,0.0,0.0,0.0,0.0,0.0,0.0,0.0,0.0,0.0,0.0,0.0,0.0,0.0,0.0,0.0,0.0,0.0,0.0,0.0,0.0,0.0,0.0,0.0,0.0,0.0,0.0,0.0,0.0,0.0,0.0,0.0,0.0,0.0,0.0,0.0,0.0,0.0,0.0,0.0,0.0,0.0,0.0,0.0,0.0,0.0,0.0,0.0,0.0,0.0,0.0,0.0,0.0,0.0,0.0,0.0,0.0,0.0,0.0,0.0,0.0,0.0,0.0,0.0,0.0,0.0,0.0,0.0,0.0,0.0,0.0,0.0,0.0,0.0,0.0,0.0,0.0,0.0,0.0,0.0,0.0,0.0,0.0,0.0,0.0,0.0,0.0,0.0,0.0,0.0,0.0,0.0,0.0,0.0,0.0,0.0,0.0,0.0,0.0,0.0,0.0,0.0,0.0,0.0,0.0,0.0,0.0,0.0,0.0,0.0,0.0,0.0,0.0,0.0,0.0,0.0,0.0,0.0,0.0,0.0,0.0,0.0,0.0,0.0,0.0,0.0,0.0,0.0,0.0,0.0,0.0,0.0,0.0,0.0,0.0,0.0,0.0,0.0,0.0,0.0,0.0,0.0,0.0,0.0,0.0,0.0,0.0,0.0,0.0,0.0,0.0,0.0,0.0,0.0,0.0,0.0,0.0,0.0,0.0,0.0,0.0,0.0,0.0,0.0,0.0,0.0,0.0,0.0,0.0,0.0,0.0,0.0,0.0,0.0,0.0,0.0,0.0,0.0,0.0,0.0,0.0,0.0,0.0,0.0,0.0,0.0,0.0,0.0,0.0,0.0,0.0,0.0,0.0,0.0,0.0,0.0,0.0,0.0,0.0,0.0,0.0,0.0,0.0,0.0,0.0,0.0,0.0,0.0,0.0,0.0,0.0,0.0,0.0,0.0,0.0,0.0,0.0,0.0,0.0,0.0,0.0,0.0,0.0,0.0,0.0,0.0,0.0,0.0,0.0,0.0,0.0,0.0,0.0,0.0,0.0,0.0,0.0,0.0,0.0,0.0,0.0,0.0,0.0,0.0,0.0,0.0,0.0,0.0,0.0,0.0,0.0,0.0,0.0,0.0,0.0,0.0,0.0,0.0,0.0,0.0,0.0,0.0,0.0,0.0,0.0,0.0,0.0,0.0,0.0,0.0,0.0,0.0,0.0,0.0,0.0,0.0,0.0,0.0,0.0,0.0,0.0,0.0,0.0,0.0,0.0,0.0,0.0,0.0,0.0,0.0,0.0,0.0,0.0,0.0,0.0,0.0,0.0,0.0,0.0,0.0,0.0,0.0,0.0,0.0,0.0,0.0,0.0,0.0,0.0,0.0,0.0,0.0,0.0,0.0,0.0,0.0,0.0,0.0,0.0,0.0,0.0,0.0,0.0,0.0,0.0,0.0,0.0,0.0,0.0,0.0,0.0,0.0,0.0,0.0,0.0,0.0,0.0,0.0,0.0,0.0,0.0,0.0,0.0,0.0,0.0,0.0,0.0,0.0,0.0,0.0,0.0,0.0,0.0,0.0,0.0,0.0,0.0,0.0,0.0,0.0,0.0,0.0,0.0,0.0,0.0,0.0,0.0,0.0,0.0,0.0,0.0,0.0,0.0,0.0,0.0,0.0,0.0,0.0,0.0,0.0,0.0,0.0,0.0,0.0,0.0,0.0,0.0,0.0,0.0,0.0,0.0,0.0,0.0,0.0,0.0,0.0,0.0,0.0,0.0,0.0,0.0,0.0,0.0,0.0,0.0,0.0,0.0,0.0,0.0,0.0,0.0,0.0,0.0,0.0,0.0,0.0,0.0,0.0,0.0,0.0,0.0,0.0,0.0,0.0,0.0,0.0,0.0,-1.0497,0.0,0.0,0.0,0.0,0.0,0.0,0.0,0.0,0.0,0.0,0.0,0.0,0.0,0.0,0.0,0.0,0.0,0.0,0.0,0.0,0.0,0.0,0.0,0.0,0.0,0.0,0.0,0.0,0.0,0.0,0.0,0.0,0.0,0.0,0.0,0.0,0.0,0.0,0.0,0.0,0.0,0.0,0.0,0.0,0.0,0.0,0.0,0.0,0.0,0.0,0.0,0.0,0.0,0.0,0.0,0.0,0.0,0.0,0.0,0.0,0.0,0.0,0.0,0.0,0.0,0.0,0.0,0.0,0.0,0.0,0.0,0.0,0.0,0.0,0.0,0.0,0.0,0.0,0.0,0.0,0.0,0.0,0.0,0.0,0.0,0.0,0.0,0.0,0.0,0.0,0.0,0.0,0.0,0.0,0.0,0.0,0.0,0.0,0.0,0.0,0.0,0.0,0.0,0.0,0.0,0.0,0.0,0.0,0.0,0.0,-1.1269,-1.1349,-1.0808,-1.0572,-1.0694,0.0,0.0,0.0,0.0,0.0,0.0,0.0,0.0,0.0,0.0,0.0,0.0,0.0,0.0,0.0,0.0,0.0,0.0,0.0,0.0,0.0,0.0,0.0,0.0,0.0,0.0,0.0,0.0,0.0,0.0,0.0,0.0,0.0,0.0,0.0,0.0,0.0,0.0,0.0,0.0,0.0,0.0,0.0,0.0,0.0,0.0,0.0,0.0,0.0,0.0,0.0,0.0,0.0,0.0,0.0,0.0,0.0,0.0,0.0,0.0,0.0,0.0,0.0,0.0,0.0,0.0,0.0,0.0,0.0,0.0,0.0,0.0,0.0,0.0,0.0,0.0,0.0,0.0,0.0,0.0,0.0,0.0,0.0,0.0,0.0,0.0,0.0,0.0,0.0,0.0,0.0,0.0,0.0,0.0,0.0,0.0,0.0,0.0,0.0,0.0,0.0,0.0,0.0,0.0,0.0,0.0,0.0,0.0,0.0,0.0,0.0,0.0,-1.1387,-1.1185,-1.157,0.0,0.0,0.0,0.0,0.0,0.0,0.0,0.0,0.0,0.0,0.0,0.0,0.0,0.0,0.0,0.0,0.0,0.0,0.0,0.0,0.0,0.0,0.0,0.0,0.0,0.0,0.0,0.0,0.0,0.0,0.0,0.0,0.0,0.0,0.0,0.0,0.0,0.0,0.0,0.0,0.0,0.0,0.0,0.0,0.0,0.0,0.0,0.0,0.0,0.0,0.0,0.0,0.0,0.0,0.0,0.0,0.0,0.0,0.0,0.0,0.0,0.0,0.0,0.0,0.0,0.0,0.0,0.0,0.0,0.0,0.0,0.0,0.0,0.0,0.0,0.0,0.0,0.0,0.0,0.0,0.0,0.0,0.0,0.0,0.0,0.0,0.0,0.0,0.0,0.0,0.0,0.0,0.0,0.0,0.0,0.0,0.0,0.0,0.0,0.0,0.0,0.0,0.0,0.0,0.0,0.0,0.0,0.0,0.0,0.0,-1.1246,-1.2318,-1.2732,0.0,-1.3514,0.0,0.0,0.0,0.0,0.0,0.0,0.0,0.0,0.0,0.0,0.0,0.0,0.0,0.0,0.0,0.0,0.0,0.0,0.0,0.0,0.0,0.0,0.0,0.0,0.0,0.0,0.0,0.0,0.0,0.0,0.0,0.0,0.0,0.0,0.0,0.0,0.0,0.0,0.0,0.0,0.0,0.0,0.0,0.0,0.0,0.0,0.0,0.0,0.0,0.0,0.0,0.0,0.0,0.0,0.0,0.0,0.0,0.0,0.0,0.0,0.0,0.0,0.0,0.0,0.0,0.0,0.0,0.0,0.0,0.0,0.0,0.0,0.0,0.0,0.0,0.0,0.0,0.0,0.0,0.0,0.0,0.0,0.0,0.0,0.0,0.0,0.0,0.0,0.0,0.0,0.0,0.0,0.0,0.0,0.0,0.0,0.0,0.0,0.0,0.0,0.0,0.0,0.0,0.0,0.0,0.0,0.0,0.0,0.0,0.0,-1.1529,-1.2142,-1.2571,-1.3057,0.0,0.0,0.0,0.0,0.0,0.0,0.0,0.0,0.0,0.0,0.0,0.0,0.0,0.0,0.0,0.0,0.0,0.0,0.0,0.0,0.0,0.0,0.0,0.0,0.0,0.0,0.0,0.0,0.0,0.0,0.0,0.0,0.0,0.0,0.0,0.0,0.0,0.0,0.0,0.0,0.0,0.0,0.0,0.0,0.0,0.0,0.0,0.0,0.0,0.0,0.0,0.0,0.0,0.0,0.0,0.0,0.0,0.0,0.0,0.0,0.0,0.0,0.0,0.0,0.0,0.0,0.0,0.0,0.0,0.0,0.0,0.0,0.0,0.0,0.0,0.0,0.0,0.0,0.0,0.0,0.0,0.0,0.0,0.0,0.0,0.0,0.0,0.0,0.0,0.0,0.0,0.0,0.0,0.0,0.0,0.0,0.0,0.0,0.0,0.0,0.0,0.0,0.0,0.0,0.0,0.0,0.0,0.0,0.0,0.0,-1.1659,-1.1942,-1.2651,-1.2842,-1.31,-1.3443,0.0,0.0,0.0,0.0,0.0,0.0,0.0,0.0,0.0,0.0,0.0,0.0,0.0,0.0,0.0,0.0,0.0,0.0,0.0,0.0,0.0,0.0,0.0,0.0,0.0,0.0,0.0,0.0,0.0,0.0,0.0,0.0,0.0,0.0,0.0,0.0,0.0,0.0,0.0,0.0,0.0,0.0,0.0,0.0,0.0,0.0,0.0,0.0,0.0,0.0,0.0,0.0,0.0,0.0,0.0,0.0,0.0,0.0,0.0,0.0,0.0,0.0,0.0,0.0,0.0,0.0,0.0,0.0,0.0,0.0,0.0,0.0,0.0,0.0,0.0,0.0,0.0,0.0,0.0,0.0,0.0,0.0,0.0,0.0,0.0,0.0,0.0,0.0,0.0,0.0,0.0,0.0,0.0,0.0,0.0,0.0,0.0,0.0,0.0,0.0,0.0,0.0,0.0,0.0,0.0,0.0,0.0,0.0,0.0,-1.236,-1.2498,-1.4282,-1.4084,-1.3743,0.0,0.0,0.0,0.0,0.0,0.0,0.0,0.0,0.0,0.0,0.0,0.0,0.0,0.0,0.0,0.0,0.0,0.0,0.0,0.0,0.0,0.0,0.0,0.0,0.0,0.0,0.0,0.0,0.0,0.0,0.0,0.0,0.0,0.0,0.0,0.0,0.0,0.0,0.0,0.0,0.0,0.0,0.0,0.0,0.0,0.0,0.0,0.0,0.0,0.0,0.0,0.0,0.0,0.0,0.0,0.0,0.0,0.0,0.0,0.0,0.0,0.0,0.0,0.0,0.0,0.0,0.0,0.0,0.0,0.0,0.0,0.0,0.0,0.0,0.0,0.0,0.0,0.0,0.0,0.0,0.0,0.0,0.0,0.0,0.0,0.0,0.0,0.0,0.0,0.0,0.0,0.0,0.0,0.0,0.0,0.0,0.0,0.0,0.0,0.0,0.0,0.0,0.0,0.0,0.0,0.0,0.0,0.0,0.0,-1.164,-1.162,-1.2602,-1.46,-1.3441,-1.3076,0.0,0.0,0.0,0.0,0.0,0.0,0.0,0.0,0.0,0.0,0.0,0.0,0.0,0.0,0.0,0.0,0.0,0.0,0.0,0.0,0.0,0.0,0.0,0.0,0.0,0.0,0.0,0.0,0.0,0.0,0.0,0.0,0.0,0.0,0.0,0.0,0.0,0.0,0.0,0.0,0.0,0.0,0.0,0.0,0.0,0.0,0.0,0.0,0.0,0.0,0.0,0.0,0.0,0.0,0.0,0.0,0.0,0.0,0.0,0.0,0.0,0.0,0.0,0.0,0.0,0.0,0.0,0.0,0.0,0.0,0.0,0.0,0.0,0.0,0.0,0.0,0.0,0.0,0.0,0.0,0.0,0.0,0.0,0.0,0.0,0.0,0.0,0.0,0.0,0.0,0.0,0.0,0.0,0.0,0.0,0.0,0.0,0.0,0.0,0.0,0.0,0.0,0.0,0.0,0.0,0.0,0.0,0.0,0.0,-1.1299,0.0,-1.3293,0.0,-1.3428,-1.295,0.0,0.0,0.0,0.0,0.0,0.0,0.0,0.0,0.0,0.0,0.0,0.0,0.0,0.0,0.0,0.0,0.0,0.0,0.0,0.0,0.0,0.0,0.0,0.0,0.0,0.0,0.0,0.0,0.0,0.0,0.0,0.0,0.0,0.0,0.0,0.0,0.0,0.0,0.0,0.0,0.0,0.0,0.0,0.0,0.0,0.0,0.0,0.0,0.0,0.0,0.0,0.0,0.0,0.0,0.0,0.0,0.0,0.0,0.0,0.0,0.0,0.0,0.0,0.0,0.0,0.0,0.0,0.0,0.0,0.0,0.0,0.0,0.0,0.0,0.0,0.0,0.0,0.0,0.0,0.0,0.0,0.0,0.0,0.0,0.0,0.0,0.0,0.0,0.0,0.0,0.0,0.0,0.0,0.0,0.0,0.0,0.0,0.0,0.0,0.0,0.0,0.0,0.0,0.0,0.0,0.0,0.0,0.0,-1.0998,-1.3077,-1.4205,-1.4421,-1.3777,-1.4127,-1.3457,0.0,0.0,0.0,0.0,0.0,0.0,0.0,0.0,0.0,0.0,0.0,0.0,0.0,0.0,0.0,0.0,0.0,0.0,0.0,0.0,0.0,0.0,0.0,0.0,0.0,0.0,0.0,0.0,0.0,0.0,0.0,0.0,0.0,0.0,0.0,0.0,0.0,0.0,0.0,0.0,0.0,0.0,0.0,0.0,0.0,0.0,0.0,0.0,0.0,0.0,0.0,0.0,0.0,0.0,0.0,0.0,0.0,0.0,0.0,0.0,0.0,0.0,0.0,0.0,0.0,0.0,0.0,0.0,0.0,0.0,0.0,0.0,0.0,0.0,0.0,0.0,0.0,0.0,0.0,0.0,0.0,0.0,0.0,0.0,0.0,0.0,0.0,0.0,0.0,0.0,0.0,0.0,0.0,0.0,0.0,0.0,0.0,0.0,0.0,0.0,0.0,0.0,0.0,0.0,0.0,0.0,0.0,0.0,0.0,-1.2115,-1.3152,-1.417,-1.4976,-1.3581,-1.3112,0.0,0.0,0.0,0.0,0.0,0.0,0.0,0.0,0.0,0.0,0.0,0.0,0.0,0.0,0.0,0.0,0.0,0.0,0.0,0.0,0.0,0.0,0.0,0.0,0.0,0.0,0.0,0.0,0.0,0.0,0.0,0.0,0.0,0.0,0.0,0.0,0.0,0.0,0.0,0.0,0.0,0.0,0.0,0.0,0.0,0.0,0.0,0.0,0.0,0.0,0.0,0.0,0.0,0.0,0.0,0.0,0.0,0.0,0.0,0.0,0.0,0.0,0.0,0.0,0.0,0.0,0.0,0.0,0.0,0.0,0.0,0.0,0.0,0.0,0.0,0.0,0.0,0.0,0.0,0.0,0.0,0.0,0.0,0.0,0.0,0.0,0.0,0.0,0.0,0.0,0.0,0.0,0.0,0.0,0.0,0.0,0.0,0.0,0.0,0.0,0.0,0.0,0.0,0.0,0.0,0.0,0.0,0.0,0.0,-1.3174,-1.4172,-1.5129,-1.5973,-1.4373,-1.3885,-1.4658,0.0,0.0,0.0,0.0,0.0,0.0,0.0,0.0,0.0,0.0,0.0,0.0,0.0,0.0,0.0,0.0,0.0,0.0,0.0,0.0,0.0,0.0,0.0,0.0,0.0,0.0,0.0,0.0,0.0,0.0,0.0,0.0,0.0,0.0,0.0,0.0,0.0,0.0,0.0,0.0,0.0,0.0,0.0,0.0,0.0,0.0,0.0,0.0,0.0,0.0,0.0,0.0,0.0,0.0,0.0,0.0,0.0,0.0,0.0,0.0,0.0,0.0,0.0,0.0,0.0,0.0,0.0,0.0,0.0,0.0,0.0,0.0,0.0,0.0,0.0,0.0,0.0,0.0,0.0,0.0,0.0,0.0,0.0,0.0,0.0,0.0,0.0,0.0,0.0,0.0,0.0,0.0,0.0,0.0,0.0,0.0,0.0,0.0,0.0,0.0,0.0,0.0,0.0,0.0,0.0,0.0,0.0,0.0,-1.5779,-1.6847,-1.7142,-1.6661,-1.6196,-1.5493,0.0,0.0,0.0,0.0,0.0,0.0,0.0,0.0,0.0,0.0,0.0,0.0,0.0,0.0,0.0,0.0,0.0,0.0,0.0,0.0,0.0,0.0,0.0,0.0,0.0,0.0,0.0,0.0,0.0,0.0,0.0,0.0,0.0,0.0,0.0,0.0,0.0,0.0,0.0,0.0,0.0,0.0,0.0,0.0,0.0,0.0,0.0,0.0,0.0,0.0,0.0,0.0,0.0,0.0,0.0,0.0,0.0,0.0,0.0,0.0,0.0,0.0,0.0,0.0,0.0,0.0,0.0,0.0,0.0,0.0,0.0,0.0,0.0,0.0,0.0,0.0,0.0,0.0,0.0,0.0,0.0,0.0,0.0,0.0,0.0,0.0,0.0,0.0,0.0,0.0,0.0,0.0,0.0,0.0,0.0,0.0,0.0,0.0,0.0,0.0,0.0,0.0,0.0,0.0,0.0,0.0,0.0,0.0,0.0,-1.6837,-1.7983,-1.8478,-1.8245,-1.681,-1.6021,0.0,0.0,0.0,0.0,0.0,0.0,0.0,0.0,0.0,0.0,0.0,0.0,0.0,0.0,0.0,0.0,0.0,0.0,0.0,0.0,0.0,0.0,0.0,0.0,0.0,0.0,0.0,0.0,0.0,0.0,0.0,0.0,0.0,0.0,0.0,0.0,0.0,0.0,0.0,0.0,0.0,0.0,0.0,0.0,0.0,0.0,0.0,0.0,0.0,0.0,0.0,0.0,0.0,0.0,0.0,0.0,0.0,0.0,0.0,0.0,0.0,0.0,0.0,0.0,0.0,0.0,0.0,0.0,0.0,0.0,0.0,0.0,0.0,0.0,0.0,0.0,0.0,0.0,0.0,0.0,0.0,0.0,0.0,0.0,0.0,0.0,0.0,0.0,0.0,0.0,0.0,0.0,0.0,0.0,0.0,0.0,0.0,0.0,0.0,0.0,0.0,0.0,0.0,0.0,0.0,0.0,0.0,0.0,-1.5812,-1.7635,-1.88,-1.9349,-1.9277,-1.7927,-1.7171,0.0,0.0,0.0,0.0,0.0,0.0,0.0,0.0,0.0,0.0,0.0,0.0,0.0,0.0,0.0,0.0,0.0,0.0,0.0,0.0,0.0,0.0,0.0,0.0,0.0,0.0,0.0,0.0,0.0,0.0,0.0,0.0,0.0,0.0,0.0,0.0,0.0,0.0,0.0,0.0,0.0,0.0,0.0,0.0,0.0,0.0,0.0,0.0,0.0,0.0,0.0,0.0,0.0,0.0,0.0,0.0,0.0,0.0,0.0,0.0,0.0,0.0,0.0,0.0,0.0,0.0,0.0,0.0,0.0,0.0,0.0,0.0,0.0,0.0,0.0,0.0,0.0,0.0,0.0,0.0,0.0,0.0,0.0,0.0,0.0,0.0,0.0,0.0,0.0,0.0,0.0,0.0,0.0,0.0,0.0,0.0,0.0,0.0,0.0,0.0,0.0,0.0,0.0,0.0,0.0,0.0,0.0,0.0,-1.6183,-1.8259,-1.9409,-2.0015,-1.999,-1.9276,-1.8513,0.0,0.0,0.0,0.0,0.0,0.0,0.0,0.0,0.0,0.0,0.0,0.0,0.0,0.0,0.0,0.0,0.0,0.0,0.0,0.0,0.0,0.0,0.0,0.0,0.0,0.0,0.0,0.0,0.0,0.0,0.0,0.0,0.0,0.0,0.0,0.0,0.0,0.0,0.0,0.0,0.0,0.0,0.0,0.0,0.0,0.0,0.0,0.0,0.0,0.0,0.0,0.0,0.0,0.0,0.0,0.0,0.0,0.0,0.0,0.0,0.0,0.0,0.0,0.0,0.0,0.0,0.0,0.0,0.0,0.0,0.0,0.0,0.0,0.0,0.0,0.0,0.0,0.0,0.0,0.0,0.0,0.0,0.0,0.0,0.0,0.0,0.0,0.0,0.0,0.0,0.0,0.0,0.0,0.0,0.0,0.0,0.0,0.0,0.0,0.0,0.0,0.0,0.0,0.0,0.0,0.0,0.0,0.0,-1.7517,-1.8904,-2.0009,-2.0829,-2.1296,-2.0153,-1.8939,0.0,0.0,0.0,0.0,0.0,0.0,0.0,0.0,0.0,0.0,0.0,0.0,0.0,0.0,0.0,0.0,0.0,0.0,0.0,0.0,0.0,0.0,0.0,0.0,0.0,0.0,0.0,0.0,0.0,0.0,0.0,0.0,0.0,0.0,0.0,0.0,0.0,0.0,0.0,0.0,0.0,0.0,0.0,0.0,0.0,0.0,0.0,0.0,-0.8619,0.0,0.0,0.0,0.0,0.0,0.0,0.0,0.0,0.0,0.0,0.0,0.0,0.0,0.0,0.0,0.0,0.0,0.0,0.0,0.0,0.0,0.0,0.0,0.0,0.0,0.0,0.0,0.0,0.0,0.0,0.0,0.0,0.0,0.0,0.0,0.0,0.0,0.0,0.0,0.0,0.0,0.0,0.0,0.0,0.0,0.0,0.0,0.0,0.0,0.0,0.0,0.0,0.0,0.0,0.0,0.0,0.0,0.0,0.0,-1.8083,-1.9496,-2.0619,-2.1378,-2.1657,-2.1025,-1.9854,0.0,0.0,0.0,0.0,0.0,0.0,0.0,0.0,0.0,0.0,0.0,0.0,0.0,0.0,0.0,0.0,0.0,0.0,0.0,0.0,0.0,0.0,0.0,0.0,0.0,0.0,0.0,0.0,0.0,0.0,0.0,0.0,0.0,0.0,0.0,0.0,0.0,0.0,0.0,0.0,0.0,0.0,0.0,0.0,0.0,0.0,0.0,0.0,0.0,0.0,0.0,0.0,0.0,0.0,0.0,0.0,0.0,0.0,0.0,0.0,0.0,0.0,0.0,0.0,0.0,0.0,0.0,0.0,0.0,0.0,0.0,0.0,0.0,0.0,0.0,0.0,0.0,0.0,0.0,0.0,0.0,0.0,0.0,0.0,0.0,0.0,0.0,0.0,0.0,0.0,0.0,0.0,0.0,0.0,0.0,0.0,0.0,0.0,0.0,0.0,0.0,0.0,0.0,0.0,0.0,0.0,0.0,-1.6477,-1.8351,-2.0214,-2.1219,-2.1801,-2.1968,-2.1804,-2.0797,-1.8912,0.0,0.0,0.0,0.0,0.0,0.0,0.0,0.0,0.0,0.0,0.0,0.0,0.0,0.0,0.0,0.0,0.0,0.0,0.0,0.0,0.0,0.0,0.0,0.0,0.0,0.0,0.0,0.0,0.0,0.0,0.0,0.0,0.0,0.0,0.0,0.0,0.0,0.0,-0.9092,-1.0772,0.0,0.0,0.0,0.0,0.0,0.0,0.0,0.0,-0.9593,0.0,0.0,0.0,0.0,0.0,0.0,0.0,0.0,0.0,0.0,0.0,0.0,0.0,0.0,0.0,0.0,0.0,0.0,0.0,0.0,0.0,0.0,0.0,0.0,0.0,0.0,0.0,0.0,0.0,0.0,0.0,0.0,0.0,0.0,0.0,0.0,0.0,0.0,0.0,0.0,0.0,0.0,0.0,0.0,0.0,0.0,0.0,0.0,0.0,0.0,0.0,0.0,0.0,0.0,0.0,0.0,-1.739,-1.7424,-1.8767,-2.1497,-2.1662,-2.2215,-2.3206,-2.2267,-2.1006,-1.9573,0.0,0.0,0.0,0.0,0.0,0.0,0.0,0.0,0.0,0.0,0.0,0.0,0.0,0.0,0.0,0.0,0.0,0.0,0.0,0.0,0.0,0.0,0.0,0.0,0.0,0.0,0.0,0.0,0.0,0.0,0.0,0.0,0.0,0.0,0.0,0.0,0.0,0.0,0.0,-1.1741,-1.2441,0.0,0.0,0.0,0.0,0.0,0.0,0.0,0.0,-1.0069,0.0,0.0,0.0,0.0,0.0,0.0,0.0,0.0,0.0,0.0,0.0,0.0,0.0,0.0,0.0,0.0,0.0,0.0,0.0,0.0,0.0,0.0,0.0,0.0,0.0,0.0,0.0,0.0,0.0,0.0,0.0,0.0,0.0,0.0,0.0,0.0,0.0,0.0,0.0,0.0,0.0,0.0,0.0,0.0,0.0,0.0,0.0,0.0,0.0,0.0,0.0,0.0,0.0,0.0,0.0,-1.7042,-1.7887,-1.9413,-2.1713,-2.2098,-2.2665,-2.3543,-2.2024,-2.0722,0.0,0.0,0.0,0.0,0.0,0.0,0.0,0.0,0.0,0.0,0.0,0.0,0.0,0.0,0.0,0.0,0.0,0.0,0.0,0.0,0.0,0.0,0.0,0.0,0.0,0.0,0.0,0.0,0.0,0.0,0.0,0.0,0.0,0.0,0.0,0.0,0.0,0.0,0.0,0.0,-1.219,-1.2684,-1.237,0.0,0.0,0.0,0.0,0.0,0.0,-1.0793,-1.0583,0.0,0.0,0.0,0.0,0.0,0.0,0.0,0.0,0.0,0.0,0.0,0.0,0.0,0.0,0.0,0.0,0.0,0.0,0.0,0.0,0.0,0.0,0.0,0.0,0.0,0.0,0.0,0.0,0.0,0.0,0.0,0.0,0.0,0.0,0.0,0.0,0.0,0.0,0.0,0.0,0.0,0.0,0.0,0.0,0.0,0.0,0.0,0.0,0.0,0.0,0.0,0.0,0.0,0.0,0.0,-1.6958,-1.839,-2.008,-2.1978,-2.2498,-2.2929,-2.3364,-2.1784,-2.0468,0.0,0.0,0.0,0.0,0.0,0.0,0.0,0.0,0.0,0.0,0.0,0.0,0.0,0.0,0.0,0.0,0.0,0.0,0.0,0.0,0.0,0.0,0.0,0.0,0.0,0.0,0.0,0.0,0.0,0.0,0.0,0.0,0.0,0.0,0.0,0.0,0.0,0.0,0.0,0.0,0.0,-1.325,-1.2861,-1.2579,0.0,0.0,0.0,0.0,-1.2108,-1.176,0.0,0.0,0.0,0.0,0.0,0.0,0.0,0.0,0.0,0.0,0.0,0.0,0.0,0.0,0.0,0.0,0.0,0.0,0.0,0.0,0.0,0.0,0.0,0.0,0.0,0.0,0.0,0.0,0.0,0.0,0.0,0.0,0.0,0.0,0.0,0.0,0.0,0.0,0.0,0.0,0.0,0.0,0.0,0.0,0.0,0.0,0.0,0.0,0.0,0.0,0.0,0.0,0.0,0.0,0.0,0.0,-1.913,-1.9171,-2.0507,-2.3179,-2.2942,-2.2739,-2.2787,-2.1994,-2.0707,0.0,0.0,0.0,0.0,0.0,0.0,0.0,0.0,0.0,0.0,0.0,0.0,0.0,0.0,0.0,0.0,0.0,0.0,0.0,0.0,0.0,0.0,0.0,0.0,0.0,0.0,0.0,0.0,0.0,0.0,0.0,0.0,0.0,0.0,0.0,0.0,0.0,0.0,0.0,0.0,0.0,-1.4796,-1.3044,-1.3747,-1.4436,0.0,0.0,-1.3483,-1.357,-1.3498,0.0,0.0,0.0,0.0,0.0,0.0,0.0,0.0,0.0,0.0,0.0,0.0,0.0,0.0,0.0,0.0,0.0,0.0,0.0,0.0,0.0,0.0,0.0,0.0,0.0,0.0,0.0,0.0,0.0,0.0,0.0,0.0,0.0,0.0,0.0,0.0,0.0,0.0,0.0,0.0,0.0,0.0,0.0,0.0,0.0,0.0,0.0,0.0,0.0,0.0,0.0,0.0,0.0,0.0,0.0,-1.6017,-1.9074,-1.9807,-2.1097,-2.3003,-2.3179,-2.3059,-2.2703,-2.168,-2.0183,0.0,0.0,0.0,0.0,0.0,0.0,0.0,0.0,0.0,0.0,0.0,0.0,0.0,0.0,0.0,0.0,0.0,0.0,0.0,0.0,0.0,0.0,0.0,0.0,0.0,0.0,0.0,0.0,0.0,0.0,0.0,0.0,0.0,0.0,0.0,0.0,0.0,0.0,0.0,0.0,0.0,0.0,-1.3942,-1.4436,0.0,0.0,0.0,-1.4496,-1.4872,0.0,0.0,0.0,0.0,0.0,0.0,0.0,0.0,0.0,0.0,0.0,0.0,0.0,0.0,0.0,0.0,0.0,0.0,0.0,0.0,0.0,0.0,0.0,0.0,0.0,0.0,0.0,0.0,0.0,0.0,0.0,0.0,0.0,0.0,0.0,0.0,0.0,0.0,0.0,0.0,0.0,0.0,0.0,0.0,0.0,0.0,0.0,0.0,0.0,0.0,0.0,0.0,0.0,0.0,0.0,0.0,0.0,-1.8968,-2.0389,-2.1697,-2.2898,-2.3363,-2.3221,-2.2463,-2.1321,0.0,0.0,0.0,0.0,0.0,0.0,0.0,0.0,0.0,0.0,0.0,0.0,0.0,0.0,0.0,0.0,0.0,0.0,0.0,0.0,0.0,0.0,0.0,0.0,0.0,0.0,0.0,-0.7906,0.0,0.0,0.0,0.0,0.0,0.0,0.0,0.0,0.0,0.0,0.0,0.0,0.0,0.0,-1.373,-1.4886,-1.5185,-1.5276,0.0,0.0,-1.5381,-1.5724,-1.4554,-1.3538,0.0,0.0,0.0,0.0,0.0,0.0,0.0,0.0,0.0,0.0,0.0,0.0,0.0,0.0,0.0,0.0,0.0,0.0,0.0,0.0,0.0,0.0,0.0,0.0,0.0,0.0,0.0,0.0,0.0,0.0,0.0,0.0,0.0,0.0,0.0,0.0,0.0,0.0,0.0,0.0,0.0,0.0,0.0,0.0,0.0,0.0,0.0,0.0,0.0,0.0,0.0,0.0,0.0,0.0,-1.7025,-1.9579,-2.0968,-2.2267,-2.347,-2.3573,-2.3011,-2.1799,-2.1081,-1.9462,0.0,0.0,0.0,0.0,0.0,0.0,0.0,0.0,0.0,0.0,0.0,0.0,0.0,0.0,0.0,0.0,0.0,0.0,0.0,0.0,0.0,0.0,0.0,0.0,0.0,0.0,0.0,0.0,0.0,0.0,0.0,0.0,0.0,0.0,0.0,0.0,0.0,0.0,0.0,0.0,0.0,-1.4916,-1.5634,-1.6219,-1.6547,0.0,-1.6562,-1.6383,-1.5874,-1.5694,-1.4989,-1.3163,0.0,0.0,0.0,0.0,0.0,0.0,0.0,0.0,0.0,0.0,0.0,0.0,0.0,0.0,0.0,0.0,0.0,0.0,0.0,0.0,0.0,0.0,0.0,0.0,0.0,0.0,0.0,0.0,0.0,0.0,0.0,0.0,0.0,0.0,0.0,0.0,0.0,0.0,0.0,0.0,0.0,0.0,0.0,0.0,0.0,0.0,0.0,0.0,0.0,0.0,0.0,0.0,0.0,-1.6892,-1.9061,-2.0831,-2.2128,-2.3002,-2.3047,-2.2613,-2.171,-2.0647,-1.9014,0.0,0.0,0.0,0.0,0.0,0.0,0.0,0.0,0.0,0.0,0.0,0.0,0.0,0.0,0.0,0.0,0.0,0.0,0.0,0.0,0.0,0.0,0.0,0.0,0.0,0.0,0.0,0.0,-0.8889,-0.897,-0.8552,0.0,0.0,0.0,0.0,0.0,0.0,0.0,0.0,0.0,0.0,-1.5186,-1.6219,-1.6562,0.0,0.0,-1.6965,-1.6756,-1.6952,-1.5964,-1.5065,-1.4704,-1.4144,0.0,0.0,0.0,0.0,0.0,0.0,0.0,0.0,0.0,0.0,0.0,0.0,0.0,0.0,0.0,0.0,0.0,0.0,0.0,0.0,0.0,0.0,0.0,0.0,0.0,0.0,0.0,0.0,0.0,0.0,0.0,0.0,0.0,0.0,0.0,0.0,0.0,0.0,0.0,0.0,0.0,0.0,0.0,0.0,0.0,0.0,0.0,0.0,0.0,0.0,0.0,0.0,-1.6758,-1.8687,-2.0483,-2.1724,-2.2388,-2.2403,-2.2089,-2.1395,-2.0292,-1.8762,0.0,0.0,0.0,0.0,0.0,0.0,0.0,0.0,0.0,0.0,0.0,0.0,0.0,0.0,0.0,0.0,0.0,0.0,0.0,0.0,0.0,0.0,0.0,0.0,0.0,0.0,0.0,0.0,-0.9443,-0.9338,-0.8672,0.0,0.0,0.0,0.0,0.0,0.0,0.0,0.0,0.0,0.0,-1.5336,-1.6801,-1.6995,-1.7174,-1.7639,-1.7473,-1.7384,-1.7652,-1.6562,-1.571,-1.5799,0.0,0.0,0.0,0.0,0.0,0.0,0.0,0.0,0.0,0.0,0.0,0.0,0.0,0.0,0.0,0.0,0.0,0.0,0.0,0.0,0.0,0.0,0.0,0.0,0.0,0.0,0.0,-1.0694,0.0,0.0,-0.9943,0.0,0.0,0.0,0.0,0.0,0.0,0.0,0.0,0.0,0.0,0.0,0.0,0.0,0.0,0.0,0.0,0.0,0.0,0.0,0.0,0.0,0.0,-1.6758,-1.8672,-2.0045,-2.1066,-2.168,-2.171,-2.141,-2.0748,-2.0049,-1.8747,-1.6756,0.0,0.0,0.0,0.0,0.0,0.0,0.0,0.0,0.0,0.0,0.0,0.0,0.0,0.0,0.0,0.0,0.0,0.0,0.0,0.0,0.0,0.0,0.0,0.0,0.0,0.0,-0.9824,-0.9323,-0.8687,0.0,0.0,0.0,0.0,0.0,0.0,0.0,0.0,0.0,0.0,-1.5214,-1.553,-1.7414,-1.7684,-1.7669,-1.7728,-1.8222,-1.8418,-1.7818,-1.7623,-1.722,0.0,0.0,0.0,0.0,0.0,0.0,0.0,0.0,0.0,0.0,0.0,0.0,0.0,0.0,0.0,0.0,0.0,0.0,0.0,0.0,0.0,0.0,0.0,0.0,0.0,0.0,0.0,-1.2906,-1.2371,0.0,0.0,0.0,0.0,0.0,0.0,0.0,0.0,0.0,0.0,0.0,-1.5706,-1.6103,0.0,0.0,0.0,0.0,0.0,0.0,0.0,0.0,0.0,0.0,0.0,0.0,-1.6758,-1.8657,-2.0034,-2.0808,-2.1036,-2.1017,-2.0927,-2.0703,-1.9615,-1.8119,-1.6144,0.0,0.0,0.0,0.0,0.0,0.0,0.0,0.0,0.0,0.0,0.0,0.0,0.0,0.0,0.0,0.0,0.0,0.0,0.0,0.0,0.0,0.0,0.0,0.0,0.0,-1.0264,0.0,0.0,0.0,0.0,0.0,0.0,0.0,0.0,0.0,0.0,0.0,-1.4287,-1.5619,-1.6323,-1.7116,-1.8207,-1.7966,-1.7863,0.0,0.0,0.0,0.0,0.0,0.0,0.0,0.0,0.0,0.0,0.0,0.0,0.0,0.0,-1.6878,-1.3144,-1.1935,-1.1548,-1.1726,0.0,0.0,0.0,0.0,0.0,0.0,0.0,0.0,0.0,0.0,0.0,0.0,0.0,0.0,-1.4902,0.0,-1.4356,0.0,0.0,0.0,0.0,0.0,0.0,0.0,0.0,-1.6697,-1.7225,-1.7378,-1.8017,-1.8102,0.0,-1.7397,-1.6592,0.0,0.0,0.0,0.0,0.0,0.0,0.0,0.0,-1.6967,-1.8657,-1.9794,-2.0363,-2.0363,-2.0363,-2.0363,-2.0333,-1.9271,-1.7878,-1.6159,-1.4646,-1.3415,0.0,0.0,0.0,0.0,0.0,0.0,0.0,0.0,0.0,0.0,0.0,0.0,0.0,0.0,0.0,0.0,0.0,0.0,0.0,0.0,0.0,0.0,0.0,-1.0962,0.0,0.0,0.0,0.0,0.0,0.0,0.0,0.0,0.0,-1.2523,-1.4047,-1.5395,-1.6024,-1.7026,-1.7921,-1.8612,0.0,0.0,0.0,0.0,0.0,0.0,0.0,-1.7953,-1.8595,-1.8211,-1.7761,-1.7685,-1.8616,-1.8967,-1.7685,0.0,0.0,-1.4822,-1.368,-1.3269,-1.3376,-1.3543,-1.383,-1.4419,-1.4658,-1.4788,0.0,0.0,0.0,0.0,0.0,0.0,0.0,0.0,-1.7287,-1.72,0.0,-1.6575,0.0,0.0,0.0,0.0,-1.5092,-1.6082,0.0,0.0,-1.9119,-1.9611,-1.9232,-1.9852,-2.0109,-2.009,-2.0136,-1.9703,-1.8782,-1.5933,0.0,0.0,0.0,0.0,0.0,0.0,-1.7428,-1.8762,-1.942,-1.9753,-1.9753,-1.9723,-1.9723,-1.9708,-1.9061,-1.8087,-1.6831,-1.6114,-1.4586,-1.2089,-1.1835,0.0,0.0,0.0,0.0,0.0,0.0,0.0,0.0,0.0,0.0,0.0,0.0,0.0,0.0,0.0,0.0,0.0,0.0,0.0,0.0,-1.1057,0.0,0.0,0.0,0.0,0.0,0.0,0.0,0.0,0.0,0.0,-1.4051,-1.508,-1.6099,-1.6697,0.0,0.0,0.0,0.0,-1.8957,-1.9603,-1.9693,-1.9693,-1.9708,-1.9663,-1.9405,-1.8822,0.0,0.0,-1.704,-1.8435,-1.9311,-1.8,-1.7888,-1.7805,-1.7829,-1.7552,-1.7227,-1.6374,-1.6186,-1.6392,-1.6728,-1.6987,-1.7318,-2.1443,0.0,0.0,0.0,0.0,-1.9573,-1.9887,-2.0075,-2.0238,-2.0025,-1.9434,-1.8656,0.0,0.0,0.0,0.0,0.0,0.0,-1.9086,-2.0542,-2.1001,-2.1637,-2.2348,-2.2549,-2.2405,-2.1944,-2.1942,-2.1332,-2.0163,-1.9289,-1.7633,-1.526,0.0,0.0,0.0,0.0,-1.879,-2.0045,-2.0333,-2.0423,-2.0423,-1.9947,-1.9723,-1.9708,-1.9046,-1.8523,-1.8117,-1.6638,-1.5468,-1.4661,-1.2834,0.0,0.0,0.0,0.0,0.0,0.0,0.0,0.0,0.0,0.0,0.0,0.0,0.0,0.0,0.0,0.0,0.0,0.0,0.0,-1.1161,-1.1595,-1.1861,0.0,0.0,0.0,0.0,0.0,0.0,0.0,0.0,0.0,-1.6488,-1.6906,-1.7385,0.0,0.0,-1.9196,-1.9393,-1.9405,-1.9483,-1.9678,-1.9723,0.0,-1.9723,-1.9301,-1.9091,-1.9378,-1.9405,-1.9271,-1.8897,-1.9565,-1.995,-1.9358,-1.9511,-1.9641,-1.9339,-1.8102,-1.7272,-1.7358,-1.7794,-1.832,-1.8891,-1.8742,-1.8466,-2.4506,-2.3193,-2.1732,-2.1281,-2.1537,-2.1885,-2.2046,-2.2159,-2.2385,-2.2297,-2.1974,-2.1292,-2.0362,-1.9284,-1.8279,0.0,0.0,0.0,-2.0835,-2.2127,-2.2654,-2.3277,-2.3996,-2.4294,-2.4191,-2.3817,-2.383,-2.3157,-2.1859,-2.1859,-2.0468,-1.7821,0.0,0.0,-1.8311,-1.9089,-2.0019,-2.1051,-2.1111,-2.0957,-2.0722,-2.0049,-1.9723,-1.9675,-1.9301,-1.8972,-1.8687,-1.7311,-1.6323,-1.5799,-1.4017,-1.2628,0.0,0.0,0.0,0.0,0.0,0.0,0.0,0.0,0.0,0.0,0.0,-0.9002,-0.8349,0.0,0.0,0.0,-1.0133,-1.1281,-1.2849,-1.2987,0.0,0.0,0.0,0.0,0.0,0.0,0.0,-1.6517,-1.7071,-1.7626,-1.8403,-1.8491,-1.8553,-1.8687,-1.9271,-1.9723,-1.9723,0.0,-1.9723,-1.9723,-1.9723,-1.9723,-1.9708,-1.9361,-1.9241,-1.9615,-1.9723,-1.9764,-1.9912,-2.0158,-2.0309,-2.0353,-2.0397,-2.0404,-2.0393,-1.9309,-1.8462,-1.8696,-1.9043,-1.9478,-1.9917,-1.9642,-1.935,-2.7356,-2.713,-2.4562,-2.379,-2.4207,-2.422,-2.3866,-2.3346,-2.3891,-2.4117,-2.4117,-2.4029,-2.3389,-2.2284,-2.0815,0.0,-2.1078,-2.1812,-2.2511,-2.3098,-2.4242,-2.4757,-2.4864,-2.5412,-2.5651,-2.5579,-2.5657,-2.5016,-2.3789,-2.3699,-2.2787,-2.1047,-2.0352,-2.0243,-2.0673,-2.0793,-2.1171,-2.1769,-2.1769,-2.1425,-2.0703,-2.0034,-1.9723,-1.9723,-1.9648,-1.9331,-1.87,-1.7997,-1.7071,-1.5933,-1.514,-1.387,-1.2074,0.0,0.0,0.0,0.0,0.0,0.0,0.0,0.0,0.0,0.0,0.0,0.0,0.0,0.0,0.0,-1.1311,0.0,-1.4481,-1.4691,0.0,0.0,0.0,-1.4466,-1.346,-1.5396,-1.6831,-1.6936,0.0,0.0,-1.9693,-1.9738,-1.9558,-1.8942,-1.9331,-1.9723,-1.9723,-1.9723,-1.9723,-1.9813,-1.9813,-1.9813,-1.9977,-1.9872,-1.9768,-1.969,-1.9723,-1.9821,-2.0141,-2.0265,-2.0467,-2.0862,-2.0682,-2.0568,-2.1039,-2.102,-2.09,-2.0293,-2.0208,-2.0221,-2.0272,-2.02,-2.0086,-2.7908,-2.7846,-2.7193,-2.6291,-2.5286,-2.5723,-2.5581,-2.5034,-2.5159,-2.5222,-2.5172,-2.4356,-2.3602,-2.2907,-2.2987,-2.3424,-2.416,-2.4797,-2.5782,-2.6961,-2.6842,-2.7081,-2.7612,-2.728,-2.6852,-2.6367,-2.635,-2.5944,-2.5113,-2.4605,-2.4126,-2.3663,-2.2996,-2.2009,-2.0778,-2.171,-2.2298,-2.2463,-2.2463,-2.1874,-2.0718,-2.0034,-1.9723,-1.969,-1.9211,-1.8867,-1.8687,-1.7579,-1.6801,-1.6458,-1.4933,-1.3812,-1.3346,-1.1719,0.0,0.0,0.0,0.0,0.0,0.0,0.0,0.0,0.0,-1.1426,-0.9779,0.0,-1.1775,0.0,-1.3615,-1.3867,-1.334,-1.372,0.0,0.0,-1.5755,-1.6218,-1.7851,-1.7715,-1.7863,-1.8882,-1.8957,-1.9121,-1.9648,-2.0154,-2.0423,-2.024,-1.9914,-1.9723,-1.9723,-1.9723,-1.9884,-2.0348,-2.0468,-2.0647,-2.1036,-2.0782,-2.0288,-1.9798,-1.9723,-1.9729,-1.9821,-2.0104,-2.0465,-2.091,-2.1181,-2.1445,-2.1855,-2.2005,-2.1903,-2.1798,-2.1755,-2.1755,-2.1738,-2.1312,-2.0919,-2.885,-2.885,-2.885,-2.8021,-2.6741,-2.7067,-2.6901,-2.6352,-2.6352,-2.6352,-2.6276,-2.5197,-2.4531,-2.4211,-2.4299,-2.482,-2.5624,-2.6264,-2.7044,-2.7867,-2.826,-2.8282,-2.803,-2.8033,-2.7705,-2.7061,-2.7046,-2.6716,-2.6048,-2.5674,-2.5322,-2.5038,-2.4365,-2.3498,-2.2497,-2.2877,-2.3107,-2.3107,-2.2838,-2.2173,-2.1171,-2.0498,-2.0004,-1.9708,-1.9348,-1.9136,-1.9151,-1.8147,-1.7443,-1.7145,-1.583,-1.4963,-1.4677,-1.3346,-1.2422,0.0,0.0,0.0,0.0,0.0,0.0,0.0,0.0,0.0,0.0,0.0,-1.2688,-1.372,-1.4676,-1.517,-1.4992,-1.559,-1.6413,-1.7489,-1.7296,-1.7566,-1.8702,-1.8433,-1.8431,-1.9151,-1.945,-1.9717,-2.0109,-2.0722,-2.1156,-2.1122,-2.0827,-2.0606,-2.0591,-2.0572,-2.0722,-2.1096,-2.1156,-2.1261,-2.1665,-2.1395,-2.0917,-2.0303,-2.0139,-2.0107,-2.0005,-2.0126,-2.0449,-2.0894,-2.1039,-2.1165,-2.1615,-2.1522,-2.1461,-2.169,-2.1869,-2.2046,-2.2237,-2.1972,-2.1698,-2.9641,-2.9578,-2.9578,-2.8963,-2.8009,-2.8147,-2.7858,-2.7329,-2.7392,-2.7381,-2.7366,-2.6339,-2.5887,-2.5787,-2.5335,-2.5544,-2.6325,-2.6976,-2.7398,-2.7666,-2.8938,-2.8906,-2.7758,-2.8305,-2.8293,-2.775,-2.7645,-2.73,-2.6722,-2.6647,-2.6303,-2.5719,-2.4963,-2.4605,-2.4575,-2.3917,-2.3595,-2.3595,-2.3017,-2.2373,-2.171,-2.1051,-2.0393,-1.9738,-1.9633,-1.9573,-1.9555,-1.8927,-1.8296,-1.7712,-1.7039,-1.6428,-1.5814,-1.5184,-1.4721,0.0,-1.3989,0.0,0.0,0.0,0.0,0.0,0.0,0.0,0.0,-1.3238,-1.3585,-1.4034,-1.535,-1.6563,-1.7489,-1.8162,-1.8595,-1.8687,-1.8702,-1.8493,-1.8057,-1.8551,-1.8957,-1.8939,-2.0045,-2.0842,-2.0853,-2.141,-2.1829,-2.1814,-2.1919,-2.1934,-2.1919,-2.1739,-2.1635,-2.1799,-2.1889,-2.2009,-2.1904,-2.1864,-2.159,-2.1006,-2.0703,-2.0613,-2.0382,-2.0254,-2.0398,-2.0829,-2.0715,-2.0633,-2.1055,-2.0878,-2.0748,-2.1118,-2.143,-2.1733,-2.2092,-2.2234,-2.2313,-2.8825,-2.8423,-2.8423,-2.8034,-2.7507,-2.8361,-2.8197,-2.7318,-2.7758,-2.7946,-2.7934,-2.772,-2.7394,-2.6979,-2.6866,-2.702,-2.7406,-2.7536,-2.8356,-2.9714,-2.9478,-2.9549,-2.9837,-2.9006,-2.8532,-2.8368,-2.7869,-2.754,-2.7405,-2.6866,-2.6551,-2.6363,-2.5202,-2.4605,-2.4575,0.0,0.0,0.0,-2.3017,-2.2373,-2.171,-2.1051,-2.0393,-1.9723,-1.9166,0.0,-1.8867,-1.8237,-1.7833,-1.7682,-1.707,0.0,0.0,0.0,0.0,0.0,0.0,0.0,0.0,0.0,0.0,0.0,-1.5246,-1.4659,-1.3765,-1.5531,-1.6398,-1.5574,-1.7087,-1.7788,-1.6995,-1.7488,-1.8102,-1.8627,-1.8702,-1.8867,-1.9256,-1.9929,-2.0314,-2.0329,-2.1036,-2.1515,-2.156,-2.2104,-2.2508,-2.2538,-2.2942,-2.3221,-2.3206,-2.2353,-2.1954,-2.2418,-2.2832,-2.2996,-2.2583,-2.2508,-2.2298,-2.165,-2.1017,-2.0726,-2.0613,-2.0168,-2.0135,-2.0796,-2.0926,-2.1086,-2.1842,-2.1974,-2.1675,-2.1521,-2.1536,-2.1628,-2.1735,-2.2032,-2.2313,-2.8612,-2.8109,-2.8109,-2.7783,0.0,-2.8461,-2.8461,-2.772,-2.8273,-2.8348,-2.8122,-2.8109,-2.7959,-2.7695,-2.7695,-2.7838,-2.8098,-2.8098,-2.8666,-2.9614,-2.9757,-2.9827,-2.9897,-2.9657,-2.922,-2.8607,-2.8274,-2.7929,-2.76,-2.727,-2.7091,-2.7076,-2.6078,-2.5435,-2.5068,-2.4103,-2.3595,-2.3595,-2.3295,-2.2853,-2.2188,-2.153,-2.0872,-2.0213,-1.9555,0.0,0.0,0.0,0.0,0.0,0.0,0.0,0.0,0.0,0.0,-1.6203,-1.6203,-1.5919,-1.5291,-1.5202,-1.5651,-1.6607,-1.6727,-1.6458,-1.5785,-1.6652,-1.7086,-1.6817,-1.7923,-1.8416,-1.7803,-1.8281,-1.8957,-1.9582,-1.9672,-1.9959,-2.0572,-2.0991,-2.1186,-2.1261,-2.1804,-2.2209,-2.2194,-2.2748,-2.3122,-2.3146,-2.3385,-2.3595,-2.3565,-2.3056,-2.2787,-2.3086,-2.337,-2.349,-2.3206,-2.3152,-2.2942,-2.2313,-2.1924,-2.144,-2.0793,-2.0419,-2.0276,-2.0368,-2.0347,-2.0515,-2.0878,-2.1166,-2.1244,-2.1086,-2.1306,-2.1491,-2.1368,-2.1508,-2.166,-2.8512,-2.7971,-2.7959,-2.7645,-2.7218,-2.831,-2.8612,-2.8436,0.0,0.0,0.0,-2.8411,-2.8348,-2.826,-2.826,-2.8306,-2.8417,-2.8333,-2.8505,-2.8963,-2.9716,-2.986,-2.952,-3.0171,-2.9894,-2.8801,-2.8652,-2.8248,-2.7615,-2.7585,-2.7585,-2.754,-2.6941,-2.6198,-2.542,-2.4343,-2.3714,-2.361,-2.3595,-2.3317,-2.2703,-2.2164,-2.15,-2.0703,-2.0154,-1.9809,-1.9708,-1.9166,-1.8627,-1.8072,-1.7518,-1.7428,-1.7848,-1.7878,-1.8311,-1.9241,-1.9348,-1.8852,-1.7803,-1.7699,-1.7518,-1.7085,-1.7667,-1.8012,-1.7893,-1.7369,-1.7355,-1.7997,-1.8568,-1.8927,-1.9046,-1.9543,-2.0139,-2.0793,-2.0868,-2.1077,-2.1605,-2.1834,-2.1874,-2.1954,-2.2463,-2.2868,-2.2868,-2.3272,-2.3595,-2.3595,-2.358,-2.3595,-2.3595,-2.3535,-2.349,-2.3535,-2.358,-2.3595,-2.358,-2.3565,-2.3385,-2.2942,-2.2748,-2.2298,-2.138,-2.0872,-2.0501,-2.0225,-1.9924,-1.9925,-1.9947,-2.0347,-2.0382,-2.0314,-2.0862,-2.126,-2.0878,-2.0764,-2.0829,-2.8335,-2.7406,-2.7394,-2.7115,-2.67,-2.7758,-2.8737,-2.9541,-2.9628,-2.9628,-2.9553,-2.9553,-2.9277,-2.8775,-2.8775,-2.8536,-2.8127,-2.7695,-2.7846,-2.8564,-2.8967,-2.9555,-3.0156,-3.0378,-3.0133,-2.9472,-2.8876,-2.8248,-2.766,-2.76,-2.7585,-2.751,-2.6941,-2.5989,-2.4829,-2.456,-2.4171,-2.361,-2.3595,-2.3295,-2.2718,-2.2598,-2.1969,-2.0763,-2.0613,-2.0288,-1.9723,-1.9603,-1.9513,-1.9438,-1.9333,-1.9061,-1.858,-1.8553,-1.8403,-1.8027,-1.7983,-1.7893,-1.7743,-1.7699,-1.7923,-1.8403,-1.9046,-1.9181,-1.8627,-1.8461,-1.8702,-1.9331,-1.9528,-1.9813,-2.0348,-2.0494,-2.0823,-2.1455,-2.156,-2.1605,-2.1769,-2.2218,-2.2553,-2.2568,-2.3107,-2.3445,-2.3415,-2.3535,-2.3595,-2.3595,-2.3595,-2.3595,-2.3595,-2.3595,-2.3595,-2.3595,-2.3595,-2.3595,-2.3595,-2.3595,-2.3535,-2.3526,-2.3047,-2.2673,-2.2328,-2.1485,-2.0911,-2.0998,-2.052,-2.0373,-2.0615,-2.0845,-2.0682,-2.0399,-2.0517,-2.0483,-2.0122,-2.0013,-2.0156,-2.8461,-2.7758,-2.7733,-2.7595,-2.7419,-2.821,-2.9026,-2.9767,-2.9779,-2.9779,-2.9779,-2.9779,-2.9654,-2.9415,-2.9402,-2.9089,-2.8524,-2.7984,-2.8017,-2.8481,-2.8371,-2.9002,-3.0195,-3.0367,-3.029,-3.0046,-2.943,-2.8801,-2.8184,-2.7779,-2.7585,-2.7555,-2.6941,-2.6108,-2.5187,-2.4784,-2.4261,-2.361,-2.3595,-2.3482,-2.3197,-2.2868,-2.2403,-2.1784,-2.1111,-2.0572,-2.0243,-1.954,-1.9151,-1.9151,-1.8807,-1.8642,-1.8702,-1.8702,-1.8717,-1.8777,-1.8792,-1.8792,-1.8777,-1.8792,-1.9076,-1.975,-2.0045,-2.0273,-2.0333,-2.0004,-1.9911,-2.0228,-2.0543,-2.0921,-2.1201,-2.1226,-2.1515,-2.2179,-2.2254,-2.2388,-2.2682,-2.2966,-2.3197,-2.3212,-2.3415,-2.3595,-2.3595,-2.3595,-2.3595,-2.3595,-2.3595,-2.3595,-2.3595,-2.3595,-2.3595,-2.3595,-2.3595,-2.3595,-2.3595,-2.3595,-2.3595,-2.3595,-2.337,-2.3062,-2.2808,-2.2069,-2.1628,-2.1076,-2.071,-2.0477,-2.0402,-2.0466,-2.0466,-2.0417,-2.0533,-2.0466,-2.0156,-1.9856,-1.9856,-2.88,-2.8298,-2.8285,-2.8285,-2.8323,-2.8712,-2.9214,-2.9767,-2.9779,-2.9716,-2.9616,-2.9729,-2.9779,-2.9779,-2.9779,-2.9553,-2.9076,-2.8411,-2.8193,-2.8347,-2.7919,-2.8524,-2.9919,-3.0194,-3.0367,-3.0408,-2.9879,-2.925,-2.8592,-2.7929,-2.7585,-2.754,-2.7076,-2.6408,-2.56,-2.5083,-2.441,-2.367,-2.3595,-2.3595,-2.358,-2.3116,-2.2838,-2.2628,-2.1695,-2.1081,-2.0882,-1.9794,-1.9151,-1.9104,-1.8506,-1.8386,-1.8882,-1.8927,-1.9151,-1.9648,-1.9723,-1.9723,-1.9723,-1.9872,-2.0154,-2.0662,-2.0838,-2.1137,-2.159,-2.138,-2.1062,-2.1002,-2.1365,-2.171,-2.1894,-2.1939,-2.2194,-2.2793,-2.2912,-2.3062,-2.349,-2.3595,-2.3595,-2.3595,-2.3595,-2.3595,-2.3595,-2.3595,-2.3595,-2.3595,-2.3595,-2.3595,-2.3595,-2.3595,-2.3595,-2.3595,-2.3595,-2.3595,-2.3595,-2.3595,-2.3595,-2.3595,-2.358,-2.337,-2.3032,-2.2838,-2.2269,-2.127,-2.0797,-2.0464,-1.9909,-1.9945,-2.0124,-2.0158,-2.0347,-2.0499,-2.0158,-1.9892,-1.9726,-2.9377,-2.8863,-2.8813,-2.8825,-2.8825,-2.8888,-2.9277,-2.9754,-2.9779,-2.949,-2.9063,-2.9553,-2.9779,-2.9779,-2.9767,-2.9716,-2.9591,-2.8586,-2.8132,-2.8088,-2.7845,-2.8201,-2.9129,-2.9919,-3.0353,-3.0423,-2.9879,-2.9265,-2.8652,-2.7944,-2.7585,-2.7585,-2.754,-2.6866,-2.5734,-2.554,-2.4881,-2.3625,-2.3595,-2.3595,-2.3595,-2.355,-2.3236,-2.2718,-2.2583,-2.2224,-2.1605,-2.0917,-2.0494,-2.0449,-1.9839,-1.9543,-1.9603,-1.9603,-1.9648,-1.9708,-1.9723,-1.9723,-1.9768,-2.0273,-2.0613,-2.0733,-2.1291,-2.165,-2.1784,-2.2203,-2.2254,-2.1814,-2.1695,-2.2044,-2.2508,-2.2598,-2.2817,-2.3325,-2.3445,-2.3535,-2.358,-2.3595,-2.3595,-2.3595,-2.3595,-2.3595,-2.3595,-2.3595,-2.3595,-2.3595,-2.3595,-2.3595,-2.3595,-2.3595,-2.3595,-2.3595,-2.3595,-2.3595,-2.3595,-2.3595,-2.3595,-2.3595,-2.3595,-2.352,-2.3355,-2.3032,-2.2448,-2.1829,-2.1126,-2.0587,-2.0019,-1.9762,-1.978,-1.9854,-1.9907,-1.9854,-1.9764,-1.9744,-1.9723,-2.9666,-2.944,-2.944,-2.944,-2.944,-2.944,-2.9566,-2.9779,-2.9779,-2.9465,-2.9001,-2.9541,-2.9603,-2.9289,-2.9289,-2.9465,-2.9704,-2.8624,-2.8109,-2.8045,-2.736,-2.7417,-2.8279,-2.9129,-2.9824,-3.0324,-2.9865,-2.9445,-2.9041,-2.8109,-2.7585,-2.7585,-2.7585,-2.6926,-2.5704,-2.56,-2.4941,-2.3655,-2.3595,-2.3595,-2.3595,-2.3595,-2.3475,-2.3221,-2.2897,-2.2583,-2.2269,-2.165,-2.1092,-2.0718,-2.0423,-2.0303,-2.0288,-1.9914,-1.9869,-2.0213,-1.9899,-2.0067,-2.0812,-2.0763,-2.1051,-2.1819,-2.2113,-2.2413,-2.2787,-2.3092,-2.3086,-2.2892,-2.2832,-2.2951,-2.3176,-2.3242,-2.3362,-2.355,-2.3595,-2.3595,-2.3595,-2.3595,-2.3595,-2.3595,-2.3595,-2.3595,-2.3595,-2.3595,-2.3595,-2.3595,-2.3595,-2.3595,-2.3595,-2.3595,-2.3595,-2.3595,-2.3595,-2.3595,-2.3595,-2.3595,-2.3595,-2.3595,-2.3595,-2.3595,-2.355,-2.3445,-2.3032,-2.2388,-2.1739,-2.1081,-2.0434,-1.9929,-1.9723,-1.9723,-1.9723,-1.9723,-1.9723,-1.9723,-1.9723,-2.9779,-2.9779,-2.9779,-2.9779,-2.9779,-2.9779,-2.9779,-2.9779,-2.9779,-2.939,-2.8787,-2.9139,-2.9013,-2.8561,-2.8737,-2.9176,-2.9377,-2.8386,-2.7971,-2.7959,-2.7002,-2.6952,-2.7723,-2.833,-2.9223,-3.0066,-2.978,-2.9463,-2.9209,-2.8184,-2.7585,-2.7585,-2.7585,-2.6926,-2.5749,-2.56,-2.4918,-2.3729,-2.3595,-2.3595,-2.3595,-2.3595,-2.3595,-2.355,-2.3197,-2.2942,-2.2927,-2.2308,-2.1754,-2.1291,-2.1081,-2.0972,-2.0961,-2.0513,-2.0453,-2.0872,-2.0528,-2.0647,-2.1635,-2.141,-2.1665,-2.2568,-2.2823,-2.3137,-2.349,-2.3595,-2.3595,-2.3565,-2.3595,-2.3565,-2.3595,-2.3595,-2.3595,-2.3595,-2.3595,-2.3595,-2.3595,-2.3595,-2.3595,-2.3595,-2.3595,-2.3595,-2.3595,-2.3595,-2.3595,-2.3595,-2.3595,-2.3595,-2.3595,-2.3595,-2.3595,-2.3595,-2.3595,-2.3595,-2.3595,-2.3595,-2.3595,-2.3595,-2.3595,-2.3595,-2.3595,-2.3595,-2.3407,-2.2628,-2.2224,-2.1739,-2.1096,-2.0498,-1.9857,-1.9753,-1.9723,-1.9723,-1.9723,-1.9723,-1.9723,-2.9779,-2.9779,-2.9779,-2.9779,-2.9779,-2.9779,-2.9779,-2.9779,-2.9767,-2.9176,-2.8247,-2.8222,-2.7896,-2.7469,-2.8349,-2.8888,-2.8825,-2.7846,-2.762,-2.7921,-2.6989,-2.6939,-2.767,-2.7769,-2.8652,-3.006,-2.974,-2.9181,-2.8685,-2.7959,-2.7585,-2.7585,-2.7585,-2.6941,-2.5839,-2.563,-2.4956,-2.3819,-2.3625,-2.3595,-2.3595,-2.3595,-2.3595,-2.358,-2.3565,-2.352,-2.346,-2.2972,-2.2628,-2.2583,-2.1984,-2.165,-2.165,-2.1605,-2.159,-2.1635,-2.159,-2.1605,-2.1814,-2.2224,-2.2598,-2.2778,-2.3206,-2.355,-2.358,-2.3595,-2.3595,-2.3595,-2.3595,-2.3595,-2.3595,-2.3595,-2.3595,-2.3595,-2.3595,-2.3595,-2.3595,-2.3595,-2.3595,-2.3595,-2.3595,-2.3595,-2.3595,-2.3595,-2.3595,-2.3595,-2.3595,-2.3595,-2.3595,-2.3595,-2.3595,-2.3595,-2.3595,-2.3595,-2.3595,-2.3595,-2.3595,-2.3595,-2.3595,-2.3595,-2.3595,-2.3535,-2.3227,-2.2942,-2.2658,-2.2269,-2.1724,-2.1096,-2.0363,-2.0004,-1.9768,-1.9723,-1.9723,-1.9723,-1.9723,-2.9779,-2.9779,-2.9779,-2.9779,-2.9779,-2.9779,-2.9779,-2.9754,-2.939,-2.8787,-2.8197,-2.8109,-2.7607,-2.6826,-2.7532,-2.8072,-2.8323,-2.7607,-2.7394,-2.7494,-2.6839,-2.6645,-2.7007,-2.7986,-2.8766,-2.9406,-2.9886,-2.9559,-2.8584,-2.7929,-2.7585,-2.7585,-2.7585,-2.7136,-2.6318,-2.5809,-2.5128,-2.4291,-2.3849,-2.3595,-2.3595,-2.3595,-2.3595,-2.3595,-2.3595,-2.3595,-2.3595,-2.3385,-2.3107,-2.2718,-2.2448,-2.2343,-2.2343,-2.2358,-2.2343,-2.2298,-2.1919,-2.2039,-2.2742,-2.2778,-2.2882,-2.3251,-2.346,-2.3595,-2.3595,-2.3595,-2.3595,-2.3595,-2.3595,-2.3595,-2.3595,-2.3595,-2.3595,-2.3595,-2.3595,-2.3595,-2.3595,-2.3595,-2.3595,-2.3595,-2.3595,-2.3595,-2.3595,-2.3595,-2.3595,-2.3595,-2.3595,-2.3595,-2.3595,-2.3595,-2.3595,-2.3595,-2.3595,-2.3595,-2.3595,-2.3595,-2.3595,-2.3595,-2.3595,-2.3595,-2.3595,-2.3595,-2.3355,-2.3257,-2.3032,-2.2688,-2.2113,-2.138,-2.0692,-2.0034,-1.9813,-1.9723,-1.9723,-1.9723,-1.9723,-2.9779,-2.9779,-2.9779,-2.9779,-2.9779,-2.9779,-2.9679,-2.949,-2.9063,-2.8524,-2.7934,-2.7833,-2.7318,-2.6663,-2.6889,-2.7241,-2.7555,-2.718,-2.7105,-2.7253,-2.6751,-2.6487,-2.6714,-2.792,-2.8734,-2.9084,-2.9813,-2.9729,-2.8891,-2.8034,-2.7615,-2.7585,-2.7585,-2.7255,-2.6587,-2.5944,-2.5262,-2.4605,-2.3932,-2.3595,-2.3595,-2.3595,-2.3595,-2.3595,-2.3595,-2.3595,-2.3595,-2.3595,-2.3415,-2.3047,-2.2987,-2.2987,-2.3002,-2.3002,-2.2987,-2.2942,-2.2583,-2.2667,-2.34,-2.3227,-2.3161,-2.355,-2.3595,-2.3595,-2.3595,-2.3595,-2.3595,-2.3595,-2.3595,-2.3595,-2.3595,-2.3595,-2.3595,-2.3595,-2.3595,-2.3595,-2.3595,-2.3595,-2.3595,-2.3595,-2.3595,-2.3595,-2.3595,-2.3595,-2.3595,-2.3595,-2.3595,-2.3595,-2.3595,-2.3595,-2.3595,-2.3595,-2.3595,-2.3595,-2.3595,-2.3595,-2.3595,-2.3595,-2.3595,-2.3595,-2.3595,-2.3595,-2.358,-2.3505,-2.3295,-2.2987,-2.2433,-2.168,-2.0946,-2.0217,-1.9828,-1.9723,-1.9723,-1.9723,-1.9813,-2.9779,-2.9779,-2.9779,-2.9779,-2.9779,-2.9729,-2.944,-2.9026,-2.8863,-2.821,-2.7444,-2.7293,-2.6967,-2.6587,-2.6562,-2.6549,-2.6625,-2.66,-2.6813,-2.7153,-2.6725,-2.6487,-2.6555,-2.7417,-2.8376,-2.9105,-2.9434,-2.9612,-2.9457,-2.8319,-2.7675,-2.76,-2.7585,-2.7315,-2.6632,-2.5989,-2.53,-2.4664,-2.4014,-2.361,-2.3595,-2.3595,-2.3595,-2.3595,-2.3595,-2.3595,-2.3595,-2.3595,-2.358,-2.355,-2.3535,-2.358,-2.352,-2.352,-2.355,-2.352,-2.352,-2.355,-2.358,-2.355,-2.3505,-2.3595,-2.3595,-2.3595,-2.3595,-2.3595,-2.3595,-2.3595,-2.3595,-2.3595,-2.3595,-2.3595,-2.3595,-2.3595,-2.3595,-2.3595,-2.3595,-2.3595,-2.3595,-2.3595,-2.3595,-2.3595,-2.3595,-2.3595,-2.3595,-2.3595,-2.3595,-2.3595,-2.3595,-2.3595,-2.3595,-2.3595,-2.3595,-2.3595,-2.3595,-2.3595,-2.3595,-2.3595,-2.3595,-2.3595,-2.3595,-2.3595,-2.3595,-2.3535,-2.3535,-2.3221,-2.2718,-2.1994,-2.1545,-2.0906,-2.0397,-2.0037,-2.0187,-2.0307,-2.0127,-2.9779,-2.9779,-2.9779,-2.9779,-2.9729,-2.9377,-2.9038,-2.88,-2.816,-2.763,-2.7291,-2.6914,-2.665,-2.6524,-2.6487,-2.6487,-2.6487,-2.6499,-2.66,-2.6713,-2.6575,-2.6487,-2.6658,-2.733,-2.8505,-2.9608,-2.9536,-2.9469,-2.9421,-2.8682,-2.8094,-2.769,-2.7585,-2.7495,-2.721,-2.6198,-2.5465,-2.5187,-2.4178,-2.3595,-2.3595,-2.3595,-2.3595,-2.3595,-2.3595,-2.3595,-2.3595,-2.3595,-2.3595,-2.3595,-2.3595,-2.3595,-2.3595,-2.3595,-2.3595,-2.3595,-2.3595,-2.3595,-2.3595,-2.3595,-2.3595,-2.3595,-2.3595,-2.3595,-2.3595,-2.3595,-2.3595,-2.3595,-2.3595,-2.3595,-2.3595,-2.3595,-2.3595,-2.3595,-2.3595,-2.3595,-2.3595,-2.3595,-2.3595,-2.3595,-2.3595,-2.3595,-2.3595,-2.3595,-2.3595,-2.3595,-2.3595,-2.3595,-2.3595,-2.3595,-2.3595,-2.3595,-2.3595,-2.3595,-2.3595,-2.3595,-2.3595,-2.3595,-2.3595,-2.3595,-2.3595,-2.3595,-2.3595,-2.3595,-2.3595,-2.34,-2.2877,-2.2433,-2.1969,-2.1635,-2.1201,-2.1051,-2.1085,-2.0966,-2.0771,-2.9779,-2.9779,-2.9779,-2.9779,-2.9729,-2.9176,-2.8775,-2.8474,-2.7682,-2.7203,-2.6964,-2.6663,-2.6487,-2.6487,-2.6487,-2.6487,-2.6487,-2.6487,-2.6487,-2.6487,-2.6487,-2.6487,-2.6624,-2.733,-2.8607,-2.9897,-2.9635,-2.9405,-2.9537,-2.8921,-2.8263,-2.7705,-2.7585,-2.7585,-2.751,-2.6542,-2.5884,-2.5472,-2.4552,-2.3864,-2.3655,-2.3595,-2.3595,-2.3595,-2.3595,-2.3595,-2.3595,-2.3595,-2.3595,-2.3595,-2.3595,-2.3595,-2.3595,-2.3595,-2.3595,-2.3595,-2.3595,-2.3595,-2.3595,-2.3595,-2.3595,-2.3595,-2.3595,-2.3595,-2.3595,-2.3595,-2.3595,-2.3595,-2.3595,-2.3595,-2.3595,-2.3595,-2.3595,-2.3595,-2.3595,-2.3595,-2.3595,-2.3595,-2.3595,-2.3595,-2.3595,-2.3595,-2.3595,-2.3595,-2.3595,-2.3595,-2.3595,-2.3595,-2.3595,-2.3595,-2.361,-2.361,-2.3595,-2.3595,-2.3595,-2.3595,-2.3595,-2.3595,-2.3595,-2.3595,-2.3595,-2.3595,-2.3595,-2.3595,-2.3595,-2.358,-2.3146,-2.2808,-2.2403,-2.2164,-2.1919,-2.1605,-2.141,-2.147,-2.137,-2.9779,-2.9779,-2.9779,-2.9779,-2.9704,-2.9114,-2.8549,-2.8097,-2.7457,-2.6964,-2.6587,-2.6512,-2.6487,-2.6487,-2.6487,-2.6487,-2.6487,-2.6487,-2.6487,-2.6487,-2.6487,-2.6487,-2.6624,-2.733,-2.8556,-2.9789,-2.9648,-2.9491,-2.9579,-2.9041,-2.8278,-2.7675,-2.7585,-2.7585,-2.745,-2.6901,-2.6282,-2.5719,-2.4948,-2.4246,-2.3744,-2.361,-2.3595,-2.3595,-2.3595,-2.3595,-2.3595,-2.3595,-2.3595,-2.3595,-2.3595,-2.3595,-2.3595,-2.3595,-2.3595,-2.3595,-2.3595,-2.3595,-2.3595,-2.3595,-2.3595,-2.3595,-2.3595,-2.3595,-2.3595,-2.3595,-2.3595,-2.3595,-2.3595,-2.3595,-2.3595,-2.3595,-2.3595,-2.3595,-2.3595,-2.3595,-2.3595,-2.3595,-2.3595,-2.3595,-2.3595,-2.3595,-2.3595,-2.3595,-2.3595,-2.3595,-2.3595,-2.3595,-2.3655,-2.367,-2.367,-2.3759,-2.3939,-2.4163,-2.4328,-2.4343,-2.4343,-2.4358,-2.4193,-2.3969,-2.3714,-2.361,-2.3595,-2.3595,-2.3595,-2.358,-2.3475,-2.3122,-2.2927,-2.2793,-2.2413,-2.1934,-2.1904,-2.2113,-2.2158,-2.9779,-2.9779,-2.9779,-2.9779,-2.9654,-2.875,-2.8247,-2.7984,-2.7115,-2.6663,-2.6499,-2.6487,-2.6487,-2.6487,-2.6487,-2.6487,-2.6487,-2.6487,-2.6487,-2.6487,-2.6487,-2.6487,-2.6645,-2.733,-2.8247,-2.9244,-2.9661,-2.9886,-2.9627,-2.9331,-2.8697,-2.763,-2.7615,-2.7585,-2.7495,-2.6931,-2.6542,-2.6183,-2.5158,-2.456,-2.4291,-2.3849,-2.3595,-2.3595,-2.3595,-2.3595,-2.3595,-2.3595,-2.3595,-2.3595,-2.3595,-2.3595,-2.3595,-2.3595,-2.3595,-2.3595,-2.3595,-2.3595,-2.3595,-2.3595,-2.3595,-2.3595,-2.3595,-2.3595,-2.3595,-2.3595,-2.3595,-2.3595,-2.3595,-2.3595,-2.3595,-2.3595,-2.3595,-2.3595,-2.3595,-2.3595,-2.3595,-2.3595,-2.3595,-2.3595,-2.3595,-2.3595,-2.3595,-2.3595,-2.3595,-2.3595,-2.364,-2.367,-2.3804,-2.4163,-2.4358,-2.4515,-2.4709,-2.4986,-2.5151,-2.5151,-2.5166,-2.5187,-2.4978,-2.4612,-2.4133,-2.364,-2.361,-2.3595,-2.3595,-2.358,-2.358,-2.3415,-2.3355,-2.3221,-2.3116,-2.2787,-2.2981,-2.3161,-2.3086,-2.9779,-2.9779,-2.9779,-2.9641,-2.934,-2.8473,-2.7971,-2.762,-2.6901,-2.6487,-2.6487,-2.6487,-2.6487,-2.6487,-2.6487,-2.6487,-2.6487,-2.6487,-2.6487,-2.6487,-2.6487,-2.6487,-2.6624,-2.7074,-2.7637,-2.8427,-2.9002,-2.9274,-2.9373,-2.9232,-2.8672,-2.8117,-2.7735,-2.76,-2.7585,-2.7255,-2.6866,-2.6512,-2.5756,-2.5232,-2.4605,-2.4246,-2.3879,-2.3684,-2.3595,-2.3595,-2.3595,-2.3595,-2.3595,-2.3595,-2.3595,-2.3595,-2.3595,-2.3595,-2.3595,-2.3595,-2.3595,-2.3595,-2.3595,-2.3595,-2.3595,-2.3595,-2.3595,-2.3595,-2.3595,-2.3595,-2.3595,-2.3595,-2.3595,-2.3595,-2.3595,-2.3595,-2.3595,-2.3595,-2.3595,-2.3595,-2.3595,-2.3595,-2.3595,-2.3595,-2.3595,-2.3595,-2.361,-2.3625,-2.361,-2.367,-2.3917,-2.3992,-2.4148,-2.4634,-2.5053,-2.5187,-2.5292,-2.5495,-2.557,-2.557,-2.563,-2.5719,-2.5561,-2.5226,-2.4657,-2.3954,-2.3684,-2.367,-2.3625,-2.3595,-2.3595,-2.3595,-2.3535,-2.349,-2.358,-2.3595,-2.3595,-2.3595,-2.3595,-2.9779,-2.9779,-2.9729,-2.9402,-2.8888,-2.8273,-2.772,-2.7268,-2.6751,-2.6487,-2.6487,-2.6487,-2.6487,-2.6487,-2.6487,-2.6487,-2.6487,-2.6487,-2.6487,-2.6487,-2.6487,-2.6487,-2.6521,-2.6816,-2.725,-2.7855,-2.7868,-2.8598,-2.91,-2.8785,-2.8581,-2.8371,-2.7899,-2.763,-2.7585,-2.754,-2.7255,-2.6851,-2.6527,-2.5929,-2.5113,-2.4694,-2.4246,-2.3894,-2.3625,-2.361,-2.3595,-2.3595,-2.3595,-2.3595,-2.3595,-2.3595,-2.3595,-2.3595,-2.3595,-2.3595,-2.3595,-2.3595,-2.3595,-2.3595,-2.3595,-2.3595,-2.3595,-2.3595,-2.3595,-2.3595,-2.3595,-2.3595,-2.3595,-2.3595,-2.3595,-2.3595,-2.3699,-2.3744,-2.3729,-2.3625,-2.3759,-2.3684,-2.364,-2.3774,-2.3804,-2.3714,-2.3789,-2.3804,-2.3864,-2.4335,-2.45,-2.4619,-2.4866,-2.5315,-2.5615,-2.5749,-2.5839,-2.5929,-2.5944,-2.5944,-2.6033,-2.6108,-2.5974,-2.5674,-2.5211,-2.4597,-2.4044,-2.3789,-2.3759,-2.3684,-2.3595,-2.3595,-2.3595,-2.3595,-2.3595,-2.3595,-2.3595,-2.3595,-2.3595,-2.9779,-2.9754,-2.9302,-2.9013,-2.8775,-2.7896,-2.7394,-2.7218,-2.6725,-2.6487,-2.6487,-2.6487,-2.6487,-2.6487,-2.6487,-2.6487,-2.6487,-2.6487,-2.6487,-2.6487,-2.6487,-2.6487,-2.6624,-2.704,-2.7451,-2.7887,-2.9129,-2.9531,-2.9333,-2.9157,-2.9062,-2.8569,-2.8079,-2.76,-2.76,-2.7585,-2.7555,-2.7315,-2.6911,-2.6522,-2.5974,-2.5128,-2.4605,-2.4291,-2.3864,-2.361,-2.3595,-2.3595,-2.3595,-2.3595,-2.3595,-2.3595,-2.3595,-2.3595,-2.3595,-2.3595,-2.3595,-2.3595,-2.3595,-2.3595,-2.3595,-2.3595,-2.3595,-2.3595,-2.3595,-2.3595,-2.3595,-2.3595,-2.3595,-2.361,-2.3684,-2.3625,-2.3924,-2.4208,-2.4029,-2.4118,-2.4732,-2.4253,-2.4118,-2.4679,-2.4664,-2.456,-2.5046,-2.5016,-2.5061,-2.5143,-2.5217,-2.536,-2.5659,-2.6004,-2.6228,-2.6393,-2.6581,-2.6686,-2.6662,-2.6647,-2.6632,-2.6647,-2.6482,-2.6363,-2.5899,-2.53,-2.4762,-2.4283,-2.3894,-2.3834,-2.3819,-2.3595,-2.3595,-2.3595,-2.3595,-2.3595,-2.3595,-2.3595,-2.3595,-2.9227,-2.9001,-2.89,-2.8587,-2.8109,-2.7568,-2.7165,-2.6914,-2.6637,-2.6487,-2.6487,-2.6487,-2.6487,-2.6487,-2.6487,-2.6487,-2.6487,-2.6487,-2.6487,-2.6487,-2.6487,-2.6487,-2.6521,-2.6884,-2.7175,-2.733,-2.7953,-2.8561,-2.8989,-2.9,-2.8867,-2.9029,-2.8368,-2.7914,-2.763,-2.7585,-2.7585,-2.754,-2.7285,-2.6956,-2.6467,-2.5959,-2.5098,-2.4605,-2.3984,-2.3595,-2.3595,-2.3595,-2.3595,-2.3595,-2.3595,-2.3595,-2.3595,-2.3595,-2.3595,-2.3595,-2.3595,-2.3595,-2.3595,-2.3595,-2.3595,-2.3595,-2.3595,-2.3595,-2.3595,-2.3595,-2.3595,-2.3595,-2.3625,-2.3699,-2.4044,-2.4448,-2.4724,-2.4874,-2.4739,-2.5016,-2.5585,-2.4911,-2.4448,-2.5247,-2.5247,-2.5262,-2.5472,-2.5764,-2.5674,-2.551,-2.5929,-2.6078,-2.6243,-2.6572,-2.6926,-2.7136,-2.733,-2.745,-2.745,-2.742,-2.7345,-2.7285,-2.7126,-2.7091,-2.6881,-2.6198,-2.551,-2.5046,-2.4567,-2.4268,-2.4171,-2.3924,-2.3655,-2.361,-2.361,-2.3595,-2.364,-2.3699,-2.367,-2.8699,-2.8373,-2.8687,-2.826,-2.7469,-2.7253,-2.6927,-2.6549,-2.6487,-2.6487,-2.6487,-2.6487,-2.6487,-2.6487,-2.6487,-2.6487,-2.6487,-2.6487,-2.6487,-2.6487,-2.6487,-2.6487,-2.6521,-2.6555,-2.6624,-2.6533,-2.6973,-2.7696,-2.832,-2.8395,-2.8652,-2.9214,-2.8679,-2.8137,-2.7778,-2.7615,-2.7585,-2.757,-2.7525,-2.733,-2.6841,-2.6557,-2.5839,-2.4724,-2.4171,-2.3744,-2.3655,-2.3595,-2.3595,-2.3595,-2.3595,-2.3595,-2.3595,-2.3595,-2.3595,-2.3595,-2.3595,-2.3595,-2.3595,-2.3595,-2.3595,-2.3595,-2.3595,-2.3595,-2.3595,-2.3625,-2.3714,-2.3849,-2.3984,-2.4283,-2.4724,-2.5068,-2.548,-2.5674,-2.5689,-2.5974,-2.6333,-2.5636,-2.5442,-2.5839,-2.5959,-2.5929,-2.6048,-2.6243,-2.6033,-2.5959,-2.6408,-2.6752,-2.6911,-2.7061,-2.7315,-2.7435,-2.754,-2.7585,-2.7585,-2.7585,-2.7585,-2.757,-2.7525,-2.751,-2.748,-2.7031,-2.6303,-2.5764,-2.533,-2.4956,-2.453,-2.4201,-2.3984,-2.3759,-2.3789,-2.3962,-2.3954,-2.3849,-2.3879,-2.9151,-2.944,-2.8599,-2.8122,-2.7821,-2.704,-2.6625,-2.6499,-2.6487,-2.6487,-2.6487,-2.6487,-2.6487,-2.6487,-2.6487,-2.6487,-2.6487,-2.6487,-2.6487,-2.6487,-2.6487,-2.6487,-2.6487,-2.6487,-2.6487,-2.6679,-2.7007,-2.7571,-2.7904,-2.8003,-2.8577,-2.8929,-2.8287,-2.7876,-2.8144,-2.7944,-2.7585,-2.7585,-2.7585,-2.7465,-2.7285,-2.6791,-2.6078,-2.4903,-2.4575,-2.4171,-2.3744,-2.3625,-2.3595,-2.3595,-2.3595,-2.3595,-2.3595,-2.3595,-2.3595,-2.3595,-2.3595,-2.3595,-2.3595,-2.3595,-2.3595,-2.3595,-2.3655,-2.364,-2.364,-2.3699,-2.4044,-2.444,-2.4889,-2.53,-2.5397,-2.5704,-2.5929,-2.6123,-2.6138,-2.6183,-2.6911,-2.6791,-2.6393,-2.6851,-2.6731,-2.6542,-2.6701,-2.6836,-2.6782,-2.6722,-2.6986,-2.7195,-2.7285,-2.736,-2.748,-2.7555,-2.757,-2.7585,-2.7585,-2.7585,-2.7585,-2.7585,-2.757,-2.757,-2.7555,-2.754,-2.7136,-2.6497,-2.5914,-2.5405,-2.5001,-2.4634,-2.4335,-2.4178,-2.4276,-2.4425,-2.4485,-2.4552,-2.4619,-2.8925,-2.8888,-2.8624,-2.8197,-2.7645,-2.7165,-2.6751,-2.6499,-2.6487,-2.6487,-2.6487,-2.6487,-2.6487,-2.6487,-2.6487,-2.6487,-2.6487,-2.6487,-2.6487,-2.6487,-2.6487,-2.6487,-2.6487,-2.6487,-2.6487,-2.6589,-2.6905,-2.7351,-2.771,-2.8298,-2.8733,-2.9058,-2.8663,-2.8559,-2.8424,-2.7944,-2.766,-2.76,-2.7585,-2.7585,-2.754,-2.6971,-2.6183,-2.5794,-2.5247,-2.4769,-2.4261,-2.4111,-2.3939,-2.3684,-2.3595,-2.3595,-2.3595,-2.3595,-2.3595,-2.3595,-2.3595,-2.3595,-2.3595,-2.3595,-2.3595,-2.364,-2.3879,-2.4118,-2.4238,-2.4477,-2.4762,-2.5128,-2.5681,-2.6123,-2.6123,-2.6363,-2.6791,-2.6971,-2.6791,-2.6941,-2.73,-2.7225,-2.736,-2.754,-2.73,-2.7165,-2.733,-2.745,-2.754,-2.7585,-2.7585,-2.7585,-2.7585,-2.7585,-2.7585,-2.7585,-2.7585,-2.7585,-2.7585,-2.7585,-2.7585,-2.7585,-2.7585,-2.7585,-2.7585,-2.757,-2.751,-2.7195,-2.6572,-2.5974,-2.5749,-2.5495,-2.5061,-2.4702,-2.4918,-2.5113,-2.5187,-2.5247,-2.5367,-2.87,-2.8486,-2.875,-2.8423,-2.7657,-2.7356,-2.7077,-2.67,-2.6549,-2.6487,-2.6487,-2.6487,-2.6487,-2.6487,-2.6487,-2.6487,-2.6487,-2.6487,-2.6487,-2.6487,-2.6487,-2.6487,-2.6487,-2.6487,-2.6487,-2.6487,-2.6555,-2.685,-2.7384,-2.8147,-2.8792,-2.9133,-2.9416,-2.9349,-2.8793,-2.8244,-2.7869,-2.7615,-2.7585,-2.7585,-2.745,-2.7106,-2.6692,-2.6602,-2.6078,-2.5495,-2.4896,-2.459,-2.4306,-2.3954,-2.3714,-2.3595,-2.3595,-2.3595,-2.3595,-2.3595,-2.3595,-2.3595,-2.3595,-2.361,-2.3684,-2.3909,-2.4306,-2.459,-2.4948,-2.5315,-2.5779,-2.5914,-2.6393,-2.6782,-2.6866,-2.724,-2.748,-2.7525,-2.7525,-2.7585,-2.7555,-2.751,-2.748,-2.7585,-2.7585,-2.7585,-2.7585,-2.7585,-2.7585,-2.7585,-2.7585,-2.7585,-2.7585,-2.7585,-2.7585,-2.7585,-2.7585,-2.7585,-2.7585,-2.7585,-2.7585,-2.7585,-2.7585,-2.7585,-2.7585,-2.7585,-2.751,-2.745,-2.724,-2.6692,-2.6512,-2.6213,-2.5704,-2.5465,-2.5674,-2.5809,-2.5854,-2.6019,-2.6198,-2.9189,-2.9541,-2.9063,-2.8813,-2.8549,-2.7695,-2.7256,-2.7128,-2.6675,-2.6499,-2.6487,-2.6487,-2.6487,-2.6487,-2.6487,-2.6487,-2.6487,-2.6487,-2.6487,-2.6487,-2.6487,-2.6487,-2.6487,-2.6487,-2.6487,-2.6487,-2.6487,-2.6533,-2.6939,-2.7571,-2.8336,-2.8917,-2.9272,-2.9388,-2.9433,-2.8682,-2.8173,-2.772,-2.7615,-2.7585,-2.757,-2.748,-2.7136,-2.6791,-2.6522,-2.6168,-2.554,-2.5113,-2.4679,-2.4485,-2.3939,-2.3655,-2.3595,-2.3595,-2.3595,-2.3595,-2.3595,-2.3595,-2.361,-2.3699,-2.3924,-2.4276,-2.4649,-2.4933,-2.5531,-2.6093,-2.6507,-2.6497,-2.7036,-2.736,-2.7345,-2.751,-2.7585,-2.7585,-2.7585,-2.7585,-2.7585,-2.7585,-2.7585,-2.7585,-2.7585,-2.7585,-2.7585,-2.7585,-2.7585,-2.7585,-2.7585,-2.7585,-2.7585,-2.7585,-2.7585,-2.7585,-2.7585,-2.7585,-2.7585,-2.7585,-2.7585,-2.7585,-2.7585,-2.7585,-2.7585,-2.7585,-2.7585,-2.751,-2.7375,-2.724,-2.6911,-2.6527,-2.6198,-2.6183,-2.6333,-2.6422,-2.6482,-2.6692,-2.6886,-2.9566,-2.9767,-2.9515,-2.9038,-2.8436,-2.7921,-2.7417,-2.6889,-2.6612,-2.6487,-2.6487,-2.6487,-2.6487,-2.6487,-2.6487,-2.6487,-2.6487,-2.6487,-2.6487,-2.6487,-2.6487,-2.6487,-2.6487,-2.6487,-2.6487,-2.6487,-2.6487,-2.6487,-2.6748,-2.7317,-2.8149,-2.8874,-2.9201,-2.9637,-2.9773,-2.9044,-2.8547,-2.8154,-2.7839,-2.7615,-2.7585,-2.757,-2.7465,-2.718,-2.7151,-2.6776,-2.6243,-2.5959,-2.551,-2.5173,-2.453,-2.4186,-2.4073,-2.3864,-2.3595,-2.364,-2.3977,-2.3962,-2.3693,-2.3984,-2.4321,-2.4754,-2.5262,-2.6078,-2.6602,-2.6941,-2.7151,-2.718,-2.7405,-2.757,-2.7585,-2.7585,-2.7585,-2.7585,-2.7585,-2.7585,-2.7585,-2.7585,-2.7585,-2.7585,-2.7585,-2.7585,-2.7585,-2.7585,-2.7585,-2.7585,-2.7585,-2.7585,-2.7585,-2.7585,-2.7585,-2.7585,-2.7585,-2.7585,-2.7585,-2.7585,-2.7585,-2.7585,-2.7585,-2.7585,-2.7585,-2.7585,-2.7585,-2.7585,-2.751,-2.7345,-2.7151,-2.7061,-2.6856,-2.6886,-2.6946,-2.7001,-2.7016,-2.7151,-2.7285,-2.9779,-2.9779,-2.9779,-2.9289,-2.8511,-2.8235,-2.7657,-2.6964,-2.6612,-2.6487,-2.6487,-2.6487,-2.6487,-2.6487,-2.6487,-2.6487,-2.6487,-2.6487,-2.6487,-2.6487,-2.6487,-2.6487,-2.6487,-2.6487,-2.6487,-2.6487,-2.6487,-2.6487,-2.6692,-2.7108,-2.7769,-2.8671,-2.9016,-2.9477,-2.9676,-2.9119,-2.8379,-2.8169,-2.7794,-2.7615,-2.7585,-2.7585,-2.7585,-2.757,-2.754,-2.736,-2.6926,-2.6596,-2.6228,-2.5869,-2.5202,-2.4859,-2.4769,-2.4537,-2.4313,-2.4373,-2.4679,-2.4664,-2.45,-2.4605,-2.4889,-2.5397,-2.6033,-2.6931,-2.7345,-2.7585,-2.7585,-2.751,-2.7555,-2.7585,-2.7585,-2.7585,-2.7585,-2.7585,-2.7585,-2.7585,-2.756,-2.7509,-2.7534,-2.7585,-2.7585,-2.7585,-2.7585,-2.7585,-2.7585,-2.7585,-2.7585,-2.7585,-2.7585,-2.7585,-2.7585,-2.7585,-2.7585,-2.7585,-2.7585,-2.7585,-2.7585,-2.7585,-2.7585,-2.7585,-2.7585,-2.7585,-2.7585,-2.7585,-2.7585,-2.7525,-2.7375,-2.748,-2.7585,-2.7405,-2.73,-2.7435,-2.751,-2.7585,-2.757,-2.9779,-2.9779,-2.9779,-2.9716,-2.9503,-2.8536,-2.8059,-2.7682,-2.6876,-2.6499,-2.6487,-2.6487,-2.6487,-2.6487,-2.6487,-2.6487,-2.6487,-2.6487,-2.6487,-2.6487,-2.6487,-2.6487,-2.6487,-2.6487,-2.6487,-2.6487,-2.6487,-2.6487,-2.6521,-2.6624,-2.7162,-2.7776,-2.8489,-2.901,-2.9171,-2.8798,-2.8142,-2.7869,-2.7614,-2.76,-2.7585,-2.7585,-2.7585,-2.7585,-2.7585,-2.7555,-2.748,-2.7016,-2.6701,-2.6497,-2.5899,-2.5555,-2.5495,-2.527,-2.5113,-2.5181,-2.539,-2.542,-2.5405,-2.5427,-2.5839,-2.6422,-2.7016,-2.742,-2.757,-2.7585,-2.7585,-2.756,-2.7484,-2.7433,-2.7484,-2.7534,-2.7214,-2.7137,-2.7034,-2.7045,-2.7111,-2.7357,-2.7408,-2.7534,-2.7585,-2.7585,-2.7585,-2.7585,-2.7585,-2.7585,-2.7585,-2.7585,-2.7585,-2.7585,-2.7585,-2.7585,-2.7585,-2.7585,-2.7585,-2.7585,-2.7585,-2.7585,-2.7585,-2.7585,-2.7585,-2.7585,-2.7585,-2.7585,-2.7585,-2.7585,-2.7585,-2.7585,-2.7585,-2.7585,-2.7585,-2.7585,-2.7585,-2.7585,-2.7585,-2.9779,-2.9779,-2.9779,-2.9591,-2.9202,-2.8423,-2.7908,-2.7507,-2.6839,-2.6487,-2.6487,-2.6487,-2.6487,-2.6487,-2.6487,-2.6487,-2.6487,-2.6487,-2.6487,-2.6487,-2.6487,-2.6487,-2.6487,-2.6487,-2.6487,-2.6487,-2.6487,-2.6487,-2.6487,-2.6487,-2.6577,-2.7162,-2.7855,-2.8525,-2.8697,-2.8595,-2.8047,-2.762,-2.7524,-2.76,-2.7585,-2.7585,-2.7585,-2.7585,-2.7585,-2.7585,-2.754,-2.7375,-2.7255,-2.7021,-2.6503,-2.6294,-2.609,-2.5851,-2.5749,-2.5779,-2.6019,-2.6198,-2.6213,-2.6243,-2.6512,-2.7076,-2.745,-2.7534,-2.7484,-2.7575,-2.7585,-2.7484,-2.7188,-2.7034,-2.693,-2.6522,-2.6135,-2.6215,-2.6336,-2.6402,-2.6534,-2.6785,-2.689,-2.689,-2.7291,-2.7585,-2.7585,-2.7585,-2.7585,-2.7585,-2.7585,-2.7585,-2.7585,-2.7585,-2.7585,-2.7585,-2.7585,-2.7585,-2.7585,-2.7585,-2.7585,-2.7585,-2.7585,-2.7585,-2.7585,-2.7585,-2.7585,-2.7585,-2.7585,-2.7585,-2.7585,-2.7585,-2.7585,-2.7585,-2.7585,-2.7585,-2.7585,-2.7585,-2.7585,-2.9641,-2.9779,-2.9779,-2.9465,-2.885,-2.8335,-2.7795,-2.7243,-2.6738,-2.6487,-2.6487,-2.6487,-2.6487,-2.6487,-2.6487,-2.6487,-2.6487,-2.6487,-2.6487,-2.6487,-2.6487,-2.6487,-2.6487,-2.6487,-2.6487,-2.6487,-2.6487,-2.6487,-2.6487,-2.6487,-2.6555,-2.6714,-2.7061,-2.7776,-2.8407,-2.8611,-2.8139,-2.757,-2.77,-2.7735,-2.7675,-2.7585,-2.7585,-2.7585,-2.7585,-2.7585,-2.7585,-2.75,-2.7373,-2.7204,-2.6966,-2.6783,-2.6574,-2.6351,-2.6219,-2.6348,-2.6557,-2.6856,-2.6847,-2.6718,-2.6806,-2.7045,-2.6846,-2.6993,-2.7188,-2.728,-2.7229,-2.7509,-2.6982,-2.6469,-2.6404,-2.6027,-2.5673,-2.5783,-2.5755,-2.5796,-2.5823,-2.6,-2.6108,-2.6162,-2.6561,-2.6785,-2.6774,-2.6736,-2.724,-2.7339,-2.7585,-2.7585,-2.7585,-2.7585,-2.7585,-2.7585,-2.7585,-2.7585,-2.7585,-2.7585,-2.7585,-2.7585,-2.7585,-2.7585,-2.7585,-2.7585,-2.7585,-2.7585,-2.7585,-2.7585,-2.7585,-2.7585,-2.7585,-2.7585,-2.7585,-2.7585,-2.7585,-2.7585,-2.7585,-2.9176,-2.9767,-2.9703,-2.9352,-2.875,-2.8298,-2.7795,-2.7278,-2.6725,-2.6487,-2.6487,-2.6487,-2.6487,-2.6487,-2.6487,-2.6487,-2.6487,-2.6487,-2.6487,-2.6487,-2.6487,-2.6487,-2.6487,-2.6487,-2.6487,-2.6487,-2.6487,-2.6487,-2.6487,-2.6487,-2.6487,-2.6487,-2.6714,-2.7027,-2.7769,-2.8733,-2.8512,-2.7619,-2.8172,-2.8051,-2.7805,-2.7631,-2.7571,-2.7351,-2.7218,-2.7163,-2.7137,-2.7163,-2.693,-2.6611,-2.692,-2.6725,-2.637,-2.6901,-2.7045,-2.7094,-2.733,-2.7485,-2.7464,-2.686,-2.6479,-2.6428,-2.6188,-2.6081,-2.6404,-2.6563,-2.6695,-2.6941,-2.6575,-2.631,-2.6108,-2.5755,-2.5273,-2.505,-2.4965,-2.5087,-2.5101,-2.5437,-2.5604,-2.5896,-2.5689,-2.5536,-2.5564,-2.5757,-2.6562,-2.7024,-2.7437,-2.7549,-2.7488,-2.76,-2.76,-2.7585,-2.7585,-2.7585,-2.7585,-2.7585,-2.7585,-2.7585,-2.7585,-2.7585,-2.7585,-2.7585,-2.7585,-2.7585,-2.7585,-2.7585,-2.7585,-2.7585,-2.7585,-2.7585,-2.7585,-2.7585,-2.7585,-2.7585,-2.7585,-2.6919,-2.7659,-2.7659,-2.7742,-2.786,-2.8047,-2.7795,-2.7278,-2.6763,-2.6487,-2.6487,-2.6487,-2.6487,-2.6487,-2.6487,-2.6487,-2.6487,-2.6487,-2.6487,-2.6487,-2.6487,-2.6487,-2.6487,-2.6487,-2.6487,-2.6487,-2.6487,-2.6487,-2.6487,-2.6487,-2.6487,-2.6487,-2.6521,-2.6611,-2.6907,-2.7458,-2.7411,-2.7783,-2.8154,-2.827,-2.8008,-2.7686,-2.7277,-2.6772,-2.6443,-2.6312,-2.6295,-2.6349,-2.6135,-2.5851,-2.6201,-2.6094,-2.5946,-2.6455,-2.6628,-2.6628,-2.6771,-2.7331,-2.6707,-2.5919,-2.5342,-2.5425,-2.5508,-2.537,-2.5728,-2.5755,-2.5946,-2.5973,-2.5673,-2.5315,-2.4879,-2.4266,-2.3842,-2.3754,-2.3789,-2.4047,-2.4283,-2.4905,-2.532,-2.5781,-2.5812,-2.5816,-2.5835,-2.5656,-2.62,-2.6581,-2.6963,-2.7045,-2.6969,-2.7401,-2.7575,-2.76,-2.7585,-2.7585,-2.7585,-2.7585,-2.7585,-2.7585,-2.7585,-2.7585,-2.7585,-2.7585,-2.7585,-2.7585,-2.7585,-2.7585,-2.7585,-2.7585,-2.7585,-2.7585,-2.7484,-2.7534,-2.7585,-2.7585,-2.7585,-2.5375,-2.6136,-2.6477,-2.6649,-2.6879,-2.7513,-2.7507,-2.7027,-2.665,-2.6487,-2.6487,-2.6487,-2.6487,-2.6487,-2.6487,-2.6487,-2.6487,-2.6487,-2.6487,-2.6487,-2.6487,-2.6487,-2.6487,-2.6487,-2.6487,-2.6487,-2.6487,-2.6487,-2.6487,-2.6487,-2.6487,-2.6487,-2.6487,-2.6521,-2.6688,-2.7006,-2.7248,-2.7625,-2.7788,-2.8037,-2.7754,-2.7385,-2.6961,-2.6411,-2.5965,-2.5702,-2.5495,-2.5342,-2.5259,-2.5147,-2.5175,-2.5203,-2.5342,-2.5563,-2.5824,-2.5919,-2.6081,-2.6402,-2.5591,-2.5091,-2.4624,-2.4467,-2.461,-2.4753,-2.4922,-2.5007,-2.5231,-2.5161,-2.465,-2.4476,-2.4242,-2.3548,-2.3319,-2.3301,-2.3558,-2.3871,-2.4279,-2.4965,-2.5166,-2.5598,-2.5788,-2.5915,-2.6053,-2.5959,-2.5974,-2.6194,-2.643,-2.6498,-2.6599,-2.6974,-2.7384,-2.7457,-2.7514,-2.7534,-2.7534,-2.7585,-2.7585,-2.7585,-2.7585,-2.7585,-2.7585,-2.7585,-2.7585,-2.7585,-2.756,-2.756,-2.7585,-2.7585,-2.7458,-2.7342,-2.724,-2.7342,-2.7534,-2.7484,-2.7382,-2.4511,-2.5197,-2.6063,-2.6109,-2.5912,-2.6587,-2.6814,-2.6524,-2.6512,-2.6487,-2.6487,-2.6487,-2.6487,-2.6487,-2.6487,-2.6487,-2.6487,-2.6487,-2.6487,-2.6487,-2.6487,-2.6487,-2.6487,-2.6487,-2.6487,-2.6487,-2.6487,-2.6487,-2.6487,-2.6487,-2.6487,-2.6487,-2.6487,-2.6487,-2.671,-2.6933,-2.7171,-2.7378,-2.7629,-2.7742,-2.7498,-2.7154,-2.6688,-2.618,-2.5756,-2.5449,-2.5221,-2.5032,-2.4723,-2.4667,-2.4809,-2.4667,-2.4724,-2.4992,-2.5231,-2.5425,-2.5481,-2.4922,-2.4681,-2.4337,-2.3914,-2.3619,-2.3382,-2.3662,-2.4002,-2.4276,-2.4532,-2.4727,-2.4546,-2.4432,-2.4256,-2.3906,-2.3615,-2.3778,-2.4004,-2.433,-2.4707,-2.4974,-2.5057,-2.5223,-2.5318,-2.5461,-2.5775,-2.5784,-2.5999,-2.6086,-2.633,-2.6454,-2.6518,-2.6479,-2.6881,-2.7202,-2.7299,-2.7423,-2.7458,-2.7408,-2.7585,-2.7585,-2.7585,-2.7585,-2.7585,-2.756,-2.7585,-2.756,-2.7534,-2.7458,-2.728,-2.7214,-2.7214,-2.706,-2.668,-2.689,-2.7034,-2.7008,-2.689,-2.2168,-2.2923,-2.3215,-2.3653,-2.4169,-2.4472,-2.5254,-2.6396,-2.6487,-2.6487,-2.6487,-2.6487,-2.6418,-2.6487,-2.6487,-2.6487,-2.6487,-2.6487,-2.6487,-2.6487,-2.6487,-2.6487,-2.6487,-2.6487,-2.6487,-2.6487,-2.6487,-2.6487,-2.6487,-2.6487,-2.6487,-2.6487,-2.6487,-2.6487,-2.6589,-2.6748,-2.702,-2.7269,-2.7569,-2.7506,-2.7312,-2.7045,-2.6546,-2.5942,-2.5183,-2.4849,-2.4588,-2.4116,-2.3747,-2.3695,-2.3666,-2.359,-2.359,-2.4192,-2.4709,-2.5175,-2.461,-2.3813,-2.4089,-2.378,-2.3378,-2.3198,-2.3095,-2.3155,-2.3395,-2.3663,-2.391,-2.4201,-2.4451,-2.4421,-2.4497,-2.4342,-2.4199,-2.4418,-2.4619,-2.4845,-2.5197,-2.5398,-2.546,-2.5649,-2.5699,-2.564,-2.5875,-2.6067,-2.6238,-2.62,-2.6205,-2.6403,-2.6381,-2.6316,-2.6413,-2.6782,-2.6763,-2.6814,-2.7034,-2.706,-2.7382,-2.7585,-2.7484,-2.7433,-2.7458,-2.7458,-2.7534,-2.7382,-2.7019,-2.6864,-2.68,-2.6707,-2.6534,-2.6162,-2.5837,-2.6229,-2.6496,-2.6402,-2.6242,-2.0934,-2.1441,-2.1838,-2.259,-2.3404,-2.3514,-2.4289,-2.5205,-2.5323,-2.5464,-2.5886,-2.5873,-2.6129,-2.6487,-2.6487,-2.6487,-2.6487,-2.6487,-2.6487,-2.6487,-2.6487,-2.6487,-2.6487,-2.6487,-2.6487,-2.6487,-2.6487,-2.6487,-2.6487,-2.6487,-2.6487,-2.6487,-2.6487,-2.6487,-2.6521,-2.6589,-2.676,-2.7015,-2.7204,-2.7217,-2.7095,-2.692,-2.6309,-2.5638,-2.4707,-2.433,-2.3966,-2.3464,-2.3158,-2.3108,-2.3095,-2.3095,-2.3125,-2.3632,-2.3884,-2.4208,-2.3813,-2.3471,-2.3603,-2.3424,-2.3198,-2.3108,-2.3133,-2.3288,-2.3439,-2.37,-2.3838,-2.4021,-2.4261,-2.445,-2.4632,-2.48,-2.4938,-2.5064,-2.5234,-2.5372,-2.5636,-2.5933,-2.6147,-2.6361,-2.6348,-2.621,-2.6282,-2.6424,-2.6461,-2.6388,-2.6329,-2.6378,-2.6206,-2.5931,-2.6087,-2.6357,-2.6216,-2.6068,-2.6336,-2.6602,-2.6785,-2.6982,-2.7034,-2.7034,-2.7163,-2.706,-2.6904,-2.6628,-2.6295,-2.6203,-2.6068,-2.5837,-2.5632,-2.5287,-2.5063,-2.5203,-2.5508,-2.5701,-2.5453,-2.0605,-2.0712,-2.1517,-2.2291,-2.3184,-2.3158,-2.322,-2.3257,-2.3294,-2.3891,-2.4707,-2.4886,-2.5406,-2.6025,-2.6164,-2.6349,-2.6418,-2.6487,-2.6487,-2.6487,-2.6487,-2.6487,-2.6487,-2.6487,-2.6487,-2.6487,-2.6487,-2.6487,-2.6487,-2.6487,-2.6487,-2.6487,-2.6487,-2.6487,-2.6487,-2.6487,-2.6589,-2.6658,-2.6714,-2.6679,-2.6611,-2.6454,-2.6235,-2.5745,-2.5159,-2.4625,-2.4117,-2.3584,-2.3145,-2.312,-2.3095,-2.3095,-2.3138,-2.3168,-2.3245,-2.3245,-2.3198,-2.3215,-2.3245,-2.3155,-2.3238,-2.3208,-2.3195,-2.359,-2.3853,-2.3841,-2.3929,-2.4418,-2.477,-2.5046,-2.5272,-2.5398,-2.5511,-2.5624,-2.5749,-2.5887,-2.6097,-2.626,-2.6323,-2.6487,-2.6461,-2.6361,-2.6373,-2.6487,-2.6487,-2.6474,-2.6449,-2.6454,-2.6151,-2.5747,-2.566,-2.588,-2.5543,-2.5384,-2.5701,-2.5919,-2.6095,-2.6256,-2.6416,-2.6416,-2.6416,-2.631,-2.6176,-2.5919,-2.5701,-2.5453,-2.5287,-2.4979,-2.4739,-2.4696,-2.4467,-2.425,-2.4423,-2.4753,-2.4639,-2.0615,-2.0605,-2.0867,-2.1126,-2.1298,-2.1298,-2.1336,-2.1308,-2.1308,-2.2301,-2.3635,-2.3927,-2.448,-2.537,-2.5476,-2.5769,-2.6418,-2.6487,-2.6487,-2.6487,-2.6487,-2.6487,-2.6487,-2.6487,-2.6487,-2.6487,-2.6487,-2.6487,-2.6487,-2.6487,-2.6487,-2.6487,-2.6487,-2.6487,-2.6487,-2.6487,-2.6487,-2.6487,-2.6487,-2.6487,-2.6487,-2.6487,-2.6348,-2.6097,-2.5686,-2.5134,-2.4594,-2.4104,-2.3547,-2.3208,-2.312,-2.3095,-2.3095,-2.312,-2.312,-2.3108,-2.3233,-2.3271,-2.3283,-2.3333,-2.3459,-2.3703,-2.3853,-2.4155,-2.428,-2.4117,-2.4318,-2.4908,-2.5372,-2.5636,-2.5871,-2.5959,-2.6034,-2.6147,-2.6248,-2.6373,-2.6487,-2.6487,-2.6487,-2.6487,-2.6487,-2.6487,-2.6487,-2.6487,-2.6487,-2.6487,-2.6487,-2.642,-2.6131,-2.5739,-2.5211,-2.5218,-2.4786,-2.4704,-2.4978,-2.5161,-2.5315,-2.5591,-2.5837,-2.5783,-2.5687,-2.5453,-2.5231,-2.5259,-2.5119,-2.4781,-2.4366,-2.3901,-2.3767,-2.393,-2.3901,-2.3738,-2.359,-2.3813,-2.3649,-2.0615,-2.0615,-2.0615,-2.0615,-2.0615,-2.0615,-2.0615,-2.0615,-2.0605,-2.1193,-2.2188,-2.2702,-2.3599,-2.4791,-2.5016,-2.5523,-2.6302,-2.6487,-2.6487,-2.6487,-2.6487,-2.6487,-2.6487,-2.6487,-2.6487,-2.6487,-2.6487,-2.6487,-2.6487,-2.6487,-2.6487,-2.6487,-2.6487,-2.6487,-2.6487,-2.6487,-2.6487,-2.6487,-2.6487,-2.6487,-2.6487,-2.6487,-2.6487,-2.6323,-2.5925,-2.5448,-2.5146,-2.4669,-2.4236,-2.3948,-2.3935,-2.3923,-2.3948,-2.3948,-2.391,-2.391,-2.3923,-2.3847,-2.3822,-2.3835,-2.3935,-2.4243,-2.4368,-2.4587,-2.5021,-2.4908,-2.4921,-2.546,-2.5883,-2.6172,-2.621,-2.6285,-2.6298,-2.6361,-2.6386,-2.6449,-2.6487,-2.6487,-2.6487,-2.6487,-2.6487,-2.6487,-2.6487,-2.6487,-2.6487,-2.6487,-2.6487,-2.6487,-2.6185,-2.5749,-2.5247,-2.4721,-2.4356,-2.3952,-2.3943,-2.4208,-2.4439,-2.4781,-2.5231,-2.5063,-2.4879,-2.4525,-2.4295,-2.4323,-2.4237,-2.393,-2.3501,-2.3305,-2.3215,-2.3412,-2.3322,-2.3185,-2.3095,-2.3095,-2.3155,-2.0615,-2.0615,-2.0615,-2.0615,-2.0615,-2.0615,-2.0615,-2.0615,-2.0605,-2.0605,-2.0818,-2.1555,-2.2962,-2.4072,-2.485,-2.5546,-2.6094,-2.6383,-2.6452,-2.6487,-2.6487,-2.6487,-2.6487,-2.6487,-2.6487,-2.6487,-2.6487,-2.6487,-2.6487,-2.6487,-2.6487,-2.6487,-2.6487,-2.6487,-2.6487,-2.6487,-2.6487,-2.6487,-2.6487,-2.6487,-2.6487,-2.6487,-2.6487,-2.6298,-2.6013,-2.5732,-2.5473,-2.5247,-2.4946,-2.4713,-2.46,-2.4575,-2.4562,-2.4525,-2.4575,-2.455,-2.4525,-2.4562,-2.4625,-2.4575,-2.4713,-2.485,-2.4876,-2.5089,-2.5536,-2.5686,-2.5699,-2.5896,-2.6285,-2.6436,-2.6474,-2.6487,-2.6487,-2.6487,-2.6487,-2.6487,-2.6487,-2.6487,-2.6487,-2.6487,-2.6487,-2.6487,-2.6487,-2.6487,-2.6487,-2.6487,-2.6487,-2.6487,-2.6348,-2.5824,-2.5335,-2.4713,-2.4216,-2.3791,-2.3484,-2.3471,-2.3842,-2.4163,-2.4538,-2.4321,-2.4102,-2.3884,-2.3649,-2.3412,-2.3245,-2.3305,-2.3275,-2.3155,-2.3095,-2.3095,-2.3095,-2.3095,-2.3095,-2.3095,-2.3095,-2.0615,-2.0615,-2.0615,-2.0615,-2.0615,-2.0615,-2.0615,-2.0615,-2.0615,-2.0615,-2.0644,-2.0779,-2.1555,-2.2627,-2.3478,-2.4397,-2.5511,-2.606,-2.6452,-2.6487,-2.6487,-2.6487,-2.6487,-2.6487,-2.6487,-2.6487,-2.6487,-2.6487,-2.6487,-2.6487,-2.6487,-2.6487,-2.6487,-2.6487,-2.6487,-2.6487,-2.6487,-2.6487,-2.6487,-2.6487,-2.6487,-2.6487,-2.6487,-2.6424,-2.6399,-2.6034,-2.5711,-2.5523,-2.5197,-2.4958,-2.4908,-2.4958,-2.5008,-2.5034,-2.5046,-2.5109,-2.5084,-2.5059,-2.5096,-2.5096,-2.5197,-2.5448,-2.5498,-2.5661,-2.5975,-2.621,-2.6223,-2.6223,-2.6461,-2.6461,-2.6487,-2.6487,-2.6487,-2.6487,-2.6487,-2.6487,-2.6487,-2.6487,-2.6487,-2.6487,-2.6487,-2.6487,-2.6487,-2.6487,-2.6487,-2.6487,-2.6487,-2.6487,-2.6461,-2.5937,-2.546,-2.487,-2.4236,-2.4123,-2.4031,-2.333,-2.3454,-2.375,-2.3884,-2.375,-2.3543,-2.3335,-2.3095,-2.3095,-2.3095,-2.3155,-2.3095,-2.3095,-2.3095,-2.3095,-2.3095,-2.3095,-2.3095,-2.3095,-2.3095]}]]